[[{"header":{"parameterUnit":"m.s-1","parameterCategory":1,"la1":31.0,"la2":29.5877,"lo1":-88.7671,"lo2":-86.6584,"dy":0.0162,"dx":0.0185,"nx":115,"ny":88,"refTime":"2026-04-10T12:00:00:Z","depth":0,"parameterNumber":2,"parameterNumberName":"U-component_of_WINDS"},"data":[0.0,0.0,0.0,0.0,0.0,0.0,0.0,0.0,0.0,0.0,0.0,0.0,0.0,0.0,0.0,0.0,0.0,0.0,0.0,0.0,0.0,0.0,0.0,0.0,0.0,0.0,0.0,0.0,0.0,0.0,0.0,0.0,0.0,0.0,0.0,0.0,0.0,0.0,0.0,0.0,0.0,0.0,0.0,0.0,0.0,0.0,0.0,0.0,0.0,0.0,0.0,0.0,0.0,0.0,0.0,0.0,0.0,0.0,0.0,0.0,0.0,0.0,0.0,0.0,0.0,0.0,0.0,0.0,0.0,0.0,0.0,0.0,0.0,0.0,0.0,0.0,0.0,0.0,0.0,0.0,0.0,0.0,0.0,0.0,0.0,0.0,0.0,0.0,0.0,0.0,0.0,0.0,0.0,0.0,0.0,0.0,0.0,0.0,0.0,0.0,0.0,0.0,0.0,0.0,0.0,0.0,0.0,0.0,0.0,0.0,0.0,0.0,0.0,0.0,0.0,0.0,0.0,0.0,0.0,0.0,0.0,0.0,0.0,0.0,0.0,0.0,0.0,0.0,0.0,0.0,0.0,0.0,0.0,0.0,0.0,0.0,0.0,0.0,0.0,0.0,0.0,0.0,0.0,0.0,0.0,0.0,0.0,0.0,0.0,0.0,0.0,0.0,0.0,0.0,0.0,0.0,0.0,0.0,0.0,0.0,0.0,0.0,0.0,0.0,0.0,0.0,0.0,0.0,0.0,0.0,0.0,0.0,0.0,0.0,0.0,0.0,0.0,0.0,0.0,0.0,0.0,0.0,0.0,0.0,0.0,0.0,0.0,0.0,0.0,0.0,0.0,0.0,0.0,0.0,0.0,0.0,0.0,0.0,0.0,0.0,0.0,0.0,0.0,0.0,0.0,0.0,0.0,0.0,0.0,0.0,0.0,0.0,0.0,0.0,0.0,0.0,0.0,0.0,0.0,0.0,0.0,0.0,0.0,0.0,0.0,0.0,0.0,0.0,0.0,0.0,0.0,0.0,0.0,0.0,0.0,0.0,0.0,0.0,0.0,0.0,0.0,0.0,0.0,0.0,0.0,0.0,0.0,0.0,0.0,0.0,0.0,0.0,0.0,0.0,0.0,0.0,0.0,0.0,0.0,0.0,0.0,0.0,0.0,0.0,0.0,0.0,0.0,0.0,0.0,0.0,0.0,0.0,0.0,0.0,0.0,0.0,0.0,0.0,0.0,0.0,0.0,0.0,0.0,0.0,0.0,0.0,0.0,0.0,0.0,0.0,0.0,0.0,0.0,0.0,0.0,0.0,0.0,0.0,0.0,0.0,0.0,0.0,0.0,0.0,0.0,0.0,0.0,0.0,0.0,0.0,0.0,0.0,0.0,0.0,0.0,0.0,0.0,0.0,0.0,0.0,0.0,0.0,0.0,0.0,0.0,0.0,0.0,0.0,0.0,0.0,0.0,0.0,0.0,0.0,0.0,0.0,0.0,0.0,0.0,0.0,0.0,0.0,0.0,0.0,0.0,0.0,0.0,0.0,0.0,0.0,0.0,0.0,0.0,0.0,0.0,0.0,0.0,0.0,0.0,0.0,0.0,0.0,0.0,0.0,0.0,0.0,0.0,0.0,0.0,0.0,0.0,0.0,0.0,0.0,0.0,0.0,0.0,0.0,0.0,0.0,0.0,0.0,0.0,0.0,0.0,0.0,0.0,0.0,0.0,0.0,0.0,0.0,0.0,0.0,0.0,0.0,0.0,0.0,0.0,0.0,0.0,0.0,0.0,0.0,0.0,0.0,0.0,0.0,0.0,0.0,0.0,0.0,0.0,0.0,0.0,0.0,0.0,0.0,0.0,0.0,0.0,0.0,0.0,0.0,0.0,0.0,0.0,0.0,0.0,0.0,0.0,0.0,0.0,0.0,0.0,0.0,0.0,0.0,0.0,0.0,0.0,0.0,0.0,0.0,0.0,0.0,0.0,0.0,0.0,0.0,0.0,0.0,0.0,0.0,0.0,0.0,0.0,0.0,0.0,0.0,0.0,0.0,0.0,0.0,0.0,0.0,0.0,0.0,0.0,0.0,0.0,0.0,0.0,0.0,0.0,0.0,0.0,0.0,0.0,0.0,0.0,0.0,0.0,0.0,0.0,0.0,0.0,0.0,0.0,0.0,0.0,0.0,0.0,0.0,0.0,0.0,0.0,0.0,0.0,0.0,0.0,0.0,0.0,0.0,0.0,0.0,0.0,0.0,0.0,0.0,0.0,0.0,0.0,0.0,0.0,0.0,0.0,0.0,0.0,0.0,0.0,0.0,0.0,0.0,0.0,0.0,0.0,0.0,0.0,0.0,0.0,0.0,0.0,0.0,0.0,0.0,0.0,0.0,0.0,0.0,0.0,0.0,0.0,0.0,0.0,0.0,0.0,0.0,0.0,0.0,0.0,0.0,0.0,0.0,0.0,0.0,0.0,0.0,0.0,0.0,0.0,0.0,0.0,0.0,0.0,0.0,0.0,0.0,0.0,0.0,0.0,0.0,0.0,0.0,0.0,0.0,0.0,0.0,0.0,0.0,0.0,0.0,0.0,0.0,0.0,0.0,0.0,0.0,0.0,0.0,0.0,0.0,0.0,0.0,0.0,0.0,0.0,0.0,0.0,0.0,0.0,0.0,0.0,0.0,0.0,0.0,0.0,0.0,0.0,0.0,0.0,0.0,0.0,0.0,0.0,0.0,0.0,0.0,0.0,0.0,0.0,0.0,0.0,0.0,0.0,0.0,0.0,0.0,0.0,0.0,0.0,0.0,0.0,0.0,0.0,0.0,0.0,0.0,0.0,0.0,0.0,0.0,0.0,0.0,0.0,0.0,0.0,0.0,0.0,0.0,0.0,0.0,0.0,0.0,0.0,0.0,0.0,0.0,0.0,0.0,0.0,0.0,0.0,0.0,0.0,0.0,0.0,0.0,0.0,0.0,0.0,0.0,0.0,0.0,0.0,0.0,0.0,0.0,0.0,0.0,0.0,0.0,0.0,0.0,0.0,0.0,0.0,0.0,0.0,0.0,0.0,0.0,0.0,0.0,0.0,0.0,0.0,0.0,0.0,0.0,0.0,0.0,0.0,0.0,0.0,0.0,0.0,0.0,0.0,0.0,0.0,0.0,0.0,0.0,0.0,0.0,0.0,0.0,0.0,0.0,0.0,0.0,0.0,0.0,0.0,0.0,0.0,0.0,0.0,0.0,0.0,0.0,0.0,0.0,0.0,0.0,0.0,0.0,0.0,0.0,0.0,0.0,0.0,0.0,0.0,0.0,0.0,0.0,0.0,0.0,0.0,0.0,0.0,0.0,0.0,0.0,0.0,0.0,0.0,0.0,0.0,0.0,0.0,0.0,0.0,0.0,0.0,0.0,0.0,0.0,0.0,0.0,0.0,0.0,0.0,0.0,0.0,0.0,0.0,0.0,0.0,0.0,0.0,0.0,0.0,0.0,0.0,0.0,0.0,0.0,0.0,0.0,0.0,0.0,0.0,0.0,0.0,0.0,0.0,0.0,0.0,0.0,0.0,0.0,0.0,0.0,0.0,0.0,0.0,0.0,0.0,0.0,0.0,0.0,0.0,0.0,0.0,0.0,0.0,0.0,0.0,0.0,0.0,0.0,0.0,0.0,0.0,0.0,0.0,0.0,0.0,0.0,0.0,0.0,0.0,0.0,0.0,0.0,0.0,0.0,0.0,0.0,0.0,0.0,0.0,0.0,0.0,0.0,0.0,0.0,0.0,0.0,0.0,0.0,0.0,0.0,0.0,0.0,0.0,0.0,0.0,0.0,0.0,0.0,0.0,0.0,0.0,0.0,0.0,0.0,0.0,0.0,0.0,0.0,0.0,0.0,0.0,0.0,0.0,0.0,0.0,0.0,0.0,0.0,0.0,0.0,0.0,0.0,0.0,0.0,0.0,0.0,0.0,0.0,0.0,0.0,0.0,0.0,0.0,0.0,0.0,0.0,0.0,0.0,0.0,0.0,0.0,0.0,0.0,0.0,0.0,0.0,0.0,0.0,0.0,0.0,0.0,0.0,0.0,0.0,0.0,0.0,0.0,0.0,0.0,0.0,0.0,0.0,0.0,0.0,0.0,0.0,0.0,0.0,0.0,0.0,0.0,0.0,0.0,0.0,0.0,0.0,0.0,0.0,0.0,0.0,0.0,0.0,0.0,0.0,0.0,0.0,0.0,0.0,0.0,0.0,0.0,0.0,0.0,0.0,0.0,0.0,0.0,0.0,0.0,0.0,-0.0333,0.0,0.0,0.0,0.0,0.0,0.0,0.0,0.0,0.0,0.0,0.0,0.0,0.0,0.0,0.0,0.0,0.0,0.0,0.0,0.0,0.0,0.0,0.0,0.0,0.0,0.0,0.0,0.0,0.0,0.0,0.0,0.0,0.0,0.0,0.0,0.0,0.0,0.0,0.0,0.0,0.0,0.0,0.0,0.0,0.0,0.0,0.0,0.0,0.0,0.0,0.0,0.0,0.0,0.0,0.0,0.0,0.0,0.0,0.0,0.0,0.0,0.0,0.0,0.0,0.0,0.0,0.0,0.0,0.0,0.0,0.0,0.0,0.0,0.0,0.0,0.0,0.0,0.0,0.0,0.0,0.0,0.0,0.0,0.0,0.0,0.0,0.0,0.0,0.0,0.0,0.0,0.0,0.0,0.0,0.0,0.0,0.0,0.0,0.0,0.0,0.0,0.0,0.0,0.0,0.0,0.0,0.0,0.0,0.0,0.0,0.0146,0.0056,-0.0011,-0.0169,-0.0401,0.0,0.0,0.0,0.0,0.0,0.0,0.0,0.0,0.0,0.0,0.0,0.0,0.0,0.0,0.0,0.0,0.0,0.0,0.0,0.0,0.0,0.0,0.0,0.0,0.0,0.0,0.0,0.0,0.0,0.0,0.0,0.0,0.0,0.0,0.0,0.0,0.0,0.0,0.0,0.0,0.0,0.0,0.0,0.0,0.0,0.0,0.0,0.0,0.0,0.0,0.0,0.0,0.0,0.0,0.0,0.0,0.0,0.0,0.0,0.0,0.0,0.0,0.0,0.0,0.0,0.0,0.0,0.0,0.0,0.0,0.0,0.0,0.0,0.0,0.0,0.0,0.0,0.0,0.0,0.0,0.0,0.0,0.0,0.0,0.0,0.0,0.0,0.0,0.0,0.0,0.0,0.0,0.0,0.0,0.0,0.0,0.0,0.0,0.0,0.0,0.0,0.0,0.0,0.0,0.0,0.0,0.0,0.0,0.0,0.0,0.0,0.0,-0.0056,-0.0224,-0.0569,0.0,0.0,0.0,0.0,0.0,0.0,0.0,0.0,0.0,0.0,0.0,0.0,0.0,0.0,0.0,0.0,0.0,0.0,0.0,0.0,0.0,0.0,0.0,0.0,0.0,0.0,0.0,0.0,0.0,0.0,0.0,0.0,0.0,0.0,0.0,0.0,0.0,0.0,0.0,0.0,0.0,0.0,0.0,0.0,0.0,0.0,0.0,0.0,0.0,0.0,0.0,0.0,0.0,0.0,0.0,0.0,0.0,0.0,0.0,0.0,0.0,0.0,0.0,0.0,0.0,0.0,0.0,0.0,0.0,0.0,0.0,0.0,0.0,0.0,0.0,0.0,0.0,0.0,0.0,0.0,0.0,0.0,0.0,0.0,0.0,0.0,0.0,0.0,0.0,0.0,0.0,0.0,0.0,0.0,0.0,0.0,0.0,0.0,0.0,0.0,0.0,0.0,0.0,0.0,0.0,0.0,0.0,0.0,0.0,0.0,0.009,0.009,0.0022,0.0,-0.0736,0.0,0.0,0.0,0.0,0.0,0.0,0.0,0.0,0.0,0.0,0.0,0.0,0.0,0.0,0.0,0.0,0.0,0.0,0.0,0.0,0.0,0.0,0.0,0.0,0.0,0.0,0.0,0.0,0.0,0.0,0.0,0.0,0.0,0.0,0.0,0.0,0.0,0.0,0.0,0.0,0.0,0.0,0.0,0.0,0.0,0.0,0.0,0.0,0.0,0.0,0.0,0.0,0.0,0.0,0.0,0.0,0.0,0.0,0.0,0.0,0.0,0.0,0.0,0.0,0.0,0.0,0.0,0.0,0.0,0.0,0.0,0.0,0.0,0.0,0.0,0.0,0.0,0.0,0.0,0.0,0.0,0.0,0.0,0.0,0.0,0.0,0.0,0.0,0.0,0.0,0.0,0.0,0.0,0.0,0.0,0.0,0.0,0.0,0.0,0.0,0.0,0.0,0.0,0.0,0.0,0.0,0.0,0.0,0.0,0.0,0.0,0.0045,-0.0146,-0.0437,0.0,0.0,0.0,0.0,0.0,0.0,0.0,0.0,0.0,0.0,0.0,0.0,0.0,0.0,0.0,0.0,0.0,0.0,0.0,0.0,0.0,0.0,0.0,0.0,0.0,0.0,0.0,0.0,0.0,0.0,0.0,0.0,0.0,0.0,0.0,0.0,0.0,0.0,0.0,0.0,0.0,0.0,0.0,0.0,0.0,0.0,0.0,0.0,0.0,0.0,0.0,0.0,0.0,0.0,0.0,0.0,0.0,0.0,0.0,0.0,0.0,0.0,0.0,0.0,0.0,0.0,0.0,0.0,0.0,0.0,0.0,0.0,0.0,0.0,0.0,0.0,0.0,0.0,0.0,0.0,0.0,0.0,0.0,0.0,0.0,0.0,0.0,0.0,0.0,0.0,0.0,0.0,0.0,0.0,0.0,0.0,0.0,0.0,0.0,0.0,0.0,0.0,0.0,0.0,0.0,0.0,0.0,0.0,0.0,0.0,0.009,0.0,-0.0011,-0.027,-0.0538,-0.0847,0.0,0.0,0.0,0.0,0.0,0.0,0.0,0.0,0.0,0.0,0.0,0.0,0.0,0.0,0.0,0.0,0.0,0.0,0.0,0.0,0.0,0.0,0.0,0.0,0.0,0.0,0.0,0.0,0.0,0.0,0.0,0.0,0.0,0.0,0.0,0.0,0.0,0.0,0.0,0.0,0.0,0.0,0.0,0.0,0.0,0.0,0.0,0.0,0.0,0.0,0.0,0.0,0.0,0.0,0.0,0.0,0.0,0.0,0.0,0.0,0.0,0.0,0.0,0.0,0.0,0.0,0.0,0.0,0.0,0.0,0.0,0.0,0.0,0.0,0.0,0.0,0.0,0.0,0.0,0.0,0.0,0.0,0.0,0.0,0.0,0.0,0.0,0.0,0.0,0.0,0.0,0.0,0.0,0.0,0.0,0.0,0.0,0.0,0.0,0.0,0.0,0.0,0.0,0.0,0.0,0.0,0.0,0.0,0.0,0.0034,0.0,-0.0011,-0.027,-0.0504,0.0,0.0,0.0,0.0,0.0,0.0,0.0,0.0,0.0,0.0,0.0,0.0,0.0,0.0,0.0,0.0,0.0,0.0,0.0,0.0,0.0,0.0,0.0,0.0,0.0,0.0,0.0,0.0,0.0,0.0,0.0,0.0,0.0,0.0,0.0,0.0,0.0,0.0,0.0,0.0,0.0,0.0,0.0,0.0,0.0,0.0,0.0,0.0,0.0,0.0,0.0,0.0,0.0,0.0,0.0,0.0,0.0,0.0,0.0,0.0,0.0,0.0,0.0,0.0,0.0,0.0,0.0,0.0,0.0,0.0,0.0,0.0,0.0,0.0,0.0,0.0,0.0,0.0,0.0,0.0,0.0,0.0,0.0,0.0,0.0,0.0,0.0,0.0,0.0,0.0,0.0,0.0,0.0,0.0,0.0,0.0,0.0,0.0,0.0,0.0,0.0,0.0,0.0,0.0,0.0,0.0,0.0,0.0,0.0,0.0034,0.0,-0.0079,-0.0247,-0.0482,-0.0703,0.0,0.0,0.0,0.0,0.0,0.0,0.0,0.0,0.0,0.0,0.0,0.0,0.0,0.0,0.0,0.0,0.0,0.0,0.0,0.0,0.0,0.0,0.0,0.0,0.0,0.0,0.0,0.0,0.0,0.0,0.0,0.0,0.0,0.0,0.0,0.0,0.0,0.0,0.0,0.0,0.0,0.0,0.0,0.0,0.0,0.0,0.0,0.0,0.0,0.0,0.0,0.0,0.0,0.0,0.0,0.0,0.0,0.0,0.0,0.0,0.0,0.0,0.0,0.0,0.0,0.0,0.0,0.0,0.0,0.0,0.0,0.0,0.0,0.0,0.0,0.0,0.0,0.0,0.0,0.0,0.0,0.0,0.0,0.0,0.0,0.0,0.0,0.0,0.0,0.0,0.0,0.0,0.0,0.0,0.0,0.0,0.0,0.0,0.0,0.0,0.0,0.0,0.0,0.0,0.0,0.0,0.0,0.0,0.0,0.0,0.0,-0.0124,0.0,-0.0603,-0.0836,0.0,0.0,0.0,0.0,0.0,0.0,0.0,0.0,0.0,0.0,0.0,0.0,0.0,0.0,0.0,0.0,0.0,0.0,0.0,0.0,0.0,0.0,0.0,0.0,0.0,0.0,0.0,0.0,0.0,0.0,0.0,0.0,0.0,0.0,0.0,0.0,0.0,0.0,0.0,0.0,0.0,0.0,0.0,0.0,0.0,0.0,0.0,0.0,0.0,0.0,0.0,0.0,0.0,0.0,0.0,0.0,0.0,0.0,0.0,0.0,0.0,0.0,0.0,0.0,0.0,0.0,0.0,0.0,0.0,0.0,0.0,0.0,0.0,0.0,0.0,0.0,0.0,0.0,0.0,0.0,0.0,0.0,0.0,0.0,0.0,0.0,0.0,0.0,0.0,0.0,0.0,0.0,0.0,0.0,0.0,0.0,0.0,0.0,0.0,0.0,0.0,0.0,0.0,0.0,0.0,0.0,0.0,0.0,0.0,0.0,0.0,-0.0158,-0.0394,-0.0605,-0.0825,0.0,0.0,0.0,0.0,0.0,0.0,0.0,0.0,0.0,0.0,0.0,0.0,0.0,0.0,0.0,0.0,0.0,0.0,0.0,0.0,0.0,0.0,0.0,0.0,0.0,0.0,0.0,0.0,0.0,0.0,0.0,0.0,0.0,0.0,0.0,0.0,0.0,0.0,0.0,0.0,0.0,0.0,0.0,0.0,0.0,0.0,0.0,0.0,0.0,0.0,0.0,0.0,0.0,0.0,0.0,0.0,0.0,0.0,0.0,0.0,0.0,0.0,0.0,0.0,0.0,0.0,0.0,0.0,0.0,0.0,0.0,0.0,0.0,0.0,0.0,0.0,0.0,0.0,0.0,0.0,0.0,0.0,0.0,0.0,0.0,0.0,0.0,0.0,0.0,0.0,0.0,0.0,0.0,0.0,0.0,0.0,0.0,0.0,0.0,0.0,0.0,0.0,0.0,0.0,0.0,0.0,0.0,0.0,0.0,0.0,-0.019,-0.0437,-0.0789,-0.0908,-0.1148,0.0,0.0,0.0,0.0,0.0,0.0,0.0,0.0,0.0,0.0,0.0,0.0,0.0,0.0,0.0,0.0,0.0,0.0,0.0,0.0,0.0,0.0,0.0,0.0,0.0,0.0,0.0,0.0,0.0,0.0,0.0,0.0,0.0,0.0,0.0,0.0,0.0,0.0,0.0,0.0,0.0,0.0,0.0,0.0,0.0,0.0,0.0,0.0,0.0,0.0,0.0,0.0,0.0,0.0,0.0,0.0,0.0,0.0,0.0,0.0,0.0,0.0,0.0,0.0,0.0,0.0,0.0,0.0,0.0,0.0,0.0,0.0,0.0,0.0,0.0,0.0,0.0,0.0,0.0,0.0,0.0,0.0,0.0,0.0,0.0,0.0,0.0,0.0,0.0,0.0,0.0,0.0,0.0,0.0,0.0,0.0,0.0,0.0,0.0,0.0,0.0,0.0,0.0,0.0,0.0,0.0,0.0,0.0,0.0,-0.0124,-0.0372,-0.0658,-0.097,-0.1116,-0.1347,-0.1622,0.0,0.0,0.0,0.0,0.0,0.0,0.0,0.0,0.0,0.0,0.0,0.0,0.0,0.0,0.0,0.0,0.0,0.0,0.0,0.0,0.0,0.0,0.0,0.0,0.0,0.0,0.0,0.0,0.0,0.0,0.0,0.0,0.0,0.0,0.0,0.0,0.0,0.0,0.0,0.0,0.0,0.0,0.0,0.0,0.0,0.0,0.0,0.0,0.0,0.0,0.0,0.0,0.0,0.0,0.0,0.0,0.0,0.0,0.0,0.0,0.0,0.0,0.0,0.0,0.0,0.0,0.0,0.0,0.0,0.0,0.0,0.0,0.0,0.0,0.0,0.0,0.0,0.0,0.0,0.0,0.0,0.0,0.0,0.0,0.0,0.0,0.0,0.0,0.0,0.0,0.0,0.0,0.0,0.0,0.0,0.0,0.0,0.0,0.0,0.0,0.0,0.0,0.0,0.0,0.0,0.0,0.0,0.0,-0.0323,-0.0606,-0.0795,-0.0932,-0.125,-0.1439,0.0,0.0,0.0,0.0,0.0,0.0,0.0,0.0,0.0,0.0,0.0,0.0,0.0,0.0,0.0,0.0,0.0,0.0,0.0,0.0,0.0,0.0,0.0,0.0,0.0,0.0,0.0,0.0,0.0,0.0,0.0,0.0,0.0,0.0,0.0,0.0,0.0,0.0,0.0,0.0,0.0,0.0,0.0,0.0,0.0,0.0,0.0,0.0,0.0,0.0,0.0,0.0,0.0,0.0,0.0,0.0,0.0,0.0,0.0,0.0,0.0,0.0,0.0,0.0,0.0,0.0,0.0,0.0,0.0,0.0,0.0,0.0,0.0,0.0,0.0,0.0,0.0,0.0,0.0,0.0,0.0,0.0,0.0,0.0,0.0,0.0,0.0,0.0,0.0,0.0,0.0,0.0,0.0,0.0,0.0,0.0,0.0,0.0,0.0,0.0,0.0,0.0,0.0,0.0,0.0,0.0,0.0,0.0,0.0,-0.0745,-0.1103,-0.1308,-0.1361,-0.1525,-0.1636,0.0,0.0,0.0,0.0,0.0,0.0,0.0,0.0,0.0,0.0,0.0,0.0,0.0,0.0,0.0,0.0,0.0,0.0,0.0,0.0,0.0,0.0,0.0,0.0,0.0,0.0,0.0,0.0,0.0,0.0,0.0,0.0,0.0,0.0,0.0,0.0,0.0,0.0,0.0,0.0,0.0,0.0,0.0,0.0,0.0,0.0,0.0,0.0,0.0,0.0,0.0,0.0,0.0,0.0,0.0,0.0,0.0,0.0,0.0,0.0,0.0,0.0,0.0,0.0,0.0,0.0,0.0,0.0,0.0,0.0,0.0,0.0,0.0,0.0,0.0,0.0,0.0,0.0,0.0,0.0,0.0,0.0,0.0,0.0,0.0,0.0,0.0,0.0,0.0,0.0,0.0,0.0,0.0,0.0,0.0,0.0,0.0,0.0,0.0,0.0,0.0,0.0,0.0,0.0,0.0,0.0,0.0,0.0,-0.1119,-0.1197,-0.1556,-0.1749,-0.1753,-0.1982,-0.1933,0.0,0.0,0.0,0.0,0.0,0.0,0.0,0.0,0.0,0.0,0.0,0.0,0.0,0.0,0.0,0.0,0.0,0.0,0.0,0.0,0.0,0.0,0.0,0.0,0.0,0.0,0.0,0.0,0.0,0.0,0.0,0.0,0.0,0.0,0.0,0.0,0.0,0.0,0.0,0.0,0.0,0.0,0.0,0.0,0.0,0.0,0.0,0.0,0.0,0.0,0.0,0.0,0.0,0.0,0.0,0.0,0.0,0.0,0.0,0.0,0.0,0.0,0.0,0.0,0.0,0.0,0.0,0.0,0.0,0.0,0.0,0.0,0.0,0.0,0.0,0.0,0.0,0.0,0.0,0.0,0.0,0.0,0.0,0.0,0.0,0.0,0.0,0.0,0.0,0.0,0.0,0.0,0.0,0.0,0.0,0.0,0.0,0.0,0.0,0.0,0.0,0.0,0.0,0.0,0.0,0.0,0.0,0.0,-0.1705,-0.1688,-0.1947,-0.2136,-0.218,-0.2441,-0.2224,0.0,0.0,0.0,0.0,0.0,0.0,0.0,0.0,0.0,0.0,0.0,0.0,0.0,0.0,0.0,0.0,0.0,0.0,0.0,0.0,0.0,0.0,0.0,0.0,0.0,0.0,0.0,0.0,0.0,0.0,0.0,0.0,0.0,0.0,0.0,0.0,0.0,0.0,0.0,0.0,0.0,0.0,0.0,0.0,0.0,0.0,0.0,0.0,0.0,0.0,0.0,0.0,0.0,0.0,0.0,0.0,0.0,0.0,0.0,0.0,0.0,0.0,0.0,0.0,0.0,0.0,0.0,0.0,0.0,0.0,0.0,0.0,0.0,0.0,0.0,0.0,0.0,0.0,0.0,0.0,0.0,0.0,0.0,0.0,0.0,0.0,0.0,0.0,0.0,0.0,0.0,0.0,0.0,0.0,0.0,0.0,0.0,0.0,0.0,0.0,0.0,0.0,0.0,0.0,0.0,0.0,0.0,0.0,-0.1949,-0.2137,-0.2114,-0.2316,-0.2714,-0.2544,-0.21,0.0,0.0,0.0,0.0,0.0,0.0,0.0,0.0,0.0,0.0,0.0,0.0,0.0,0.0,0.0,0.0,0.0,0.0,0.0,0.0,0.0,0.0,0.0,0.0,0.0,0.0,0.0,0.0,0.0,0.0,0.0,0.0,0.0,0.0,0.0,0.0,0.0,0.0,0.0,0.0,0.0,0.0,0.0,0.0,0.0,0.0,0.0,0.0,0.259,0.0,0.0,0.0,0.0,0.0,0.0,0.0,0.0,0.0,0.0,0.0,0.0,0.0,0.0,0.0,0.0,0.0,0.0,0.0,0.0,0.0,0.0,0.0,0.0,0.0,0.0,0.0,0.0,0.0,0.0,0.0,0.0,0.0,0.0,0.0,0.0,0.0,0.0,0.0,0.0,0.0,0.0,0.0,0.0,0.0,0.0,0.0,0.0,0.0,0.0,0.0,0.0,0.0,0.0,0.0,0.0,0.0,0.0,0.0,-0.2371,-0.2568,-0.2566,-0.2681,-0.2885,-0.2737,-0.2308,0.0,0.0,0.0,0.0,0.0,0.0,0.0,0.0,0.0,0.0,0.0,0.0,0.0,0.0,0.0,0.0,0.0,0.0,0.0,0.0,0.0,0.0,0.0,0.0,0.0,0.0,0.0,0.0,0.0,0.0,0.0,0.0,0.0,0.0,0.0,0.0,0.0,0.0,0.0,0.0,0.0,0.0,0.0,0.0,0.0,0.0,0.0,0.0,0.0,0.0,0.0,0.0,0.0,0.0,0.0,0.0,0.0,0.0,0.0,0.0,0.0,0.0,0.0,0.0,0.0,0.0,0.0,0.0,0.0,0.0,0.0,0.0,0.0,0.0,0.0,0.0,0.0,0.0,0.0,0.0,0.0,0.0,0.0,0.0,0.0,0.0,0.0,0.0,0.0,0.0,0.0,0.0,0.0,0.0,0.0,0.0,0.0,0.0,0.0,0.0,0.0,0.0,0.0,0.0,0.0,0.0,0.0,-0.2544,-0.2761,-0.2919,-0.304,-0.3054,-0.2959,-0.2951,-0.2617,-0.1949,0.0,0.0,0.0,0.0,0.0,0.0,0.0,0.0,0.0,0.0,0.0,0.0,0.0,0.0,0.0,0.0,0.0,0.0,0.0,0.0,0.0,0.0,0.0,0.0,0.0,0.0,0.0,0.0,0.0,0.0,0.0,0.0,0.0,0.0,0.0,0.0,0.0,0.0,0.2302,0.2659,0.0,0.0,0.0,0.0,0.0,0.0,0.0,0.0,0.267,0.0,0.0,0.0,0.0,0.0,0.0,0.0,0.0,0.0,0.0,0.0,0.0,0.0,0.0,0.0,0.0,0.0,0.0,0.0,0.0,0.0,0.0,0.0,0.0,0.0,0.0,0.0,0.0,0.0,0.0,0.0,0.0,0.0,0.0,0.0,0.0,0.0,0.0,0.0,0.0,0.0,0.0,0.0,0.0,0.0,0.0,0.0,0.0,0.0,0.0,0.0,0.0,0.0,0.0,0.0,0.0,-0.2445,-0.2623,-0.2832,-0.306,-0.3087,-0.3148,-0.3229,-0.3135,-0.2738,-0.2081,0.0,0.0,0.0,0.0,0.0,0.0,0.0,0.0,0.0,0.0,0.0,0.0,0.0,0.0,0.0,0.0,0.0,0.0,0.0,0.0,0.0,0.0,0.0,0.0,0.0,0.0,0.0,0.0,0.0,0.0,0.0,0.0,0.0,0.0,0.0,0.0,0.0,0.0,0.0,0.3346,0.3598,0.0,0.0,0.0,0.0,0.0,0.0,0.0,0.0,0.26,0.0,0.0,0.0,0.0,0.0,0.0,0.0,0.0,0.0,0.0,0.0,0.0,0.0,0.0,0.0,0.0,0.0,0.0,0.0,0.0,0.0,0.0,0.0,0.0,0.0,0.0,0.0,0.0,0.0,0.0,0.0,0.0,0.0,0.0,0.0,0.0,0.0,0.0,0.0,0.0,0.0,0.0,0.0,0.0,0.0,0.0,0.0,0.0,0.0,0.0,0.0,0.0,0.0,0.0,0.0,-0.2501,-0.2771,-0.303,-0.3236,-0.3317,-0.3337,-0.3303,-0.3142,-0.2674,0.0,0.0,0.0,0.0,0.0,0.0,0.0,0.0,0.0,0.0,0.0,0.0,0.0,0.0,0.0,0.0,0.0,0.0,0.0,0.0,0.0,0.0,0.0,0.0,0.0,0.0,0.0,0.0,0.0,0.0,0.0,0.0,0.0,0.0,0.0,0.0,0.0,0.0,0.0,0.0,0.338,0.3556,0.3552,0.0,0.0,0.0,0.0,0.0,0.0,0.3078,0.2963,0.0,0.0,0.0,0.0,0.0,0.0,0.0,0.0,0.0,0.0,0.0,0.0,0.0,0.0,0.0,0.0,0.0,0.0,0.0,0.0,0.0,0.0,0.0,0.0,0.0,0.0,0.0,0.0,0.0,0.0,0.0,0.0,0.0,0.0,0.0,0.0,0.0,0.0,0.0,0.0,0.0,0.0,0.0,0.0,0.0,0.0,0.0,0.0,0.0,0.0,0.0,0.0,0.0,0.0,0.0,-0.2516,-0.2862,-0.3148,-0.3372,-0.3522,-0.352,-0.3356,-0.3181,-0.2629,0.0,0.0,0.0,0.0,0.0,0.0,0.0,0.0,0.0,0.0,0.0,0.0,0.0,0.0,0.0,0.0,0.0,0.0,0.0,0.0,0.0,0.0,0.0,0.0,0.0,0.0,0.0,0.0,0.0,0.0,0.0,0.0,0.0,0.0,0.0,0.0,0.0,0.0,0.0,0.0,0.0,0.3592,0.3734,0.3559,0.0,0.0,0.0,0.0,0.3663,0.3472,0.0,0.0,0.0,0.0,0.0,0.0,0.0,0.0,0.0,0.0,0.0,0.0,0.0,0.0,0.0,0.0,0.0,0.0,0.0,0.0,0.0,0.0,0.0,0.0,0.0,0.0,0.0,0.0,0.0,0.0,0.0,0.0,0.0,0.0,0.0,0.0,0.0,0.0,0.0,0.0,0.0,0.0,0.0,0.0,0.0,0.0,0.0,0.0,0.0,0.0,0.0,0.0,0.0,0.0,0.0,0.0,-0.2501,-0.2768,-0.3047,-0.3296,-0.35,-0.3597,-0.3554,-0.3425,-0.286,0.0,0.0,0.0,0.0,0.0,0.0,0.0,0.0,0.0,0.0,0.0,0.0,0.0,0.0,0.0,0.0,0.0,0.0,0.0,0.0,0.0,0.0,0.0,0.0,0.0,0.0,0.0,0.0,0.0,0.0,0.0,0.0,0.0,0.0,0.0,0.0,0.0,0.0,0.0,0.0,0.0,0.4473,0.403,0.4037,0.4048,0.0,0.0,0.0,0.3993,0.3826,0.0,0.0,0.0,0.0,0.0,0.0,0.0,0.0,0.0,0.0,0.0,0.0,0.0,0.0,0.0,0.0,0.0,0.0,0.0,0.0,0.0,0.0,0.0,0.0,0.0,0.0,0.0,0.0,0.0,0.0,0.0,0.0,0.0,0.0,0.0,0.0,0.0,0.0,0.0,0.0,0.0,0.0,0.0,0.0,0.0,0.0,0.0,0.0,0.0,0.0,0.0,0.0,0.0,0.0,0.0,-0.2286,-0.2594,-0.2876,-0.3155,-0.3466,-0.357,-0.3581,-0.3486,-0.3364,-0.2853,0.0,0.0,0.0,0.0,0.0,0.0,0.0,0.0,0.0,0.0,0.0,0.0,0.0,0.0,0.0,0.0,0.0,0.0,0.0,0.0,0.0,0.0,0.0,0.0,0.0,0.0,0.0,0.0,0.0,0.0,0.0,0.0,0.0,0.0,0.0,0.0,0.0,0.0,0.0,0.0,0.0,0.0,0.4625,0.4479,0.0,0.0,0.0,0.4524,0.4552,0.0,0.0,0.0,0.0,0.0,0.0,0.0,0.0,0.0,0.0,0.0,0.0,0.0,0.0,0.0,0.0,0.0,0.0,0.0,0.0,0.0,0.0,0.0,0.0,0.0,0.0,0.0,0.0,0.0,0.0,0.0,0.0,0.0,0.0,0.0,0.0,0.0,0.0,0.0,0.0,0.0,0.0,0.0,0.0,0.0,0.0,0.0,0.0,0.0,0.0,0.0,0.0,0.0,0.0,0.0,0.0,0.0,-0.2696,-0.2953,-0.3249,-0.359,-0.3604,-0.3553,-0.342,-0.3277,0.0,0.0,0.0,0.0,0.0,0.0,0.0,0.0,0.0,0.0,0.0,0.0,0.0,0.0,0.0,0.0,0.0,0.0,0.0,0.0,0.0,0.0,0.0,0.0,0.0,0.0,0.0,0.1318,0.0,0.0,0.0,0.0,0.0,0.0,0.0,0.0,0.0,0.0,0.0,0.0,0.0,0.0,0.4229,0.4924,0.4786,0.4701,0.0,0.0,0.5032,0.4957,0.4845,0.4629,0.0,0.0,0.0,0.0,0.0,0.0,0.0,0.0,0.0,0.0,0.0,0.0,0.0,0.0,0.0,0.0,0.0,0.0,0.0,0.0,0.0,0.0,0.0,0.0,0.0,0.0,0.0,0.0,0.0,0.0,0.0,0.0,0.0,0.0,0.0,0.0,0.0,0.0,0.0,0.0,0.0,0.0,0.0,0.0,0.0,0.0,0.0,0.0,0.0,0.0,0.0,0.0,0.0,0.0,0.0,-0.2696,-0.2953,-0.3269,-0.359,-0.3604,-0.3553,-0.3391,-0.3277,-0.2825,0.0,0.0,0.0,0.0,0.0,0.0,0.0,0.0,0.0,0.0,0.0,0.0,0.0,0.0,0.0,0.0,0.0,0.0,0.0,0.0,0.0,0.0,0.0,0.0,0.0,0.0,0.0,0.0,0.0,0.0,0.0,0.0,0.0,0.0,0.0,0.0,0.0,0.0,0.0,0.0,0.0,0.4674,0.456,0.49,0.5186,0.0,0.0,0.5023,0.5071,0.5087,0.489,0.4371,0.0,0.0,0.0,0.0,0.0,0.0,0.0,0.0,0.0,0.0,0.0,0.0,0.0,0.0,0.0,0.0,0.0,0.0,0.0,0.0,0.0,0.0,0.0,0.0,0.0,0.0,0.0,0.0,0.0,0.0,0.0,0.0,0.0,0.0,0.0,0.0,0.0,0.0,0.0,0.0,0.0,0.0,0.0,0.0,0.0,0.0,0.0,0.0,0.0,0.0,0.0,0.0,0.0,-0.2533,-0.2815,-0.3093,-0.335,-0.3583,-0.3604,-0.3508,-0.3281,-0.3256,-0.295,0.0,0.0,0.0,0.0,0.0,0.0,0.0,0.0,0.0,0.0,0.0,0.0,0.0,0.0,0.0,0.0,0.0,0.0,0.0,0.0,0.0,0.0,0.0,0.0,0.0,0.0,0.0,0.0,0.1188,0.118,0.1169,0.0,0.0,0.0,0.0,0.0,0.0,0.0,0.0,0.0,0.0,0.4457,0.5098,0.5217,0.0,0.0,0.5412,0.5439,0.5238,0.5112,0.4906,0.4492,0.4257,0.0,0.0,0.0,0.0,0.0,0.0,0.0,0.0,0.0,0.0,0.0,0.0,0.0,0.0,0.0,0.0,0.0,0.0,0.0,0.0,0.0,0.0,0.0,0.0,0.0,0.0,0.0,0.0,0.0,0.0,0.0,0.0,0.0,0.0,0.0,0.0,0.0,0.0,0.0,0.0,0.0,0.0,0.0,0.0,0.0,0.0,0.0,0.0,0.0,0.0,0.0,0.0,-0.2635,-0.2932,-0.317,-0.3378,-0.3597,-0.3604,-0.3486,-0.3258,-0.3305,-0.305,0.0,0.0,0.0,0.0,0.0,0.0,0.0,0.0,0.0,0.0,0.0,0.0,0.0,0.0,0.0,0.0,0.0,0.0,0.0,0.0,0.0,0.0,0.0,0.0,0.0,0.0,0.0,0.0,0.1068,0.1022,0.0988,0.0,0.0,0.0,0.0,0.0,0.0,0.0,0.0,0.0,0.0,0.4175,0.512,0.5185,0.5131,0.5146,0.5429,0.5597,0.5425,0.5134,0.4827,0.4502,0.0,0.0,0.0,0.0,0.0,0.0,0.0,0.0,0.0,0.0,0.0,0.0,0.0,0.0,0.0,0.0,0.0,0.0,0.0,0.0,0.0,0.0,0.0,0.0,0.0,0.0,0.0,0.0,0.0,0.0,-0.4146,0.0,0.0,0.0,0.0,0.0,0.0,0.0,0.0,0.0,0.0,0.0,0.0,0.0,0.0,0.0,0.0,0.0,0.0,0.0,0.0,0.0,0.0,0.0,-0.2986,-0.3221,-0.3404,-0.3604,-0.3604,-0.3537,-0.3398,-0.3326,-0.3043,-0.2507,0.0,0.0,0.0,0.0,0.0,0.0,0.0,0.0,0.0,0.0,0.0,0.0,0.0,0.0,0.0,0.0,0.0,0.0,0.0,0.0,0.0,0.0,0.0,0.0,0.0,0.0,0.1182,0.1019,0.0867,0.0,0.0,0.0,0.0,0.0,0.0,0.0,0.0,0.0,0.0,0.3434,0.3805,0.445,0.4629,0.4727,0.4786,0.5082,0.5361,0.5522,0.5128,0.4685,0.0,0.0,0.0,0.0,0.0,0.0,0.0,0.0,0.0,0.0,0.0,0.0,0.0,0.0,0.0,0.0,0.0,0.0,0.0,0.0,0.0,0.0,0.0,0.0,0.0,0.0,0.0,-0.5795,-0.522,0.0,0.0,0.0,0.0,0.0,0.0,0.0,0.0,0.0,0.0,0.0,-0.6153,-0.5919,0.0,0.0,0.0,0.0,0.0,0.0,0.0,0.0,0.0,0.0,0.0,0.0,-0.3002,-0.346,-0.3616,-0.375,-0.386,-0.3771,-0.3678,-0.3539,-0.3394,-0.2965,-0.227,0.0,0.0,0.0,0.0,0.0,0.0,0.0,0.0,0.0,0.0,0.0,0.0,0.0,0.0,0.0,0.0,0.0,0.0,0.0,0.0,0.0,0.0,0.0,0.0,0.0,0.097,0.0,0.0,0.0,0.0,0.0,0.0,0.0,0.0,0.0,0.0,0.0,0.2336,0.2979,0.3079,0.3287,0.3886,0.4069,0.4181,0.0,0.0,0.0,0.0,0.0,0.0,0.0,0.0,0.0,0.0,0.0,0.0,0.0,0.0,0.3981,0.3411,0.3391,0.3335,0.2876,0.0,0.0,0.0,0.0,0.0,0.0,0.0,0.0,0.0,0.0,0.0,0.0,0.0,0.0,-0.7096,0.0,-0.6456,0.0,0.0,0.0,0.0,0.0,0.0,0.0,0.0,-0.7249,-0.7418,-0.7742,-0.7581,-0.7158,0.0,-0.6458,-0.5569,0.0,0.0,0.0,0.0,0.0,0.0,0.0,0.0,-0.3333,-0.3906,-0.3942,-0.3981,-0.4052,-0.3945,-0.3798,-0.3681,-0.3398,-0.299,-0.2434,-0.1758,-0.1198,0.0,0.0,0.0,0.0,0.0,0.0,0.0,0.0,0.0,0.0,0.0,0.0,0.0,0.0,0.0,0.0,0.0,0.0,0.0,0.0,0.0,0.0,0.0,0.0806,0.0,0.0,0.0,0.0,0.0,0.0,0.0,0.0,0.0,0.1803,0.1867,0.2077,0.2576,0.2667,0.2819,0.32,0.0,0.0,0.0,0.0,0.0,0.0,0.0,0.3504,0.3411,0.3156,0.2993,0.2929,0.3517,0.424,0.4913,0.0,0.0,0.3786,0.3708,0.3542,0.2953,0.3093,0.3207,0.2904,0.2938,0.296,0.0,0.0,0.0,0.0,0.0,0.0,0.0,0.0,-0.8349,-0.8427,0.0,-0.8166,0.0,0.0,0.0,0.0,0.0,0.0,0.0,0.0,-0.9134,-0.9447,-0.9687,-0.9659,-0.9098,-0.8037,-0.8402,-0.7828,-0.6327,-0.4739,0.0,0.0,0.0,0.0,0.0,0.0,-0.3691,-0.4377,-0.4165,-0.4079,-0.4211,-0.4086,-0.3955,-0.3799,-0.3433,-0.315,-0.2965,-0.1991,-0.1401,-0.133,-0.0434,0.0,0.0,0.0,0.0,0.0,0.0,0.0,0.0,0.0,0.0,0.0,0.0,0.0,0.0,0.0,0.0,0.0,0.0,0.0,0.0,0.07,0.0,0.0,0.0,0.0,0.0,0.0,0.0,0.0,0.0,0.0,0.1535,0.1695,0.1837,0.1983,0.0,0.0,0.0,0.0,0.2259,0.2972,0.3185,0.332,0.3526,0.314,0.2733,0.2602,0.0,0.0,0.239,0.2986,0.3763,0.4826,0.4942,0.495,0.4411,0.4359,0.4148,0.3406,0.3209,0.3213,0.2988,0.27,0.2454,-1.4974,0.0,0.0,0.0,0.0,-1.1861,-1.1564,-1.1447,-1.1947,-1.1215,-0.9661,-1.0074,0.0,0.0,0.0,0.0,0.0,0.0,-0.9246,-0.9713,-0.9748,-0.9894,-1.0208,-1.0094,-0.9855,-0.9521,-0.9342,-0.8898,-0.8202,-0.712,-0.5809,-0.4298,0.0,0.0,0.0,0.0,-0.427,-0.4706,-0.4669,-0.4599,-0.4549,-0.4416,-0.4212,-0.3961,-0.3655,-0.3398,-0.3203,-0.2449,-0.1955,-0.1792,-0.0948,0.0,0.0,0.0,0.0,0.0,0.0,0.0,0.0,0.0,0.0,0.0,0.0,0.0,0.0,0.0,0.0,0.0,0.0,0.0,0.0552,0.057,0.0559,0.0,0.0,0.0,0.0,0.0,0.0,0.0,0.0,0.0,0.1284,0.1392,0.1542,0.0,0.0,0.1898,0.1954,0.1881,0.1922,0.2264,0.0,0.0,0.0,0.2444,0.2286,0.2207,0.2008,0.1958,0.2199,0.2345,0.2629,0.3287,0.3074,0.3038,0.3735,0.3956,0.3773,0.3019,0.277,0.2716,0.2659,0.2563,0.2495,-1.7968,-1.6682,-1.5274,-1.4772,-1.4829,-1.4398,-1.3939,-1.3595,-1.4032,-1.3363,-1.195,-1.1969,-1.1348,-1.0268,-0.9844,0.0,0.0,0.0,-1.0389,-1.0872,-1.0784,-1.0826,-1.1014,-1.1083,-1.0893,-1.0478,-1.0319,-0.9981,-0.9466,-0.8857,-0.7658,-0.5909,0.0,0.0,-0.4684,-0.4473,-0.4598,-0.5017,-0.4951,-0.4873,-0.4877,-0.4641,-0.438,-0.4085,-0.387,-0.3653,-0.342,-0.2811,-0.2352,-0.2117,-0.1384,-0.1061,0.0,0.0,0.0,0.0,0.0,0.0,0.0,0.0,0.0,0.0,0.0,0.0362,0.0,0.0,0.0,0.0,0.0481,0.0555,0.0588,0.0597,0.0,0.0,0.0,0.0,0.0,0.0,0.0,0.0939,0.0974,0.1038,0.1139,0.1209,0.1306,0.1556,0.1646,0.1764,0.1844,0.0,0.16,0.1799,0.1809,0.1818,0.1834,0.1818,0.1809,0.1836,0.173,0.1762,0.2005,0.1995,0.1944,0.2096,0.2058,0.2193,0.2925,0.3315,0.3436,0.2809,0.2595,0.2476,0.2432,0.2452,0.2433,-2.003,-1.9893,-1.8364,-1.7212,-1.6516,-1.6595,-1.609,-1.5257,-1.5257,-1.514,-1.4908,-1.3981,-1.3267,-1.2771,-1.1692,0.0,0.0,-1.1533,-1.1811,-1.204,-1.204,-1.204,-1.2054,-1.2346,-1.1992,-1.1027,-1.1346,-1.1067,-1.0291,-1.0089,-0.9307,-0.7948,-0.6453,-0.5697,-0.5666,-0.4969,-0.4847,-0.5329,-0.508,-0.5003,-0.5062,-0.4702,-0.4418,-0.424,-0.4078,-0.3881,-0.3612,-0.3081,-0.2645,-0.237,-0.1787,-0.1459,-0.1441,0.0,0.0,0.0,0.0,0.0,0.0,0.0,0.0,0.0,0.0,0.0,0.0,0.0,0.0,0.0,0.048,0.0,0.0678,0.0729,0.0,0.0,0.0,0.0547,0.0647,0.0608,0.0653,0.0876,0.0,0.0,0.0,0.0,0.1129,0.1305,0.1632,0.1854,0.1889,0.1505,0.1315,0.1542,0.1362,0.1226,0.1363,0.1328,0.1406,0.1564,0.1573,0.1646,0.1801,0.1763,0.1571,0.1412,0.1687,0.2035,0.2118,0.2571,0.2918,0.2709,0.2605,0.2471,0.2379,0.2357,0.236,-2.0959,-2.109,-2.0524,-1.9813,-1.8984,-1.8557,-1.8158,-1.7924,-1.8157,-1.7578,-1.6422,-1.6561,-1.5635,-1.3846,-1.2686,-1.2175,-1.2175,-1.2262,-1.2336,-1.2375,-1.2375,-1.2375,-1.2375,-1.2448,-1.2375,-1.2123,-1.2097,-1.1776,-1.111,-1.0897,-1.0345,-0.9407,-0.8618,-0.7345,-0.5675,-0.5599,-0.5628,-0.5758,-0.5551,-0.5266,-0.4959,-0.4758,-0.458,-0.4409,-0.4158,-0.3928,-0.3765,-0.342,-0.3155,-0.297,-0.2414,-0.2216,-0.2503,-0.1721,0.0,0.0,0.0,0.0,0.0,0.0,0.0,0.0,0.0,-0.0102,0.021,0.0,0.0366,0.0,0.045,0.0533,0.0555,0.0459,0.0,0.0,0.0378,0.036,0.0457,0.0462,0.0528,0.0737,0.0679,0.0643,0.0769,0.0762,0.0743,0.078,0.1149,0.1442,0.1629,0.1446,0.1282,0.1358,0.1321,0.1288,0.1295,0.1298,0.1298,0.1376,0.1376,0.1376,0.1455,0.1415,0.1376,0.1298,0.1414,0.1492,0.1532,0.1649,0.1803,0.1946,0.2226,0.2504,0.2474,0.2466,0.2428,-2.155,-2.1627,-2.1512,-2.1168,-2.0716,-2.0199,-1.9826,-1.9607,-1.9792,-1.9207,-1.8096,-1.797,-1.6809,-1.4937,-1.4227,-1.372,-1.3375,-1.3243,-1.317,-1.317,-1.3023,-1.2877,-1.2711,-1.2857,-1.2804,-1.2526,-1.257,-1.2347,-1.1916,-1.1725,-1.1219,-1.0479,-0.996,-0.8854,-0.7244,-0.6614,-0.6211,-0.5888,-0.5783,-0.5529,-0.5136,-0.5052,-0.4874,-0.4601,-0.4414,-0.4211,-0.399,-0.379,-0.3623,-0.3358,-0.301,-0.2864,-0.3046,-0.2462,-0.2062,0.0,0.0,0.0,0.0,0.0,0.0,0.0,0.0,0.0,0.0,0.0,0.031,0.0,0.0136,0.0,0.041,0.013,0.0027,0.0371,0.0314,0.0292,0.0407,0.0381,0.042,0.0533,0.0549,0.0532,0.0555,0.0564,0.0609,0.0614,0.0805,0.1071,0.1379,0.1361,0.1298,0.1298,0.1298,0.1298,0.1298,0.1298,0.1298,0.1298,0.1298,0.1298,0.1298,0.1298,0.1298,0.1298,0.1298,0.1298,0.1298,0.1298,0.1376,0.1612,0.1806,0.2003,0.2199,0.2238,0.2277,-2.1901,-2.188,-2.1838,-2.1818,-2.1759,-2.1436,-2.11,-2.0835,-2.076,-2.0426,-1.9806,-1.875,-1.7481,-1.6081,-1.5819,-1.5319,-1.4638,-1.4256,-1.4048,-1.4056,-1.3711,-1.3404,-1.3155,-1.3375,-1.3199,-1.2638,-1.2936,-1.2906,-1.255,-1.2448,-1.2011,-1.1362,-1.0921,-1.0267,-0.9342,-0.8007,-0.6897,-0.6072,-0.6072,-0.5861,-0.5457,-0.5405,-0.5205,-0.4782,-0.4732,-0.4572,-0.4253,-0.4174,-0.397,-0.3656,-0.3541,-0.3409,-0.334,-0.3202,-0.2962,0.0,-0.2461,0.0,0.0,0.0,0.0,0.0,0.0,0.0,0.0,-0.0274,0.004,0.0175,-0.0452,-0.0605,0.0028,-0.0449,-0.0584,-0.0061,-0.0063,-0.0098,0.0,-0.0034,0.0,0.0107,0.0109,0.0075,-0.0155,0.0077,0.0154,0.0039,0.004,0.0317,0.0988,0.1186,0.1226,0.1224,0.122,0.1218,0.1298,0.1298,0.1298,0.1298,0.1298,0.1298,0.1298,0.1298,0.1298,0.1298,0.1303,0.1305,0.1299,0.1298,0.1376,0.1533,0.1453,0.1492,0.1808,0.1926,0.2005,-2.2356,-2.2335,-2.1963,-2.1818,-2.1818,-2.1721,-2.1847,-2.2115,-2.1784,-2.1489,-2.1095,-1.9449,-1.8501,-1.8082,-1.6453,-1.5611,-1.5458,-1.4733,-1.4423,-1.4408,-1.4086,-1.3857,-1.3784,-1.3594,-1.3433,-1.3316,-1.3375,-1.3228,-1.2921,-1.2886,-1.2602,-1.2085,-1.2014,-1.1391,-1.0309,0.0,0.0,0.0,-0.6954,-0.6524,-0.5689,-0.5489,-0.5287,-0.5098,-0.4852,0.0,-0.4449,-0.4259,-0.4118,-0.3932,-0.3803,0.0,0.0,0.0,0.0,0.0,0.0,0.0,0.0,0.0,0.0,0.0,-0.2307,-0.1549,-0.0295,-0.0481,-0.0656,-0.056,-0.1231,-0.1651,-0.163,-0.1842,-0.1979,-0.1959,-0.1951,-0.1981,-0.1953,-0.1939,-0.1816,-0.1367,-0.164,-0.2085,-0.2382,-0.2299,-0.2044,-0.1934,-0.1965,-0.1318,0.0082,0.0689,0.089,0.0691,0.0837,0.1062,0.1257,0.1298,0.1298,0.1298,0.1298,0.1298,0.1298,0.1298,0.1298,0.1298,0.1324,0.1333,0.1303,0.1298,0.1337,0.1337,0.1337,0.1415,0.1808,0.1887,0.1887,-2.2832,0.0,-2.2335,-2.2149,0.0,-2.1901,-2.2066,-2.2501,-2.2304,-2.2229,-2.213,-2.0879,-2.004,-1.9471,-1.8213,-1.7337,-1.6789,-1.5803,-1.5348,-1.5293,-1.4563,-1.4174,-1.4012,-1.3851,-1.3689,-1.3492,-1.3492,-1.3418,-1.3258,-1.3243,-1.3134,-1.2903,-1.2744,-1.2295,-1.1649,-1.1162,-0.988,-0.7869,-0.7869,-0.738,-0.6502,-0.6345,-0.5969,-0.5331,0.0,0.0,0.0,0.0,0.0,0.0,0.0,0.0,0.0,0.0,0.0,-0.3563,-0.3519,-0.3429,-0.3257,-0.3319,-0.3346,-0.3248,-0.2925,-0.2232,-0.1108,-0.1401,-0.1582,-0.1526,-0.2262,-0.2625,-0.2333,-0.2693,-0.2837,-0.2562,-0.2488,-0.2484,-0.2516,-0.251,-0.2395,-0.2247,-0.2421,-0.2723,-0.3033,-0.2455,-0.2308,-0.264,-0.1875,-0.1216,-0.0749,-0.0246,0.0122,0.0443,0.0676,0.0904,0.1061,0.1218,0.1298,0.1298,0.1298,0.1298,0.1298,0.1298,0.1298,0.1298,0.1314,0.1319,0.1303,0.1298,0.1298,0.1298,0.1298,0.1337,0.1573,0.1612,0.1612,-2.3308,-2.3267,-2.2811,-2.2625,-2.2584,-2.2211,-2.2315,-2.2729,0.0,0.0,0.0,-2.2312,-2.1529,-2.0683,-2.0008,-1.9225,-1.8308,-1.695,-1.6293,-1.6254,-1.5112,-1.4414,-1.4165,-1.4092,-1.3939,-1.3594,-1.3579,-1.355,-1.3492,-1.3492,-1.3492,-1.3462,-1.3228,-1.2997,-1.2769,-1.1986,-1.0732,-0.9137,-0.8722,-0.8142,-0.7286,-0.7091,-0.6555,-0.5579,-0.551,-0.5337,-0.505,-0.4938,-0.4823,-0.4665,-0.4469,-0.4348,-0.4354,-0.4328,-0.426,-0.427,-0.4435,-0.4432,-0.421,-0.4326,-0.4183,-0.3729,-0.3468,-0.3026,-0.2329,-0.2441,-0.2586,-0.2565,-0.3313,-0.3561,-0.2977,-0.3431,-0.3597,-0.3022,-0.2975,-0.2978,-0.2984,-0.3005,-0.3154,-0.317,-0.3258,-0.3244,-0.3381,-0.2776,-0.2401,-0.2983,-0.2316,-0.1097,-0.1593,-0.1112,-0.0242,0.0478,0.0671,0.0746,0.0864,0.1061,0.1178,0.1139,0.1178,0.1218,0.1296,0.1298,0.1298,0.1298,0.1298,0.1298,0.1298,0.1305,0.1303,0.1298,0.1298,0.1298,0.1298,0.1298,0.1376,-2.3826,-2.3743,-2.3287,-2.308,-2.308,-2.3018,-2.3246,-2.3639,-2.3104,-2.3064,-2.3348,-2.2777,-2.2412,-2.2208,-2.0824,-2.0149,-1.985,-1.7677,-1.6619,0.0,-1.5403,-1.4812,-1.4754,-1.4531,-1.4238,-1.3968,-1.3916,-1.377,-1.3521,-1.3492,-1.3492,-1.3492,-1.3448,-1.3215,-1.2798,-1.2232,-1.1716,-1.1222,-0.9545,-0.827,-0.7474,-0.6731,-0.6281,-0.6098,-0.5929,-0.5749,-0.5598,-0.556,-0.5471,-0.527,-0.5143,-0.4997,-0.4891,-0.4705,-0.4579,-0.4484,-0.4606,-0.4651,-0.4616,-0.4742,-0.4823,-0.4864,-0.4919,-0.4373,-0.2963,-0.3339,-0.3677,-0.3714,-0.4201,-0.4525,-0.4466,-0.4577,-0.4591,-0.4611,-0.4708,-0.4808,-0.4728,-0.4824,-0.4858,-0.4882,-0.5012,-0.4965,-0.4875,-0.477,-0.4614,-0.4905,-0.4299,-0.4329,-0.3241,-0.1648,-0.0081,0.0525,0.0557,0.0512,0.0513,0.0747,0.075,0.0707,0.0867,0.1026,0.1257,0.1298,0.1298,0.1298,0.1298,0.1298,0.1298,0.1327,0.1326,0.1305,0.1257,0.1257,0.1296,0.1298,0.1298,-2.424,-2.4178,-2.3743,-2.3598,-2.3536,-2.3308,-2.3453,-2.3888,-2.3577,-2.3659,-2.3966,-2.3514,-2.3227,-2.3021,-2.2127,-2.1562,-2.1216,-1.8953,-1.7878,-1.7615,-1.5954,-1.5075,-1.49,-1.4794,-1.456,-1.4291,-1.4062,-1.3939,-1.3755,-1.3594,-1.3492,-1.3492,-1.3492,-1.3382,-1.315,-1.2635,-1.2304,-1.2117,-1.0831,-0.9741,-0.8887,-0.8473,-0.779,-0.6778,-0.6648,-0.6345,-0.5828,-0.5729,-0.5669,-0.5555,-0.5336,-0.5178,-0.5114,-0.4898,-0.4816,-0.483,-0.4972,-0.5126,-0.5169,-0.5312,-0.5418,-0.548,-0.5623,-0.5395,-0.4654,-0.4704,-0.4764,-0.4777,-0.503,-0.524,-0.5362,-0.5263,-0.5235,-0.5359,-0.5339,-0.5325,-0.5331,-0.5328,-0.5393,-0.5447,-0.5409,-0.5435,-0.5458,-0.4992,-0.4912,-0.5246,-0.5175,-0.4531,-0.3635,-0.243,-0.1489,-0.128,-0.1059,-0.0729,-0.0406,-0.041,-0.0164,0.0449,0.0694,0.0889,0.1228,0.1298,0.1298,0.1298,0.1298,0.1298,0.1258,0.131,0.1313,0.1266,0.0943,0.0904,0.1139,0.1298,0.1298,-2.459,-2.4466,-2.4178,-2.4033,-2.3991,-2.3536,-2.3598,-2.4012,-2.3929,-2.4136,-2.4425,-2.4178,-2.3928,-2.3677,-2.3268,-2.2797,-2.2201,-2.0315,-1.9129,-1.8445,-1.6703,-1.5557,-1.5031,-1.5017,-1.4882,-1.4589,-1.4311,-1.4165,-1.41,-1.377,-1.3565,-1.3506,-1.3492,-1.3492,-1.3492,-1.3028,-1.2721,-1.2564,-1.199,-1.1175,-1.012,-0.994,-0.9141,-0.7832,-0.7513,-0.7117,-0.6446,-0.6155,-0.5998,-0.5966,-0.5714,-0.5525,-0.5455,-0.528,-0.5201,-0.5277,-0.5393,-0.5528,-0.5677,-0.5786,-0.5867,-0.5908,-0.6017,-0.6084,-0.6047,-0.5821,-0.5683,-0.5644,-0.5685,-0.5769,-0.5854,-0.5751,-0.5682,-0.5782,-0.5692,-0.5661,-0.5619,-0.5535,-0.5526,-0.5566,-0.5484,-0.5415,-0.5326,-0.4784,-0.4685,-0.5223,-0.4966,-0.4269,-0.3631,-0.35,-0.3514,-0.3349,-0.2854,-0.2161,-0.1638,-0.1782,-0.1487,-0.0337,-0.021,0.0083,0.0645,0.1032,0.0399,-0.004,0.008,0.0201,0.0401,0.0521,0.0601,0.0601,0.0321,0.02,0.0561,0.0752,0.0826,-2.4879,-2.4528,-2.4445,-2.4445,-2.4383,-2.3991,-2.4053,-2.4385,-2.4053,-2.4136,-2.4466,-2.4466,-2.4425,-2.432,-2.3739,-2.3304,-2.297,-2.1473,-1.9978,-1.868,-1.7653,-1.6583,-1.5477,-1.5338,-1.5163,-1.4885,-1.4798,-1.4662,-1.4452,-1.413,-1.3784,-1.3521,-1.3492,-1.3492,-1.3477,-1.3266,-1.307,-1.2851,-1.2604,-1.1801,-1.0412,-0.9754,-0.9384,-0.9202,-0.8508,-0.8065,-0.7954,-0.7267,-0.6882,-0.6855,-0.6663,-0.6459,-0.6276,-0.6107,-0.5902,-0.5767,-0.5752,-0.5827,-0.5932,-0.5966,-0.6064,-0.6238,-0.6252,-0.6265,-0.6272,-0.624,-0.6185,-0.6132,-0.6078,-0.61,-0.6054,-0.6048,-0.6007,-0.6037,-0.6099,-0.6221,-0.6123,-0.6006,-0.5878,-0.5841,-0.5616,-0.5457,-0.5475,-0.5314,-0.5314,-0.5459,-0.5368,-0.5182,-0.5033,-0.499,-0.5043,-0.5058,-0.4394,-0.345,-0.2923,-0.3231,-0.2995,-0.2492,-0.2312,-0.1553,-0.05,0.0,-0.0281,-0.2574,-0.3025,-0.197,-0.1635,-0.1641,-0.0998,-0.0537,-0.058,-0.0666,-0.0581,-0.0446,-0.0317,-2.5633,-2.4879,-2.4611,-2.4507,-2.4466,-2.4301,-2.4364,-2.4466,-2.4321,-2.4342,-2.4487,-2.4507,-2.4507,-2.4487,-2.4088,-2.3878,-2.3687,-2.2063,-2.1014,-2.0201,-1.8347,-1.7101,-1.6572,-1.5705,-1.535,-1.5177,-1.5002,-1.4842,-1.4721,-1.4428,-1.4106,-1.3814,-1.3784,-1.3682,-1.3521,-1.3309,-1.3163,-1.3039,-1.2783,-1.2294,-1.1742,-1.1156,-1.0571,-1.0043,-0.9649,-0.93,-0.889,-0.8115,-0.7699,-0.7664,-0.7067,-0.6674,-0.6603,-0.638,-0.6208,-0.6105,-0.6098,-0.6136,-0.6159,-0.6166,-0.6193,-0.63,-0.63,-0.63,-0.6306,-0.6409,-0.6451,-0.6398,-0.6397,-0.6402,-0.6329,-0.6166,-0.615,-0.6204,-0.6244,-0.6215,-0.6129,-0.6171,-0.6194,-0.6079,-0.5843,-0.5698,-0.5706,-0.5594,-0.5508,-0.5518,-0.5508,-0.56,-0.5605,-0.5615,-0.5637,-0.5625,-0.523,-0.4621,-0.3928,-0.39,-0.3725,-0.3144,-0.2793,-0.2314,-0.2343,-0.1771,-0.228,-0.4197,-0.4138,-0.3485,-0.2279,-0.2195,-0.1802,-0.1556,-0.1344,-0.1386,-0.2142,-0.1449,-0.1144,-2.6409,-2.5381,-2.4879,-2.4611,-2.4507,-2.4507,-2.4507,-2.4507,-2.4507,-2.4507,-2.4507,-2.4507,-2.4507,-2.4507,-2.4335,-2.4206,-2.393,-2.275,-2.1763,-2.0991,-1.8982,-1.7717,-1.7094,-1.6082,-1.5555,-1.5511,-1.5192,-1.4988,-1.4885,-1.4721,-1.4428,-1.4188,-1.4071,-1.3857,-1.3638,-1.3404,-1.3236,-1.309,-1.282,-1.2636,-1.2485,-1.22,-1.1663,-1.0974,-1.0702,-1.0278,-0.9567,-0.879,-0.8223,-0.7997,-0.7317,-0.6887,-0.6851,-0.6705,-0.6566,-0.6416,-0.6384,-0.6338,-0.63,-0.63,-0.63,-0.63,-0.63,-0.63,-0.632,-0.6436,-0.6491,-0.6463,-0.6497,-0.6518,-0.6539,-0.6377,-0.632,-0.6415,-0.6403,-0.6373,-0.6342,-0.6437,-0.6424,-0.6294,-0.6105,-0.5983,-0.5969,-0.5837,-0.5697,-0.5703,-0.5676,-0.5691,-0.5691,-0.5686,-0.5686,-0.5691,-0.5686,-0.5419,-0.4835,-0.4736,-0.43,-0.3983,-0.3794,-0.3968,-0.4251,-0.3846,-0.3708,-0.4907,-0.5393,-0.5156,-0.3834,-0.3178,-0.2815,-0.2605,-0.2392,-0.2435,-0.3181,-0.2309,-0.225,-2.7136,-2.5882,-2.5378,-2.4921,-2.4507,-2.4528,-2.4507,-2.4507,-2.4507,-2.4507,-2.4507,-2.4507,-2.4507,-2.4507,-2.4464,-2.4229,-2.3884,-2.3671,-2.2331,-2.0342,-1.9755,-1.8501,-1.6521,-1.6038,-1.5891,-1.5862,-1.5513,-1.5221,-1.4944,-1.4885,-1.475,-1.4496,-1.4218,-1.4004,-1.3916,-1.3667,-1.3309,-1.3045,-1.2907,-1.2709,-1.2378,-1.2328,-1.2215,-1.2065,-1.1465,-1.0724,-0.9953,-0.9148,-0.8353,-0.76,-0.7507,-0.7333,-0.7226,-0.7149,-0.6957,-0.6672,-0.6602,-0.6493,-0.6338,-0.63,-0.63,-0.63,-0.63,-0.63,-0.63,-0.6327,-0.634,-0.632,-0.6354,-0.6457,-0.6627,-0.66,-0.6674,-0.6773,-0.6826,-0.6887,-0.6987,-0.6727,-0.6595,-0.652,-0.6329,-0.616,-0.6239,-0.6136,-0.6051,-0.6012,-0.5858,-0.5735,-0.5735,-0.5735,-0.5735,-0.5735,-0.5691,-0.5691,-0.5597,-0.5419,-0.5463,-0.5196,-0.4973,-0.5374,-0.5552,-0.5597,-0.5497,-0.5447,-0.5591,-0.5458,-0.5043,-0.4718,-0.4431,-0.4158,-0.3798,-0.3934,-0.3911,-0.3824,-0.3666,-2.7764,-2.592,-2.5709,-2.5399,-2.4941,-2.4941,-2.4776,-2.4507,-2.4507,-2.4507,-2.4507,-2.4507,-2.4507,-2.4507,-2.4507,-2.4315,-2.4013,-2.3774,-2.309,-2.1983,-2.0544,-1.9343,-1.8506,-1.7005,-1.6199,-1.6155,-1.5891,-1.5528,-1.525,-1.5206,-1.5046,-1.4809,-1.4662,-1.4501,-1.4282,-1.4012,-1.3724,-1.3598,-1.3153,-1.282,-1.2686,-1.2452,-1.2305,-1.2305,-1.2046,-1.1737,-1.1428,-1.0158,-0.9329,-0.9026,-0.8084,-0.748,-0.7419,-0.736,-0.7257,-0.7139,-0.6982,-0.6788,-0.6546,-0.6486,-0.6409,-0.63,-0.63,-0.63,-0.63,-0.63,-0.6334,-0.6416,-0.6477,-0.6579,-0.6627,-0.662,-0.6614,-0.6763,-0.6829,-0.6869,-0.6856,-0.688,-0.6897,-0.6787,-0.6645,-0.6536,-0.6387,-0.6316,-0.6302,-0.6302,-0.6213,-0.6086,-0.5997,-0.5952,-0.5913,-0.5735,-0.5691,-0.5691,-0.5691,-0.5691,-0.5691,-0.5691,-0.5646,-0.5602,-0.5691,-0.5691,-0.5591,-0.5591,-0.5686,-0.5641,-0.5275,-0.5186,-0.5102,-0.5013,-0.4741,-0.4474,-0.4433,-0.43,-0.4198,-2.7757,-2.626,-2.6148,-2.5834,-2.5461,-2.544,-2.5148,-2.4735,-2.4714,-2.4631,-2.4528,-2.4507,-2.4507,-2.4507,-2.4507,-2.4378,-2.4163,-2.3861,-2.3493,-2.2867,-2.0961,-1.9864,-1.9173,-1.7474,-1.6565,-1.6521,-1.6213,-1.5891,-1.5613,-1.5584,-1.5367,-1.5075,-1.4973,-1.4798,-1.4604,-1.4296,-1.4136,-1.3963,-1.3477,-1.3084,-1.2922,-1.2603,-1.2378,-1.2305,-1.2305,-1.2144,-1.1935,-1.0952,-1.0117,-0.9555,-0.8622,-0.8003,-0.7706,-0.7597,-0.7469,-0.7382,-0.7217,-0.6991,-0.6732,-0.671,-0.6641,-0.6525,-0.6454,-0.6391,-0.6439,-0.6407,-0.6436,-0.6552,-0.662,-0.6689,-0.6722,-0.6681,-0.6661,-0.6763,-0.6865,-0.6869,-0.6858,-0.6977,-0.7031,-0.6997,-0.6943,-0.682,-0.665,-0.6561,-0.6523,-0.6517,-0.651,-0.6406,-0.6239,-0.6149,-0.6059,-0.5829,-0.5757,-0.5696,-0.5691,-0.5691,-0.5696,-0.5696,-0.5691,-0.5691,-0.5691,-0.5691,-0.5691,-0.5691,-0.5691,-0.5691,-0.5646,-0.5597,-0.5552,-0.5508,-0.528,-0.4968,-0.4879,-0.4701,-0.4554,-2.7087,-2.6646,-2.6625,-2.6356,-2.5916,-2.5896,-2.5647,-2.523,-2.5189,-2.4983,-2.4714,-2.4569,-2.459,-2.4528,-2.4528,-2.4378,-2.4249,-2.4163,-2.3493,-2.2296,-2.115,-2.0053,-1.8991,-1.7705,-1.6964,-1.6829,-1.6565,-1.6213,-1.5892,-1.5877,-1.5673,-1.5382,-1.509,-1.4958,-1.49,-1.4648,-1.4394,-1.4204,-1.3844,-1.3521,-1.3137,-1.2791,-1.253,-1.2368,-1.2318,-1.1959,-1.1267,-1.1335,-1.07,-0.9409,-0.9209,-0.8923,-0.8081,-0.7829,-0.7676,-0.7486,-0.7289,-0.7119,-0.6949,-0.6903,-0.6903,-0.6856,-0.6725,-0.6649,-0.6737,-0.6638,-0.6579,-0.6668,-0.6715,-0.6763,-0.6849,-0.6912,-0.6912,-0.6889,-0.691,-0.695,-0.7038,-0.7085,-0.7092,-0.7085,-0.7092,-0.7098,-0.7054,-0.6948,-0.6828,-0.6866,-0.6795,-0.663,-0.6447,-0.6356,-0.6184,-0.5974,-0.585,-0.5783,-0.5739,-0.5696,-0.5707,-0.5752,-0.5696,-0.5691,-0.5691,-0.5691,-0.5691,-0.5691,-0.5691,-0.5691,-0.5691,-0.5641,-0.5646,-0.5597,-0.5463,-0.5374,-0.5191,-0.5013,-0.4879,-2.7226,-2.7102,-2.7102,-2.6832,-2.6418,-2.6397,-2.6103,-2.5689,-2.5668,-2.5585,-2.542,-2.5106,-2.4962,-2.4879,-2.4652,-2.4464,-2.4421,-2.4358,-2.397,-2.3105,-2.2094,-2.1051,-1.998,-1.876,-1.7736,-1.7008,-1.6815,-1.658,-1.6243,-1.6038,-1.5848,-1.5673,-1.5396,-1.525,-1.5221,-1.4929,-1.4754,-1.4645,-1.4237,-1.3963,-1.3818,-1.3269,-1.2914,-1.2811,-1.2486,-1.2157,-1.1935,-1.149,-1.0962,-1.0405,-0.9473,-0.8605,-0.8037,-0.7829,-0.7756,-0.7708,-0.7628,-0.7454,-0.7157,-0.715,-0.7165,-0.7046,-0.6997,-0.6958,-0.7008,-0.6955,-0.6861,-0.6831,-0.6815,-0.6876,-0.6991,-0.7031,-0.7024,-0.7068,-0.7031,-0.7038,-0.7078,-0.7098,-0.7098,-0.7098,-0.7098,-0.7183,-0.7272,-0.7208,-0.7203,-0.7283,-0.7164,-0.6991,-0.6808,-0.656,-0.6276,-0.6005,-0.5942,-0.5947,-0.592,-0.5904,-0.5909,-0.5877,-0.5839,-0.5795,-0.5779,-0.5768,-0.5718,-0.5729,-0.5723,-0.5712,-0.5712,-0.5718,-0.5779,-0.5718,-0.5628,-0.5534,-0.5424,-0.535,-0.5245,-2.7309,-2.7309,-2.7309,-2.7143,-2.6874,-2.6874,-2.6625,-2.621,-2.6169,-2.6041,-2.5834,-2.5606,-2.5334,-2.5168,-2.4879,-2.4652,-2.4528,-2.4507,-2.4335,-2.3841,-2.2799,-2.1854,-2.0944,-1.9513,-1.8195,-1.7246,-1.7079,-1.6917,-1.6595,-1.636,-1.6199,-1.6052,-1.576,-1.5571,-1.5542,-1.525,-1.509,-1.5046,-1.4689,-1.4396,-1.4141,-1.3652,-1.3306,-1.3124,-1.2808,-1.2652,-1.2601,-1.2145,-1.1676,-1.1109,-0.9995,-0.9183,-0.8791,-0.8745,-0.8699,-0.8699,-0.869,-0.8636,-0.841,-0.859,-0.8269,-0.7933,-0.7725,-0.7519,-0.7242,-0.7077,-0.6978,-0.6973,-0.6964,-0.7004,-0.7071,-0.7092,-0.7098,-0.7098,-0.7092,-0.7098,-0.7098,-0.7098,-0.7098,-0.7105,-0.7146,-0.7278,-0.736,-0.7448,-0.7489,-0.7537,-0.7496,-0.732,-0.7127,-0.6821,-0.6537,-0.6242,-0.6125,-0.6078,-0.6072,-0.6072,-0.6072,-0.6024,-0.5964,-0.5909,-0.5871,-0.5866,-0.5866,-0.5926,-0.5942,-0.5909,-0.5899,-0.5904,-0.5909,-0.5866,-0.5844,-0.5791,-0.5772,-0.5715,-0.5634,-2.7351,-2.7351,-2.7309,-2.7309,-2.7268,-2.7268,-2.7019,-2.6687,-2.6667,-2.6438,-2.6127,-2.5958,-2.573,-2.5354,-2.5272,-2.5003,-2.4611,-2.459,-2.4463,-2.4034,-2.3236,-2.2429,-2.1409,-1.965,-1.8272,-1.7375,-1.7296,-1.715,-1.6932,-1.6829,-1.6741,-1.6389,-1.6096,-1.5935,-1.5877,-1.5571,-1.5411,-1.5367,-1.509,-1.4727,-1.4414,-1.3999,-1.3662,-1.3345,-1.3213,-1.3133,-1.308,-1.3028,-1.2544,-1.1549,-1.0801,-1.041,-1.034,-1.0272,-1.0108,-1.0069,-1.0233,-1.0204,-1.0315,-1.0253,-1.0079,-0.9195,-0.8928,-0.8471,-0.792,-0.7746,-0.754,-0.7402,-0.7335,-0.7224,-0.72,-0.7132,-0.7177,-0.7132,-0.7152,-0.7139,-0.7132,-0.7146,-0.7166,-0.7166,-0.7292,-0.7407,-0.7422,-0.7556,-0.7611,-0.7672,-0.7664,-0.7546,-0.7401,-0.713,-0.6905,-0.6637,-0.6375,-0.6262,-0.6262,-0.6214,-0.6219,-0.6203,-0.6138,-0.6078,-0.5996,-0.598,-0.5986,-0.6045,-0.6089,-0.6062,-0.6024,-0.6013,-0.6018,-0.6002,-0.6018,-0.6078,-0.6067,-0.5977,-0.5903,-2.7759,-2.7717,-2.7407,-2.7309,-2.7309,-2.7309,-2.7247,-2.7123,-2.7123,-2.7019,-2.6874,-2.6584,-2.631,-2.6185,-2.5834,-2.5461,-2.5086,-2.4983,-2.4797,-2.4399,-2.4057,-2.2536,-2.0854,-1.9422,-1.8288,-1.7419,-1.7279,-1.7296,-1.7179,-1.7035,-1.6873,-1.6771,-1.6448,-1.6243,-1.6242,-1.5935,-1.5761,-1.5703,-1.5425,-1.5223,-1.5042,-1.4443,-1.4126,-1.3992,-1.3493,-1.324,-1.3213,-1.3213,-1.2778,-1.1936,-1.1694,-1.129,-1.0836,-1.073,-1.0766,-1.0766,-1.0748,-1.0708,-1.0719,-1.0814,-1.0681,-1.0553,-1.0367,-1.0292,-1.0033,-0.9761,-0.9235,-0.8667,-0.8281,-0.7945,-0.751,-0.7403,-0.7398,-0.7448,-0.7433,-0.736,-0.7434,-0.7475,-0.7455,-0.7394,-0.7468,-0.7563,-0.7604,-0.7665,-0.7794,-0.7833,-0.7782,-0.7717,-0.7635,-0.7445,-0.7143,-0.6956,-0.6723,-0.6514,-0.641,-0.6355,-0.6361,-0.6317,-0.6328,-0.6279,-0.6187,-0.6105,-0.6121,-0.6159,-0.6192,-0.6176,-0.6111,-0.6067,-0.6089,-0.6138,-0.6127,-0.6143,-0.6111,-0.6072,-0.6051,-2.809,-2.7903,-2.7634,-2.7427,-2.733,-2.7309,-2.7309,-2.7309,-2.7309,-2.7309,-2.7247,-2.704,-2.6812,-2.6584,-2.6335,-2.5916,-2.5523,-2.5272,-2.5001,-2.4536,-2.366,-2.2183,-2.0494,-1.933,-1.8288,-1.7372,-1.7279,-1.7279,-1.725,-1.7135,-1.7062,-1.7004,-1.6785,-1.6624,-1.6595,-1.6272,-1.6111,-1.6052,-1.5804,-1.5544,-1.5445,-1.485,-1.4447,-1.4282,-1.3804,-1.3574,-1.3587,-1.3587,-1.3238,-1.2668,-1.2473,-1.2273,-1.1902,-1.1822,-1.1822,-1.1822,-1.1918,-1.2018,-1.2002,-1.2074,-1.1958,-1.1657,-1.1522,-1.125,-1.0907,-1.0784,-1.0362,-0.98,-0.9598,-0.9309,-0.8847,-0.8421,-0.8227,-0.8291,-0.7886,-0.7617,-0.7604,-0.7584,-0.757,-0.7556,-0.7617,-0.774,-0.7793,-0.7882,-0.7894,-0.7955,-0.7862,-0.7875,-0.7875,-0.764,-0.7459,-0.7278,-0.7119,-0.6962,-0.6805,-0.6754,-0.6636,-0.6591,-0.6446,-0.6453,-0.6355,-0.6252,-0.6263,-0.6285,-0.6295,-0.629,-0.623,-0.6203,-0.6252,-0.6274,-0.6236,-0.6225,-0.6219,-0.6181,-0.6154,-2.8392,-2.8048,-2.8028,-2.7759,-2.7517,-2.7413,-2.7434,-2.7392,-2.733,-2.7309,-2.7309,-2.7309,-2.7061,-2.6687,-2.6708,-2.6438,-2.5937,-2.5647,-2.518,-2.4428,-2.3163,-2.1587,-2.0539,-1.933,-1.8288,-1.7419,-1.7279,-1.7279,-1.7279,-1.7264,-1.7264,-1.7238,-1.7018,-1.6961,-1.6888,-1.6624,-1.6477,-1.6404,-1.6111,-1.5878,-1.5706,-1.5234,-1.4909,-1.4711,-1.4375,-1.4166,-1.4124,-1.4041,-1.3786,-1.3333,-1.3293,-1.324,-1.3227,-1.324,-1.3253,-1.3226,-1.3276,-1.3434,-1.3597,-1.3631,-1.3591,-1.2796,-1.2583,-1.2178,-1.1663,-1.1684,-1.1604,-1.1069,-1.1126,-1.0876,-1.0445,-0.9813,-0.9549,-0.9475,-0.8738,-0.8192,-0.7963,-0.7881,-0.7834,-0.7841,-0.8007,-0.8035,-0.8132,-0.8088,-0.7995,-0.8099,-0.8056,-0.8049,-0.8076,-0.8009,-0.7813,-0.7617,-0.7514,-0.7416,-0.7261,-0.7159,-0.6998,-0.6922,-0.6706,-0.6594,-0.6497,-0.6426,-0.6415,-0.6365,-0.6377,-0.6377,-0.6382,-0.6338,-0.636,-0.6344,-0.6344,-0.6377,-0.636,-0.6355,-0.6317,-2.9104,-2.898,-2.8607,-2.8421,-2.8255,-2.7945,-2.7779,-2.7738,-2.7407,-2.7351,-2.7309,-2.7309,-2.7247,-2.7143,-2.7102,-2.6915,-2.648,-2.6227,-2.5846,-2.4706,-2.3144,-2.1739,-2.0557,-1.9392,-1.8288,-1.7512,-1.7279,-1.7279,-1.7279,-1.7279,-1.7279,-1.7264,-1.7252,-1.7223,-1.7165,-1.6901,-1.68,-1.6741,-1.6477,-1.6287,-1.6169,-1.5834,-1.5588,-1.5442,-1.5,-1.4645,-1.4419,-1.4202,-1.4028,-1.3935,-1.3895,-1.3895,-1.3854,-1.3854,-1.3854,-1.3881,-1.3921,-1.3988,-1.4015,-1.4095,-1.4103,-1.4,-1.3896,-1.4073,-1.4116,-1.3753,-1.3399,-1.2813,-1.2359,-1.2007,-1.1291,-1.0943,-1.0768,-1.0669,-1.0511,-1.0267,-1.0224,-0.9624,-0.9219,-0.9437,-0.9266,-0.9272,-0.9468,-0.8464,-0.8256,-0.8224,-0.8194,-0.8174,-0.8228,-0.8296,-0.8155,-0.7962,-0.7956,-0.7863,-0.7666,-0.7515,-0.7293,-0.7157,-0.6948,-0.6741,-0.6643,-0.6562,-0.654,-0.6491,-0.6381,-0.6403,-0.6507,-0.6414,-0.6414,-0.6403,-0.6408,-0.648,-0.6497,-0.6475,-0.648,-2.9497,-2.929,-2.9042,-2.8814,-2.8587,-2.8338,-2.8131,-2.7903,-2.7676,-2.7448,-2.733,-2.7309,-2.7309,-2.7309,-2.7309,-2.7143,-2.6936,-2.6687,-2.6023,-2.4892,-2.3428,-2.2033,-2.0657,-1.9412,-1.8288,-1.7466,-1.7279,-1.7279,-1.7279,-1.7279,-1.7279,-1.7279,-1.7279,-1.7264,-1.7279,-1.715,-1.7091,-1.7018,-1.6815,-1.6639,-1.6594,-1.6136,-1.5709,-1.5531,-1.5157,-1.4855,-1.4754,-1.4646,-1.4522,-1.4496,-1.4482,-1.4349,-1.4135,-1.4095,-1.4148,-1.4269,-1.4295,-1.4376,-1.4442,-1.4553,-1.4576,-1.471,-1.4723,-1.4803,-1.4977,-1.4935,-1.4741,-1.4218,-1.389,-1.3555,-1.2819,-1.2234,-1.2134,-1.1824,-1.1609,-1.1411,-1.1154,-1.0308,-1.0051,-1.0422,-0.9772,-0.9696,-0.9427,-0.9032,-0.8554,-0.8505,-0.8357,-0.835,-0.8431,-0.8486,-0.8453,-0.8361,-0.8395,-0.8275,-0.8081,-0.7833,-0.7588,-0.7421,-0.722,-0.6967,-0.6801,-0.6719,-0.6643,-0.6611,-0.6594,-0.66,-0.6632,-0.6578,-0.6505,-0.6611,-0.6627,-0.66,-0.66,-0.6632,-0.6627,-2.9766,-2.9415,-2.9415,-2.9166,-2.8835,-2.8752,-2.8524,-2.8193,-2.7999,-2.78,-2.7475,-2.7413,-2.7434,-2.733,-2.7309,-2.7309,-2.7164,-2.6765,-2.6126,-2.5386,-2.4199,-2.2868,-2.1501,-2.0105,-1.8814,-1.7712,-1.7387,-1.734,-1.7279,-1.7279,-1.7279,-1.7279,-1.7279,-1.7279,-1.7326,-1.7326,-1.7296,-1.7238,-1.7047,-1.6976,-1.6901,-1.6349,-1.5889,-1.5527,-1.5251,-1.512,-1.5062,-1.4995,-1.4968,-1.5008,-1.5008,-1.474,-1.4389,-1.4229,-1.4309,-1.4576,-1.4589,-1.4669,-1.4861,-1.4941,-1.4968,-1.5048,-1.5075,-1.5115,-1.5164,-1.5278,-1.5246,-1.5245,-1.5055,-1.5019,-1.4785,-1.399,-1.337,-1.3133,-1.2542,-1.2113,-1.1752,-1.092,-1.1241,-1.1737,-1.1303,-1.0941,-1.0484,-1.0057,-0.9332,-0.8776,-0.8671,-0.8593,-0.8728,-0.8776,-0.879,-0.8649,-0.8622,-0.8635,-0.8432,-0.8208,-0.7974,-0.7792,-0.7539,-0.7354,-0.711,-0.6969,-0.6903,-0.6812,-0.6796,-0.6774,-0.6725,-0.6665,-0.6681,-0.6768,-0.6779,-0.6736,-0.6757,-0.6806,-0.6779,-2.9953,-2.987,-2.9891,-2.9829,-2.9704,-2.9373,-2.9125,-2.9001,-2.8628,-2.8235,-2.7841,-2.78,-2.7572,-2.7413,-2.7309,-2.7309,-2.7206,-2.6827,-2.6532,-2.6162,-2.5177,-2.4067,-2.2657,-2.1171,-1.9929,-1.8942,-1.8005,-1.7369,-1.7293,-1.7279,-1.7279,-1.7279,-1.7279,-1.7279,-1.7279,-1.7279,-1.7279,-1.7279,-1.7238,-1.7208,-1.7133,-1.6936,-1.6615,-1.6137,-1.5787,-1.5521,-1.5316,-1.5156,-1.5008,-1.5008,-1.5008,-1.4968,-1.4888,-1.4861,-1.4888,-1.487,-1.4883,-1.4995,-1.5089,-1.5062,-1.5156,-1.5244,-1.5324,-1.5444,-1.5591,-1.5651,-1.5678,-1.567,-1.5581,-1.5447,-1.5401,-1.4875,-1.4887,-1.4821,-1.4565,-1.4207,-1.3993,-1.3464,-1.2659,-1.2985,-1.2679,-1.2269,-1.1803,-1.1193,-1.0493,-0.9861,-0.9556,-0.9341,-0.9327,-0.9323,-0.929,-0.9092,-0.8838,-0.8844,-0.8796,-0.8556,-0.8336,-0.8219,-0.8029,-0.781,-0.7578,-0.7326,-0.7183,-0.7035,-0.6904,-0.685,-0.6801,-0.6763,-0.6948,-0.7133,-0.7026,-0.6914,-0.7256,-0.7499,-0.7022,-2.9994,-2.9994,-2.9994,-2.9994,-2.9953,-2.9766,-2.9518,-2.929,-2.9063,-2.8711,-2.8317,-2.7979,-2.7821,-2.7593,-2.7372,-2.7309,-2.7226,-2.7123,-2.6884,-2.6593,-2.6011,-2.4633,-2.3267,-2.1884,-2.0371,-1.9064,-1.7927,-1.7425,-1.7293,-1.7279,-1.7279,-1.7279,-1.7279,-1.7279,-1.7279,-1.7279,-1.7279,-1.7279,-1.7279,-1.7279,-1.7279,-1.7185,-1.6871,-1.6452,-1.6195,-1.5879,-1.5638,-1.5511,-1.5418,-1.5431,-1.5418,-1.5418,-1.5404,-1.5378,-1.5337,-1.5217,-1.5236,-1.5271,-1.5378,-1.5418,-1.5498,-1.5591,-1.5618,-1.5671,-1.5778,-1.5818,-1.5925,-1.5971,-1.6024,-1.5839,-1.5718,-1.5607,-1.5482,-1.5279,-1.5273,-1.5037,-1.47,-1.4625,-1.4335,-1.3854,-1.3007,-1.2767,-1.3132,-1.248,-1.1674,-1.1031,-1.0509,-1.0256,-1.0021,-1.0249,-1.0406,-1.0084,-0.9864,-0.961,-0.9618,-0.9404,-0.9314,-0.9147,-0.8856,-0.8634,-0.822,-0.7992,-0.7526,-0.7133,-0.7062,-0.7373,-0.698,-0.704,-0.7246,-0.7498,-0.7744,-0.7931,-0.8142,-0.8148,-0.766,-3.0203,-2.9994,-2.9994,-2.9994,-2.9994,-2.9994,-2.9787,-2.9497,-2.9435,-2.9187,-2.8731,-2.838,-2.8131,-2.7841,-2.751,-2.7309,-2.7309,-2.7289,-2.7125,-2.6921,-2.6465,-2.5061,-2.3636,-2.2035,-2.0943,-1.9746,-1.8203,-1.775,-1.7439,-1.7323,-1.7279,-1.7279,-1.7279,-1.7279,-1.7279,-1.7279,-1.7279,-1.7279,-1.7279,-1.7279,-1.7232,-1.7106,-1.6838,-1.6366,-1.6272,-1.6103,-1.5886,-1.5765,-1.5752,-1.5765,-1.5778,-1.5805,-1.5818,-1.5818,-1.5712,-1.5524,-1.5484,-1.5618,-1.5725,-1.5792,-1.5704,-1.5778,-1.5818,-1.5858,-1.5965,-1.6059,-1.6139,-1.6313,-1.6366,-1.6338,-1.6238,-1.6087,-1.5884,-1.5678,-1.5579,-1.5427,-1.503,-1.493,-1.517,-1.4498,-1.3412,-1.3487,-1.4123,-1.3646,-1.2778,-1.2367,-1.1837,-1.1359,-1.1282,-1.1873,-1.1928,-1.15,-1.1126,-1.072,-1.0524,-1.0508,-1.0508,-1.0627,-1.0316,-1.0021,-0.9405,-0.8794,-0.8602,-0.8803,-0.8323,-0.8552,-0.7907,-0.7271,-0.7315,-0.7627,-0.8452,-0.8789,-0.8681,-0.862,-0.8352,-3.0836,-2.9994,-2.9994,-2.9994,-2.9994,-2.9994,-2.9973,-2.9911,-2.987,-2.9663,-2.9228,-2.9104,-2.8628,-2.8007,-2.7489,-2.7351,-2.733,-2.7309,-2.7262,-2.7146,-2.6683,-2.6192,-2.5431,-2.3068,-2.2129,-2.0868,-1.9219,-1.8169,-1.7905,-1.764,-1.7337,-1.7352,-1.7395,-1.7308,-1.7352,-1.7366,-1.7279,-1.7293,-1.7279,-1.7279,-1.7293,-1.7106,-1.6979,-1.6791,-1.6508,-1.6238,-1.6157,-1.5967,-1.5845,-1.5811,-1.5832,-1.5832,-1.5832,-1.5832,-1.5771,-1.5744,-1.5778,-1.5792,-1.5818,-1.5832,-1.5858,-1.5872,-1.5872,-1.5979,-1.6179,-1.6406,-1.654,-1.6633,-1.666,-1.6743,-1.6817,-1.6742,-1.66,-1.6338,-1.6163,-1.6013,-1.5677,-1.5405,-1.5648,-1.5683,-1.4784,-1.5041,-1.5523,-1.4696,-1.3943,-1.3565,-1.3186,-1.2708,-1.2702,-1.3426,-1.3372,-1.2853,-1.2542,-1.2128,-1.1599,-1.1514,-1.1621,-1.195,-1.1699,-1.1383,-1.0747,-1.0397,-1.1402,-1.1431,-1.0792,-0.9688,-0.8729,-0.8109,-0.756,-0.787,-0.8754,-0.892,-0.8858,-0.892,-0.9251,-3.0991,-2.9994,-2.9994,-2.9994,-2.9994,-2.9994,-2.9994,-2.9994,-2.9994,-2.9891,-2.9663,-2.9394,-2.8918,-2.8317,-2.7841,-2.7655,-2.7572,-2.7455,-2.7309,-2.7282,-2.69,-2.6352,-2.5353,-2.411,-2.3184,-2.1876,-2.057,-1.962,-1.9033,-1.8301,-1.7882,-1.7852,-1.7852,-1.7794,-1.7633,-1.7556,-1.7486,-1.7399,-1.7279,-1.7279,-1.7279,-1.72,-1.7106,-1.6979,-1.6744,-1.6592,-1.6436,-1.6198,-1.6048,-1.6027,-1.5952,-1.5832,-1.5832,-1.5832,-1.5784,-1.5818,-1.5818,-1.5818,-1.5832,-1.5832,-1.5925,-1.6046,-1.6099,-1.6219,-1.6473,-1.6647,-1.682,-1.7005,-1.6954,-1.705,-1.7159,-1.7082,-1.6885,-1.6711,-1.6599,-1.6386,-1.6262,-1.6145,-1.6097,-1.6187,-1.6223,-1.6223,-1.6175,-1.5634,-1.5092,-1.4986,-1.4888,-1.4735,-1.4812,-1.5367,-1.4943,-1.411,-1.3897,-1.3628,-1.304,-1.2617,-1.2683,-1.2861,-1.2871,-1.2475,-1.2016,-1.2123,-1.3158,-1.376,-1.3351,-1.1939,-1.0137,-0.9049,-0.8579,-0.8774,-0.914,-0.9618,-1.0137,-1.0531,-1.0751,-3.0733,-2.9994,-2.9994,-2.9994,-2.9994,-2.9994,-2.9994,-2.9994,-2.9994,-2.9994,-2.987,-2.9518,-2.9104,-2.8752,-2.8338,-2.809,-2.8069,-2.7738,-2.7579,-2.7421,-2.7071,-2.6452,-2.546,-2.4602,-2.3416,-2.2433,-2.0623,-1.9926,-1.9613,-1.9095,-1.8467,-1.8321,-1.8203,-1.8145,-1.7999,-1.7925,-1.7838,-1.7677,-1.7545,-1.7501,-1.7425,-1.7323,-1.72,-1.7106,-1.6961,-1.6843,-1.6615,-1.6266,-1.6122,-1.6067,-1.5939,-1.5832,-1.5832,-1.5925,-1.5979,-1.6005,-1.6059,-1.6126,-1.6099,-1.6086,-1.6126,-1.6286,-1.6536,-1.662,-1.678,-1.686,-1.6981,-1.73,-1.73,-1.7277,-1.7331,-1.7371,-1.7303,-1.7128,-1.6911,-1.6737,-1.6547,-1.6545,-1.649,-1.6416,-1.6477,-1.6561,-1.6465,-1.6272,-1.6205,-1.6301,-1.6404,-1.6441,-1.6542,-1.669,-1.6236,-1.5277,-1.5187,-1.5108,-1.4866,-1.4318,-1.4214,-1.4063,-1.4006,-1.4141,-1.4006,-1.4059,-1.4689,-1.513,-1.5344,-1.4414,-1.2673,-1.1083,-0.9613,-0.9958,-1.0395,-1.1129,-1.1611,-1.2,-1.2266,-3.0047,-2.9994,-2.9994,-2.9994,-2.9994,-2.9994,-2.9994,-2.9994,-2.9994,-2.9994,-2.9932,-2.9559,-2.9332,-2.9145,-2.8814,-2.8566,-2.8545,-2.8524,-2.8214,-2.7868,-2.757,-2.7065,-2.6006,-2.4573,-2.3088,-2.2434,-2.0848,-1.9789,-1.942,-1.9405,-1.8825,-1.8394,-1.8482,-1.8364,-1.8262,-1.8203,-1.8174,-1.8043,-1.7896,-1.7794,-1.7706,-1.7574,-1.7381,-1.7258,-1.6899,-1.6602,-1.6597,-1.6273,-1.6053,-1.6072,-1.6019,-1.5965,-1.6019,-1.6152,-1.6233,-1.6273,-1.6406,-1.65,-1.6526,-1.6393,-1.642,-1.666,-1.6887,-1.7099,-1.7114,-1.742,-1.7568,-1.7515,-1.7515,-1.7569,-1.7636,-1.7756,-1.7713,-1.759,-1.7479,-1.7312,-1.7144,-1.6993,-1.6869,-1.6726,-1.6742,-1.6863,-1.6887,-1.6718,-1.6585,-1.667,-1.6779,-1.6815,-1.6815,-1.6903,-1.6899,-1.6476,-1.6473,-1.6488,-1.6734,-1.6425,-1.5918,-1.5848,-1.595,-1.6309,-1.6599,-1.6681,-1.608,-1.6368,-1.6459,-1.5864,-1.5172,-1.3344,-1.1973,-1.1526,-1.1697,-1.2531,-1.3021,-1.3299,-1.3578,-2.9994,-2.9994,-2.9994,-2.9994,-2.9994,-2.9994,-2.9994,-2.9994,-2.9994,-2.9994,-2.9973,-2.9808,-2.9725,-2.9601,-2.927,-2.9042,-2.898,-2.8711,-2.8524,-2.8322,-2.8049,-2.769,-2.6625,-2.5446,-2.418,-2.3419,-2.155,-2.0277,-2.0313,-1.9695,-1.925,-1.9001,-1.8906,-1.876,-1.8657,-1.8452,-1.8364,-1.8306,-1.8203,-1.8116,-1.8086,-1.8028,-1.7925,-1.7877,-1.7829,-1.7554,-1.7436,-1.7085,-1.6845,-1.6612,-1.642,-1.6339,-1.6313,-1.646,-1.6526,-1.6553,-1.67,-1.682,-1.6914,-1.674,-1.6687,-1.7018,-1.7286,-1.7422,-1.7408,-1.7542,-1.7582,-1.7622,-1.7769,-1.7862,-1.7916,-1.813,-1.8262,-1.8139,-1.8026,-1.7896,-1.7751,-1.7528,-1.7365,-1.722,-1.7195,-1.7237,-1.7237,-1.7201,-1.7068,-1.6984,-1.7092,-1.7165,-1.7141,-1.7141,-1.7105,-1.7092,-1.7044,-1.7068,-1.7249,-1.7322,-1.7358,-1.7418,-1.7479,-1.7479,-1.7479,-1.7396,-1.7031,-1.7394,-1.7394,-1.6762,-1.6021,-1.5119,-1.4167,-1.3298,-1.3442,-1.4099,-1.4458,-1.4483,-1.453,-2.9994,-2.9994,-2.9994,-2.9994,-2.9994,-2.9994,-2.9994,-2.9994,-2.9994,-2.9994,-2.9994,-2.9994,-2.9994,-2.9891,-2.9684,-2.9518,-2.9435,-2.9228,-2.898,-2.8776,-2.8562,-2.8178,-2.737,-2.6314,-2.5039,-2.4404,-2.267,-2.1174,-2.1118,-2.0076,-1.967,-1.9579,-1.9535,-1.9345,-1.895,-1.873,-1.8584,-1.8584,-1.8482,-1.8452,-1.8452,-1.8321,-1.8262,-1.8262,-1.8085,-1.8009,-1.7746,-1.7413,-1.7191,-1.6981,-1.6867,-1.67,-1.6727,-1.678,-1.682,-1.686,-1.6941,-1.7061,-1.7141,-1.7141,-1.7074,-1.734,-1.7422,-1.7595,-1.7689,-1.7729,-1.7796,-1.7929,-1.8076,-1.8183,-1.8142,-1.8437,-1.8597,-1.8499,-1.8576,-1.8499,-1.8298,-1.8103,-1.7855,-1.7675,-1.7637,-1.7606,-1.7418,-1.7382,-1.7358,-1.7249,-1.7274,-1.7334,-1.7346,-1.7346,-1.737,-1.737,-1.737,-1.7406,-1.7467,-1.7455,-1.7443,-1.743,-1.7479,-1.7479,-1.7479,-1.7479,-1.7479,-1.7455,-1.7396,-1.7361,-1.6891,-1.6191,-1.5485,-1.4845,-1.4988,-1.5024,-1.5062,-1.504,-1.5066,-2.9994,-2.9994,-2.9994,-2.9994,-2.9994,-2.9994,-2.9994,-2.9994,-2.9994,-2.9994,-2.9994,-2.9994,-2.9994,-2.9973,-2.9891,-2.987,-2.987,-2.9829,-2.9642,-2.9301,-2.9086,-2.8554,-2.7648,-2.6654,-2.5703,-2.4873,-2.3319,-2.2091,-2.2012,-2.088,-2.0401,-2.02,-2.0111,-1.9813,-1.9316,-1.9242,-1.9242,-1.9199,-1.8906,-1.8818,-1.873,-1.8555,-1.8482,-1.8417,-1.8332,-1.8254,-1.8067,-1.7764,-1.7512,-1.7309,-1.7079,-1.6924,-1.686,-1.7048,-1.7179,-1.7192,-1.742,-1.7502,-1.7555,-1.7555,-1.7555,-1.7569,-1.7675,-1.7769,-1.7916,-1.8009,-1.8103,-1.8237,-1.8424,-1.8477,-1.8584,-1.8718,-1.8851,-1.8945,-1.9008,-1.8946,-1.88,-1.8525,-1.8262,-1.8023,-1.7969,-1.7855,-1.7691,-1.7515,-1.7551,-1.7515,-1.7491,-1.7491,-1.7503,-1.7479,-1.7491,-1.7479,-1.7491,-1.7563,-1.7563,-1.7539,-1.7515,-1.7503,-1.7539,-1.7599,-1.7539,-1.7479,-1.7479,-1.7491,-1.7479,-1.742,-1.742,-1.7349,-1.6517,-1.5726,-1.5531,-1.5548,-1.5548,-1.5515,-1.5429,-2.9994,-2.9994,-2.9994,-2.9994,-2.9994,-2.9994,-2.9994,-2.9994,-2.9994,-2.9994,-2.9994,-2.9994,-2.9994,-2.9994,-2.9994,-2.9994,-2.9994,-2.9994,-2.9829,-2.9787,-2.9569,-2.9236,-2.8421,-2.724,-2.6342,-2.548,-2.4085,-2.3204,-2.3174,-2.2059,-2.1526,-2.1295,-2.0595,-2.0003,-1.9638,-1.9433,-1.9272,-1.9257,-1.9155,-1.9111,-1.9111,-1.9008,-1.8935,-1.8921,-1.8818,-1.8687,-1.8534,-1.8212,-1.7956,-1.7699,-1.7479,-1.7376,-1.7273,-1.7447,-1.746,-1.7474,-1.7582,-1.7689,-1.7809,-1.7876,-1.7876,-1.7889,-1.7916,-1.8036,-1.829,-1.8343,-1.841,-1.8517,-1.8704,-1.8758,-1.8824,-1.9052,-1.9185,-1.9212,-1.9292,-1.9292,-1.9132,-1.8842,-1.8519,-1.8349,-1.8236,-1.8175,-1.8034,-1.7913,-1.7841,-1.7781,-1.7744,-1.7612,-1.7575,-1.7515,-1.7491,-1.7479,-1.7503,-1.7612,-1.7672,-1.7768,-1.7853,-1.7901,-1.7889,-1.7877,-1.7768,-1.7599,-1.7563,-1.7612,-1.7539,-1.7479,-1.7527,-1.7433,-1.7091,-1.6596,-1.6213,-1.5834,-1.5639,-1.5639,-1.5558,-2.9994,-2.9994,-2.9994,-2.9994,-2.9994,-2.9994,-2.9994,-2.9994,-2.9994,-2.9994,-2.9994,-2.9994,-2.9994,-2.9994,-2.9994,-2.9994,-2.9994,-2.9994,-2.9889,-2.9889,-2.9711,-2.9303,-2.8602,-2.7955,-2.7343,-2.6467,-2.554,-2.4756,-2.4738,-2.354,-2.2759,-2.212,-2.1033,-2.0435,-2.0062,-1.9857,-1.9652,-1.9681,-1.9652,-1.9652,-1.9594,-1.952,-1.9433,-1.9389,-1.933,-1.919,-1.9011,-1.8817,-1.8608,-1.824,-1.7978,-1.782,-1.7648,-1.7595,-1.7595,-1.7582,-1.7716,-1.7889,-1.8116,-1.8196,-1.8237,-1.8315,-1.8222,-1.8357,-1.8571,-1.8637,-1.8731,-1.8838,-1.8971,-1.9038,-1.9118,-1.9345,-1.9399,-1.9426,-1.9519,-1.9533,-1.9594,-1.9312,-1.9135,-1.8949,-1.8643,-1.8592,-1.8398,-1.83,-1.8179,-1.8094,-1.7998,-1.7865,-1.7744,-1.7696,-1.7684,-1.7696,-1.7708,-1.7829,-1.7986,-1.8118,-1.8203,-1.8275,-1.8239,-1.8179,-1.801,-1.7841,-1.7781,-1.7756,-1.7817,-1.7829,-1.7625,-1.7458,-1.7185,-1.6933,-1.6594,-1.6215,-1.5823,-1.5661,-1.5601,-2.9994,-2.9994,-2.9994,-2.9994,-2.9994,-2.9994,-2.9994,-2.9994,-2.9994,-2.9994,-2.9994,-2.9994,-2.9994,-2.9994,-2.9994,-2.9994,-2.9994,-2.9994,-2.9889,-2.9659,-2.9501,-2.9099,-2.8834,-2.8402,-2.8004,-2.7722,-2.7109,-2.6315,-2.6354,-2.4812,-2.38,-2.2831,-2.144,-2.0818,-2.0574,-2.0428,-2.0154,-2.0106,-2.0047,-1.9979,-1.9989,-1.9886,-1.9798,-1.9711,-1.9608,-1.9506,-1.929,-1.9036,-1.8692,-1.8362,-1.8018,-1.7807,-1.7635,-1.7622,-1.7622,-1.7716,-1.7943,-1.8196,-1.8437,-1.849,-1.8651,-1.8771,-1.8677,-1.8744,-1.8838,-1.8945,-1.9011,-1.9132,-1.931,-1.9319,-1.9412,-1.9479,-1.9546,-1.9653,-1.98,-1.992,-2.0094,-1.9953,-1.9892,-1.9603,-1.9264,-1.9037,-1.8692,-1.858,-1.8555,-1.8481,-1.842,-1.8396,-1.8263,-1.8106,-1.8082,-1.8082,-1.8106,-1.8131,-1.8275,-1.8432,-1.8529,-1.8601,-1.8505,-1.842,-1.8251,-1.8179,-1.8191,-1.8215,-1.8239,-1.8167,-1.7913,-1.7721,-1.742,-1.7176,-1.7051,-1.6508,-1.6134,-1.5715,-1.5612,-2.9994,-2.9994,-2.9994,-2.9994,-2.9994,-2.9994,-2.9994,-2.9994,-2.9994,-2.9994,-2.9994,-2.9994,-2.9994,-2.9994,-2.9994,-2.9994,-2.9994,-2.9994,-2.9994,-2.9784,-2.9448,-2.9237,-2.8993,-2.8674,-2.8514,-2.8247,-2.7906,-2.7565,-2.7222,-2.5899,-2.4133,-2.2927,-2.1737,-2.1213,-2.1055,-2.0969,-2.0647,-2.0413,-2.0285,-2.0285,-2.0241,-2.0179,-2.0106,-2.0033,-1.9959,-1.9872,-1.975,-1.9536,-1.9284,-1.901,-1.8735,-1.8453,-1.8223,-1.8237,-1.8237,-1.8237,-1.8357,-1.849,-1.8731,-1.8798,-1.8905,-1.9145,-1.9132,-1.9158,-1.9212,-1.9239,-1.9279,-1.943,-1.9511,-1.9506,-1.9626,-1.972,-1.984,-2.0,-2.0107,-2.0201,-2.0361,-2.034,-2.0217,-1.9998,-1.9655,-1.9411,-1.9062,-1.8947,-1.8933,-1.8894,-1.8831,-1.8794,-1.8722,-1.8541,-1.8444,-1.8432,-1.8444,-1.8469,-1.8589,-1.8734,-1.8831,-1.8879,-1.8782,-1.8734,-1.8722,-1.8674,-1.8662,-1.8589,-1.8469,-1.8348,-1.8215,-1.7984,-1.7739,-1.769,-1.7541,-1.6943,-1.6425,-1.6024,-1.5774,-3.063,-3.0599,-3.0151,-2.9994,-2.9994,-2.9994,-2.9994,-2.9994,-2.9994,-2.9994,-2.9994,-2.9994,-2.9994,-2.9994,-2.9994,-2.9994,-2.9994,-2.9994,-2.9889,-2.9522,-2.9522,-2.9079,-2.8814,-2.8674,-2.8461,-2.8354,-2.8301,-2.8121,-2.7672,-2.6118,-2.43,-2.4428,-2.2539,-2.1759,-2.1687,-2.1457,-2.0998,-2.0779,-2.0647,-2.0618,-2.0518,-2.0486,-2.0428,-2.0398,-2.0355,-2.0227,-2.0197,-1.9964,-1.9765,-1.9497,-1.9163,-1.8823,-1.863,-1.8588,-1.8584,-1.8584,-1.8664,-1.8824,-1.9038,-1.9092,-1.9212,-1.9403,-1.9537,-1.9533,-1.9466,-1.9426,-1.9479,-1.9604,-1.9599,-1.9679,-1.984,-2.0,-2.0187,-2.0374,-2.0428,-2.0468,-2.0535,-2.0588,-2.0429,-2.0146,-1.9938,-1.9764,-1.9548,-1.9431,-1.9188,-1.9076,-1.8976,-1.8976,-1.8927,-1.8831,-1.8758,-1.8746,-1.8758,-1.8782,-1.8891,-1.8939,-1.8976,-1.9,-1.8988,-1.8976,-1.9136,-1.9024,-1.8891,-1.8746,-1.8613,-1.8517,-1.8444,-1.8321,-1.8135,-1.8072,-1.7945,-1.7502,-1.6912,-1.636,-1.6212,-3.1534,-3.133,-3.0391,-2.9994,-2.9994,-2.9994,-2.9994,-2.9994,-2.9994,-2.9994,-2.9994,-2.9994,-2.9994,-2.9994,-2.9994,-2.9994,-2.9994,-2.9994,-2.9837,-2.9185,-2.929,-2.9026,-2.8727,-2.8393,-2.8486,-2.8393,-2.834,-2.8418,-2.7711,-2.6409,-2.5516,-2.6245,-2.3424,-2.2312,-2.2918,-2.2101,-2.1628,-2.1568,-2.1255,-2.1042,-2.1028,-2.0911,-2.075,-2.0706,-2.0545,-2.0314,-2.0245,-2.0077,-1.9883,-1.9678,-1.9457,-1.914,-1.8945,-1.8874,-1.8897,-1.8865,-1.8958,-1.9078,-1.9252,-1.9359,-1.9399,-1.9519,-1.9666,-1.9786,-1.9773,-1.9506,-1.9479,-1.984,-1.9973,-2.0107,-2.0267,-2.0307,-2.0428,-2.0615,-2.0722,-2.0775,-2.0828,-2.0869,-2.0743,-2.0519,-2.0357,-2.017,-1.9916,-1.9711,-1.9392,-1.9264,-1.9136,-1.9136,-1.9112,-1.9,-1.8988,-1.8963,-1.8951,-1.8939,-1.8988,-1.9024,-1.9036,-1.906,-1.9136,-1.9136,-1.9136,-1.9136,-1.9136,-1.8927,-1.8794,-1.8758,-1.8722,-1.8584,-1.8459,-1.8407,-1.8237,-1.7953,-1.7393,-1.6801,-1.6569,-3.1146,-3.0391,-3.0099,-2.9994,-2.9994,-2.9994,-2.9994,-2.9994,-2.9994,-2.9994,-2.9994,-2.9994,-2.9994,-2.9994,-2.9994,-2.9994,-2.9994,-2.9994,-2.9942,-2.9679,-2.9554,-2.9185,-2.8947,-2.8838,-2.8731,-2.855,-2.8516,-2.8535,-2.7964,-2.6898,-2.6082,-2.63,-2.43,-2.3855,-2.4189,-2.3143,-2.2425,-2.2312,-2.1531,-2.1261,-2.1174,-2.1174,-2.1086,-2.1057,-2.094,-2.0896,-2.0781,-2.065,-2.0513,-2.0415,-2.0131,-1.9864,-1.9576,-1.9533,-1.9401,-1.9296,-1.9252,-1.9332,-1.9426,-1.9586,-1.9679,-1.9786,-1.9933,-2.0054,-1.9973,-1.9599,-1.9626,-2.0094,-2.0401,-2.0548,-2.0628,-2.0628,-2.0655,-2.0828,-2.0975,-2.1042,-2.1109,-2.1109,-2.1046,-2.0919,-2.0729,-2.0539,-2.0284,-1.9966,-1.9647,-1.9392,-1.92,-1.9136,-1.9136,-1.9048,-1.9036,-1.9024,-1.9036,-1.9048,-1.9136,-1.9136,-1.9136,-1.9136,-1.9136,-1.9136,-1.9136,-1.9136,-1.9136,-1.9136,-1.9012,-1.8939,-1.8915,-1.8963,-1.8848,-1.8748,-1.8569,-1.8291,-1.7852,-1.7254,-1.7021,-3.2398,-3.1351,-3.0391,-2.9994,-2.9994,-2.9994,-2.9994,-2.9994,-2.9994,-2.9994,-2.9994,-2.9994,-2.9994,-2.9994,-2.9994,-2.9994,-2.9994,-2.9994,-2.9889,-2.9784,-2.9679,-2.929,-2.9166,-2.9112,-2.8725,-2.8472,-2.8496,-2.8423,-2.8087,-2.7241,-2.6518,-2.6808,-2.5845,-2.5003,-2.5113,-2.4078,-2.3087,-2.2934,-2.193,-2.1375,-2.1318,-2.1203,-2.1203,-2.1203,-2.1203,-2.1203,-2.1174,-2.1028,-2.0958,-2.0773,-2.0487,-2.0088,-1.9798,-1.9581,-1.9506,-1.9457,-1.9466,-1.9559,-1.9639,-1.98,-1.9973,-2.008,-2.0254,-2.0414,-2.0468,-2.0174,-2.0214,-2.0628,-2.0762,-2.0895,-2.0895,-2.0895,-2.0909,-2.1015,-2.1056,-2.1082,-2.1109,-2.1109,-2.1109,-2.1046,-2.0919,-2.0792,-2.0539,-2.0412,-2.003,-1.9584,-1.9328,-1.92,-1.9136,-1.9136,-1.9136,-1.9136,-1.9136,-1.9136,-1.9136,-1.9136,-1.9136,-1.9136,-1.9136,-1.9136,-1.9136,-1.9136,-1.9136,-1.9136,-1.9136,-1.9124,-1.9124,-1.9136,-1.9136,-1.896,-1.878,-1.8623,-1.8173,-1.7711,-1.7367,-3.3993,-3.275,-3.0858,-2.9994,-2.9994,-2.9994,-2.9994,-2.9994,-2.9994,-2.9994,-2.9994,-2.9994,-2.9994,-2.9994,-2.9994,-2.9994,-2.9994,-2.9994,-2.9837,-2.9764,-2.9711,-2.9448,-2.9172,-2.8933,-2.8779,-2.8525,-2.8398,-2.8379,-2.8247,-2.753,-2.7295,-2.7672,-2.6898,-2.5735,-2.5735,-2.4855,-2.3743,-2.3592,-2.2862,-2.1873,-2.1546,-2.1261,-2.1203,-2.1203,-2.1203,-2.1203,-2.1203,-2.1262,-2.1262,-2.1148,-2.0945,-2.0669,-2.0378,-2.0186,-1.9938,-1.9875,-1.9878,-1.9899,-1.9907,-2.012,-2.0227,-2.0361,-2.0588,-2.0722,-2.0775,-2.0802,-2.0842,-2.0909,-2.1042,-2.1096,-2.1082,-2.1082,-2.1096,-2.1109,-2.1109,-2.1122,-2.1122,-2.1122,-2.1122,-2.1122,-2.1059,-2.0932,-2.0806,-2.0679,-2.031,-1.9851,-1.9532,-1.9392,-1.92,-1.9136,-1.9136,-1.9136,-1.9136,-1.9136,-1.9072,-1.9096,-1.9096,-1.9136,-1.9136,-1.9136,-1.9136,-1.9136,-1.9136,-1.9136,-1.9136,-1.916,-1.9148,-1.9136,-1.9136,-1.9096,-1.9008,-1.8816,-1.8366,-1.7916,-1.7594,-3.3624,-3.1768,-3.0547,-2.9994,-2.9994,-2.9994,-2.9994,-2.9994,-2.9994,-2.9994,-2.9994,-2.9994,-2.9994,-2.9994,-2.9994,-2.9994,-2.9994,-2.9994,-2.9994,-2.9942,-2.9889,-2.9679,-2.9404,-2.9173,-2.9164,-2.8849,-2.8437,-2.832,-2.8301,-2.8014,-2.796,-2.8121,-2.8121,-2.7565,-2.7457,-2.6463,-2.5441,-2.5072,-2.4368,-2.3432,-2.256,-2.2105,-2.1275,-2.1203,-2.1203,-2.1203,-2.1262,-2.1481,-2.1569,-2.1613,-2.1612,-2.1448,-2.1225,-2.0959,-2.0722,-2.0424,-2.0487,-2.0361,-2.0422,-2.0563,-2.0609,-2.0615,-2.0815,-2.0962,-2.0989,-2.0989,-2.1015,-2.1015,-2.1096,-2.1096,-2.1096,-2.1096,-2.1109,-2.1122,-2.1122,-2.1149,-2.1162,-2.1189,-2.1216,-2.1203,-2.1139,-2.1139,-2.1062,-2.0884,-2.0605,-2.0144,-1.9836,-1.9631,-1.9309,-1.9197,-1.912,-1.9132,-1.9145,-1.9072,-1.9084,-1.9132,-1.9132,-1.9096,-1.9108,-1.9169,-1.9169,-1.9148,-1.9084,-1.9277,-1.9193,-1.9197,-1.9185,-1.9205,-1.9132,-1.9145,-1.9096,-1.8944,-1.8507,-1.8197,-1.7821]},{"header":{"parameterUnit":"m.s-1","parameterCategory":1,"la1":31.0,"la2":29.5877,"lo1":-88.7671,"lo2":-86.6584,"dy":0.0162,"dx":0.0185,"nx":115,"ny":88,"refTime":"2026-04-10T12:00:00:Z","depth":0,"parameterNumber":3,"parameterNumberName":"V-component_of_WINDS"},"data":[0.0,0.0,0.0,0.0,0.0,0.0,0.0,0.0,0.0,0.0,0.0,0.0,0.0,0.0,0.0,0.0,0.0,0.0,0.0,0.0,0.0,0.0,0.0,0.0,0.0,0.0,0.0,0.0,0.0,0.0,0.0,0.0,0.0,0.0,0.0,0.0,0.0,0.0,0.0,0.0,0.0,0.0,0.0,0.0,0.0,0.0,0.0,0.0,0.0,0.0,0.0,0.0,0.0,0.0,0.0,0.0,0.0,0.0,0.0,0.0,0.0,0.0,0.0,0.0,0.0,0.0,0.0,0.0,0.0,0.0,0.0,0.0,0.0,0.0,0.0,0.0,0.0,0.0,0.0,0.0,0.0,0.0,0.0,0.0,0.0,0.0,0.0,0.0,0.0,0.0,0.0,0.0,0.0,0.0,0.0,0.0,0.0,0.0,0.0,0.0,0.0,0.0,0.0,0.0,0.0,0.0,0.0,0.0,0.0,0.0,0.0,0.0,0.0,0.0,0.0,0.0,0.0,0.0,0.0,0.0,0.0,0.0,0.0,0.0,0.0,0.0,0.0,0.0,0.0,0.0,0.0,0.0,0.0,0.0,0.0,0.0,0.0,0.0,0.0,0.0,0.0,0.0,0.0,0.0,0.0,0.0,0.0,0.0,0.0,0.0,0.0,0.0,0.0,0.0,0.0,0.0,0.0,0.0,0.0,0.0,0.0,0.0,0.0,0.0,0.0,0.0,0.0,0.0,0.0,0.0,0.0,0.0,0.0,0.0,0.0,0.0,0.0,0.0,0.0,0.0,0.0,0.0,0.0,0.0,0.0,0.0,0.0,0.0,0.0,0.0,0.0,0.0,0.0,0.0,0.0,0.0,0.0,0.0,0.0,0.0,0.0,0.0,0.0,0.0,0.0,0.0,0.0,0.0,0.0,0.0,0.0,0.0,0.0,0.0,0.0,0.0,0.0,0.0,0.0,0.0,0.0,0.0,0.0,0.0,0.0,0.0,0.0,0.0,0.0,0.0,0.0,0.0,0.0,0.0,0.0,0.0,0.0,0.0,0.0,0.0,0.0,0.0,0.0,0.0,0.0,0.0,0.0,0.0,0.0,0.0,0.0,0.0,0.0,0.0,0.0,0.0,0.0,0.0,0.0,0.0,0.0,0.0,0.0,0.0,0.0,0.0,0.0,0.0,0.0,0.0,0.0,0.0,0.0,0.0,0.0,0.0,0.0,0.0,0.0,0.0,0.0,0.0,0.0,0.0,0.0,0.0,0.0,0.0,0.0,0.0,0.0,0.0,0.0,0.0,0.0,0.0,0.0,0.0,0.0,0.0,0.0,0.0,0.0,0.0,0.0,0.0,0.0,0.0,0.0,0.0,0.0,0.0,0.0,0.0,0.0,0.0,0.0,0.0,0.0,0.0,0.0,0.0,0.0,0.0,0.0,0.0,0.0,0.0,0.0,0.0,0.0,0.0,0.0,0.0,0.0,0.0,0.0,0.0,0.0,0.0,0.0,0.0,0.0,0.0,0.0,0.0,0.0,0.0,0.0,0.0,0.0,0.0,0.0,0.0,0.0,0.0,0.0,0.0,0.0,0.0,0.0,0.0,0.0,0.0,0.0,0.0,0.0,0.0,0.0,0.0,0.0,0.0,0.0,0.0,0.0,0.0,0.0,0.0,0.0,0.0,0.0,0.0,0.0,0.0,0.0,0.0,0.0,0.0,0.0,0.0,0.0,0.0,0.0,0.0,0.0,0.0,0.0,0.0,0.0,0.0,0.0,0.0,0.0,0.0,0.0,0.0,0.0,0.0,0.0,0.0,0.0,0.0,0.0,0.0,0.0,0.0,0.0,0.0,0.0,0.0,0.0,0.0,0.0,0.0,0.0,0.0,0.0,0.0,0.0,0.0,0.0,0.0,0.0,0.0,0.0,0.0,0.0,0.0,0.0,0.0,0.0,0.0,0.0,0.0,0.0,0.0,0.0,0.0,0.0,0.0,0.0,0.0,0.0,0.0,0.0,0.0,0.0,0.0,0.0,0.0,0.0,0.0,0.0,0.0,0.0,0.0,0.0,0.0,0.0,0.0,0.0,0.0,0.0,0.0,0.0,0.0,0.0,0.0,0.0,0.0,0.0,0.0,0.0,0.0,0.0,0.0,0.0,0.0,0.0,0.0,0.0,0.0,0.0,0.0,0.0,0.0,0.0,0.0,0.0,0.0,0.0,0.0,0.0,0.0,0.0,0.0,0.0,0.0,0.0,0.0,0.0,0.0,0.0,0.0,0.0,0.0,0.0,0.0,0.0,0.0,0.0,0.0,0.0,0.0,0.0,0.0,0.0,0.0,0.0,0.0,0.0,0.0,0.0,0.0,0.0,0.0,0.0,0.0,0.0,0.0,0.0,0.0,0.0,0.0,0.0,0.0,0.0,0.0,0.0,0.0,0.0,0.0,0.0,0.0,0.0,0.0,0.0,0.0,0.0,0.0,0.0,0.0,0.0,0.0,0.0,0.0,0.0,0.0,0.0,0.0,0.0,0.0,0.0,0.0,0.0,0.0,0.0,0.0,0.0,0.0,0.0,0.0,0.0,0.0,0.0,0.0,0.0,0.0,0.0,0.0,0.0,0.0,0.0,0.0,0.0,0.0,0.0,0.0,0.0,0.0,0.0,0.0,0.0,0.0,0.0,0.0,0.0,0.0,0.0,0.0,0.0,0.0,0.0,0.0,0.0,0.0,0.0,0.0,0.0,0.0,0.0,0.0,0.0,0.0,0.0,0.0,0.0,0.0,0.0,0.0,0.0,0.0,0.0,0.0,0.0,0.0,0.0,0.0,0.0,0.0,0.0,0.0,0.0,0.0,0.0,0.0,0.0,0.0,0.0,0.0,0.0,0.0,0.0,0.0,0.0,0.0,0.0,0.0,0.0,0.0,0.0,0.0,0.0,0.0,0.0,0.0,0.0,0.0,0.0,0.0,0.0,0.0,0.0,0.0,0.0,0.0,0.0,0.0,0.0,0.0,0.0,0.0,0.0,0.0,0.0,0.0,0.0,0.0,0.0,0.0,0.0,0.0,0.0,0.0,0.0,0.0,0.0,0.0,0.0,0.0,0.0,0.0,0.0,0.0,0.0,0.0,0.0,0.0,0.0,0.0,0.0,0.0,0.0,0.0,0.0,0.0,0.0,0.0,0.0,0.0,0.0,0.0,0.0,0.0,0.0,0.0,0.0,0.0,0.0,0.0,0.0,0.0,0.0,0.0,0.0,0.0,0.0,0.0,0.0,0.0,0.0,0.0,0.0,0.0,0.0,0.0,0.0,0.0,0.0,0.0,0.0,0.0,0.0,0.0,0.0,0.0,0.0,0.0,0.0,0.0,0.0,0.0,0.0,0.0,0.0,0.0,0.0,0.0,0.0,0.0,0.0,0.0,0.0,0.0,0.0,0.0,0.0,0.0,0.0,0.0,0.0,0.0,0.0,0.0,0.0,0.0,0.0,0.0,0.0,0.0,0.0,0.0,0.0,0.0,0.0,0.0,0.0,0.0,0.0,0.0,0.0,0.0,0.0,0.0,0.0,0.0,0.0,0.0,0.0,0.0,0.0,0.0,0.0,0.0,0.0,0.0,0.0,0.0,0.0,0.0,0.0,0.0,0.0,0.0,0.0,0.0,0.0,0.0,0.0,0.0,0.0,0.0,0.0,0.0,0.0,0.0,0.0,0.0,0.0,0.0,0.0,0.0,0.0,0.0,0.0,0.0,0.0,0.0,0.0,0.0,0.0,0.0,0.0,0.0,0.0,0.0,0.0,0.0,0.0,0.0,0.0,0.0,0.0,0.0,0.0,0.0,0.0,0.0,0.0,0.0,0.0,0.0,0.0,0.0,0.0,0.0,0.0,0.0,0.0,0.0,0.0,0.0,0.0,0.0,0.0,0.0,0.0,0.0,0.0,0.0,0.0,0.0,0.0,0.0,0.0,0.0,0.0,0.0,0.0,0.0,0.0,0.0,0.0,0.0,0.0,0.0,0.0,0.0,0.0,0.0,0.0,0.0,0.0,0.0,0.0,0.0,0.0,0.0,0.0,0.0,0.0,0.0,0.0,0.0,0.0,0.0,0.0,0.0,0.0,0.0,0.0,0.0,0.0,0.0,0.0,0.0,0.0,0.0,0.0,0.0,0.0,0.0,0.0,0.0,0.0,0.0,0.0,0.0,0.0,0.0,0.0,0.0,0.0,0.0,0.0,0.0,0.0,0.0,0.0,0.0,0.0,0.0,0.0,0.0,0.0,0.0,0.8978,0.0,0.0,0.0,0.0,0.0,0.0,0.0,0.0,0.0,0.0,0.0,0.0,0.0,0.0,0.0,0.0,0.0,0.0,0.0,0.0,0.0,0.0,0.0,0.0,0.0,0.0,0.0,0.0,0.0,0.0,0.0,0.0,0.0,0.0,0.0,0.0,0.0,0.0,0.0,0.0,0.0,0.0,0.0,0.0,0.0,0.0,0.0,0.0,0.0,0.0,0.0,0.0,0.0,0.0,0.0,0.0,0.0,0.0,0.0,0.0,0.0,0.0,0.0,0.0,0.0,0.0,0.0,0.0,0.0,0.0,0.0,0.0,0.0,0.0,0.0,0.0,0.0,0.0,0.0,0.0,0.0,0.0,0.0,0.0,0.0,0.0,0.0,0.0,0.0,0.0,0.0,0.0,0.0,0.0,0.0,0.0,0.0,0.0,0.0,0.0,0.0,0.0,0.0,0.0,0.0,0.0,0.0,0.0,0.0,0.0,1.0311,1.0312,0.9922,0.9686,0.9679,0.0,0.0,0.0,0.0,0.0,0.0,0.0,0.0,0.0,0.0,0.0,0.0,0.0,0.0,0.0,0.0,0.0,0.0,0.0,0.0,0.0,0.0,0.0,0.0,0.0,0.0,0.0,0.0,0.0,0.0,0.0,0.0,0.0,0.0,0.0,0.0,0.0,0.0,0.0,0.0,0.0,0.0,0.0,0.0,0.0,0.0,0.0,0.0,0.0,0.0,0.0,0.0,0.0,0.0,0.0,0.0,0.0,0.0,0.0,0.0,0.0,0.0,0.0,0.0,0.0,0.0,0.0,0.0,0.0,0.0,0.0,0.0,0.0,0.0,0.0,0.0,0.0,0.0,0.0,0.0,0.0,0.0,0.0,0.0,0.0,0.0,0.0,0.0,0.0,0.0,0.0,0.0,0.0,0.0,0.0,0.0,0.0,0.0,0.0,0.0,0.0,0.0,0.0,0.0,0.0,0.0,0.0,0.0,0.0,0.0,0.0,0.0,1.0312,1.0271,1.0219,0.0,0.0,0.0,0.0,0.0,0.0,0.0,0.0,0.0,0.0,0.0,0.0,0.0,0.0,0.0,0.0,0.0,0.0,0.0,0.0,0.0,0.0,0.0,0.0,0.0,0.0,0.0,0.0,0.0,0.0,0.0,0.0,0.0,0.0,0.0,0.0,0.0,0.0,0.0,0.0,0.0,0.0,0.0,0.0,0.0,0.0,0.0,0.0,0.0,0.0,0.0,0.0,0.0,0.0,0.0,0.0,0.0,0.0,0.0,0.0,0.0,0.0,0.0,0.0,0.0,0.0,0.0,0.0,0.0,0.0,0.0,0.0,0.0,0.0,0.0,0.0,0.0,0.0,0.0,0.0,0.0,0.0,0.0,0.0,0.0,0.0,0.0,0.0,0.0,0.0,0.0,0.0,0.0,0.0,0.0,0.0,0.0,0.0,0.0,0.0,0.0,0.0,0.0,0.0,0.0,0.0,0.0,0.0,0.0,0.0,1.0312,1.0312,1.0312,0.0,1.0208,0.0,0.0,0.0,0.0,0.0,0.0,0.0,0.0,0.0,0.0,0.0,0.0,0.0,0.0,0.0,0.0,0.0,0.0,0.0,0.0,0.0,0.0,0.0,0.0,0.0,0.0,0.0,0.0,0.0,0.0,0.0,0.0,0.0,0.0,0.0,0.0,0.0,0.0,0.0,0.0,0.0,0.0,0.0,0.0,0.0,0.0,0.0,0.0,0.0,0.0,0.0,0.0,0.0,0.0,0.0,0.0,0.0,0.0,0.0,0.0,0.0,0.0,0.0,0.0,0.0,0.0,0.0,0.0,0.0,0.0,0.0,0.0,0.0,0.0,0.0,0.0,0.0,0.0,0.0,0.0,0.0,0.0,0.0,0.0,0.0,0.0,0.0,0.0,0.0,0.0,0.0,0.0,0.0,0.0,0.0,0.0,0.0,0.0,0.0,0.0,0.0,0.0,0.0,0.0,0.0,0.0,0.0,0.0,0.0,0.0,0.0,1.0312,1.0311,1.0264,0.0,0.0,0.0,0.0,0.0,0.0,0.0,0.0,0.0,0.0,0.0,0.0,0.0,0.0,0.0,0.0,0.0,0.0,0.0,0.0,0.0,0.0,0.0,0.0,0.0,0.0,0.0,0.0,0.0,0.0,0.0,0.0,0.0,0.0,0.0,0.0,0.0,0.0,0.0,0.0,0.0,0.0,0.0,0.0,0.0,0.0,0.0,0.0,0.0,0.0,0.0,0.0,0.0,0.0,0.0,0.0,0.0,0.0,0.0,0.0,0.0,0.0,0.0,0.0,0.0,0.0,0.0,0.0,0.0,0.0,0.0,0.0,0.0,0.0,0.0,0.0,0.0,0.0,0.0,0.0,0.0,0.0,0.0,0.0,0.0,0.0,0.0,0.0,0.0,0.0,0.0,0.0,0.0,0.0,0.0,0.0,0.0,0.0,0.0,0.0,0.0,0.0,0.0,0.0,0.0,0.0,0.0,0.0,0.0,0.0,1.0312,0.0,1.0312,1.0309,1.0259,1.0199,0.0,0.0,0.0,0.0,0.0,0.0,0.0,0.0,0.0,0.0,0.0,0.0,0.0,0.0,0.0,0.0,0.0,0.0,0.0,0.0,0.0,0.0,0.0,0.0,0.0,0.0,0.0,0.0,0.0,0.0,0.0,0.0,0.0,0.0,0.0,0.0,0.0,0.0,0.0,0.0,0.0,0.0,0.0,0.0,0.0,0.0,0.0,0.0,0.0,0.0,0.0,0.0,0.0,0.0,0.0,0.0,0.0,0.0,0.0,0.0,0.0,0.0,0.0,0.0,0.0,0.0,0.0,0.0,0.0,0.0,0.0,0.0,0.0,0.0,0.0,0.0,0.0,0.0,0.0,0.0,0.0,0.0,0.0,0.0,0.0,0.0,0.0,0.0,0.0,0.0,0.0,0.0,0.0,0.0,0.0,0.0,0.0,0.0,0.0,0.0,0.0,0.0,0.0,0.0,0.0,0.0,0.0,0.0,0.0,1.0312,1.0312,1.0312,1.0309,1.0261,0.0,0.0,0.0,0.0,0.0,0.0,0.0,0.0,0.0,0.0,0.0,0.0,0.0,0.0,0.0,0.0,0.0,0.0,0.0,0.0,0.0,0.0,0.0,0.0,0.0,0.0,0.0,0.0,0.0,0.0,0.0,0.0,0.0,0.0,0.0,0.0,0.0,0.0,0.0,0.0,0.0,0.0,0.0,0.0,0.0,0.0,0.0,0.0,0.0,0.0,0.0,0.0,0.0,0.0,0.0,0.0,0.0,0.0,0.0,0.0,0.0,0.0,0.0,0.0,0.0,0.0,0.0,0.0,0.0,0.0,0.0,0.0,0.0,0.0,0.0,0.0,0.0,0.0,0.0,0.0,0.0,0.0,0.0,0.0,0.0,0.0,0.0,0.0,0.0,0.0,0.0,0.0,0.0,0.0,0.0,0.0,0.0,0.0,0.0,0.0,0.0,0.0,0.0,0.0,0.0,0.0,0.0,0.0,0.0,1.0312,1.0312,1.0312,1.031,1.0262,1.021,0.0,0.0,0.0,0.0,0.0,0.0,0.0,0.0,0.0,0.0,0.0,0.0,0.0,0.0,0.0,0.0,0.0,0.0,0.0,0.0,0.0,0.0,0.0,0.0,0.0,0.0,0.0,0.0,0.0,0.0,0.0,0.0,0.0,0.0,0.0,0.0,0.0,0.0,0.0,0.0,0.0,0.0,0.0,0.0,0.0,0.0,0.0,0.0,0.0,0.0,0.0,0.0,0.0,0.0,0.0,0.0,0.0,0.0,0.0,0.0,0.0,0.0,0.0,0.0,0.0,0.0,0.0,0.0,0.0,0.0,0.0,0.0,0.0,0.0,0.0,0.0,0.0,0.0,0.0,0.0,0.0,0.0,0.0,0.0,0.0,0.0,0.0,0.0,0.0,0.0,0.0,0.0,0.0,0.0,0.0,0.0,0.0,0.0,0.0,0.0,0.0,0.0,0.0,0.0,0.0,0.0,0.0,0.0,0.0,1.0312,0.0,1.0312,0.0,1.0217,1.02,0.0,0.0,0.0,0.0,0.0,0.0,0.0,0.0,0.0,0.0,0.0,0.0,0.0,0.0,0.0,0.0,0.0,0.0,0.0,0.0,0.0,0.0,0.0,0.0,0.0,0.0,0.0,0.0,0.0,0.0,0.0,0.0,0.0,0.0,0.0,0.0,0.0,0.0,0.0,0.0,0.0,0.0,0.0,0.0,0.0,0.0,0.0,0.0,0.0,0.0,0.0,0.0,0.0,0.0,0.0,0.0,0.0,0.0,0.0,0.0,0.0,0.0,0.0,0.0,0.0,0.0,0.0,0.0,0.0,0.0,0.0,0.0,0.0,0.0,0.0,0.0,0.0,0.0,0.0,0.0,0.0,0.0,0.0,0.0,0.0,0.0,0.0,0.0,0.0,0.0,0.0,0.0,0.0,0.0,0.0,0.0,0.0,0.0,0.0,0.0,0.0,0.0,0.0,0.0,0.0,0.0,0.0,0.0,1.0312,1.0312,1.0352,1.035,1.0305,1.0256,1.0201,0.0,0.0,0.0,0.0,0.0,0.0,0.0,0.0,0.0,0.0,0.0,0.0,0.0,0.0,0.0,0.0,0.0,0.0,0.0,0.0,0.0,0.0,0.0,0.0,0.0,0.0,0.0,0.0,0.0,0.0,0.0,0.0,0.0,0.0,0.0,0.0,0.0,0.0,0.0,0.0,0.0,0.0,0.0,0.0,0.0,0.0,0.0,0.0,0.0,0.0,0.0,0.0,0.0,0.0,0.0,0.0,0.0,0.0,0.0,0.0,0.0,0.0,0.0,0.0,0.0,0.0,0.0,0.0,0.0,0.0,0.0,0.0,0.0,0.0,0.0,0.0,0.0,0.0,0.0,0.0,0.0,0.0,0.0,0.0,0.0,0.0,0.0,0.0,0.0,0.0,0.0,0.0,0.0,0.0,0.0,0.0,0.0,0.0,0.0,0.0,0.0,0.0,0.0,0.0,0.0,0.0,0.0,0.0,0.0,1.0352,1.0858,1.1124,1.1105,1.0508,1.0484,0.0,0.0,0.0,0.0,0.0,0.0,0.0,0.0,0.0,0.0,0.0,0.0,0.0,0.0,0.0,0.0,0.0,0.0,0.0,0.0,0.0,0.0,0.0,0.0,0.0,0.0,0.0,0.0,0.0,0.0,0.0,0.0,0.0,0.0,0.0,0.0,0.0,0.0,0.0,0.0,0.0,0.0,0.0,0.0,0.0,0.0,0.0,0.0,0.0,0.0,0.0,0.0,0.0,0.0,0.0,0.0,0.0,0.0,0.0,0.0,0.0,0.0,0.0,0.0,0.0,0.0,0.0,0.0,0.0,0.0,0.0,0.0,0.0,0.0,0.0,0.0,0.0,0.0,0.0,0.0,0.0,0.0,0.0,0.0,0.0,0.0,0.0,0.0,0.0,0.0,0.0,0.0,0.0,0.0,0.0,0.0,0.0,0.0,0.0,0.0,0.0,0.0,0.0,0.0,0.0,0.0,0.0,0.0,0.0,1.1327,1.1752,1.1818,1.1522,1.0959,1.0775,1.0935,0.0,0.0,0.0,0.0,0.0,0.0,0.0,0.0,0.0,0.0,0.0,0.0,0.0,0.0,0.0,0.0,0.0,0.0,0.0,0.0,0.0,0.0,0.0,0.0,0.0,0.0,0.0,0.0,0.0,0.0,0.0,0.0,0.0,0.0,0.0,0.0,0.0,0.0,0.0,0.0,0.0,0.0,0.0,0.0,0.0,0.0,0.0,0.0,0.0,0.0,0.0,0.0,0.0,0.0,0.0,0.0,0.0,0.0,0.0,0.0,0.0,0.0,0.0,0.0,0.0,0.0,0.0,0.0,0.0,0.0,0.0,0.0,0.0,0.0,0.0,0.0,0.0,0.0,0.0,0.0,0.0,0.0,0.0,0.0,0.0,0.0,0.0,0.0,0.0,0.0,0.0,0.0,0.0,0.0,0.0,0.0,0.0,0.0,0.0,0.0,0.0,0.0,0.0,0.0,0.0,0.0,0.0,0.0,1.2887,1.2915,1.2553,1.1682,1.1534,1.1118,0.0,0.0,0.0,0.0,0.0,0.0,0.0,0.0,0.0,0.0,0.0,0.0,0.0,0.0,0.0,0.0,0.0,0.0,0.0,0.0,0.0,0.0,0.0,0.0,0.0,0.0,0.0,0.0,0.0,0.0,0.0,0.0,0.0,0.0,0.0,0.0,0.0,0.0,0.0,0.0,0.0,0.0,0.0,0.0,0.0,0.0,0.0,0.0,0.0,0.0,0.0,0.0,0.0,0.0,0.0,0.0,0.0,0.0,0.0,0.0,0.0,0.0,0.0,0.0,0.0,0.0,0.0,0.0,0.0,0.0,0.0,0.0,0.0,0.0,0.0,0.0,0.0,0.0,0.0,0.0,0.0,0.0,0.0,0.0,0.0,0.0,0.0,0.0,0.0,0.0,0.0,0.0,0.0,0.0,0.0,0.0,0.0,0.0,0.0,0.0,0.0,0.0,0.0,0.0,0.0,0.0,0.0,0.0,0.0,1.2869,1.4019,1.4237,1.3368,1.2092,1.1643,0.0,0.0,0.0,0.0,0.0,0.0,0.0,0.0,0.0,0.0,0.0,0.0,0.0,0.0,0.0,0.0,0.0,0.0,0.0,0.0,0.0,0.0,0.0,0.0,0.0,0.0,0.0,0.0,0.0,0.0,0.0,0.0,0.0,0.0,0.0,0.0,0.0,0.0,0.0,0.0,0.0,0.0,0.0,0.0,0.0,0.0,0.0,0.0,0.0,0.0,0.0,0.0,0.0,0.0,0.0,0.0,0.0,0.0,0.0,0.0,0.0,0.0,0.0,0.0,0.0,0.0,0.0,0.0,0.0,0.0,0.0,0.0,0.0,0.0,0.0,0.0,0.0,0.0,0.0,0.0,0.0,0.0,0.0,0.0,0.0,0.0,0.0,0.0,0.0,0.0,0.0,0.0,0.0,0.0,0.0,0.0,0.0,0.0,0.0,0.0,0.0,0.0,0.0,0.0,0.0,0.0,0.0,0.0,1.3116,1.3855,1.4801,1.5055,1.4543,1.3567,1.2745,0.0,0.0,0.0,0.0,0.0,0.0,0.0,0.0,0.0,0.0,0.0,0.0,0.0,0.0,0.0,0.0,0.0,0.0,0.0,0.0,0.0,0.0,0.0,0.0,0.0,0.0,0.0,0.0,0.0,0.0,0.0,0.0,0.0,0.0,0.0,0.0,0.0,0.0,0.0,0.0,0.0,0.0,0.0,0.0,0.0,0.0,0.0,0.0,0.0,0.0,0.0,0.0,0.0,0.0,0.0,0.0,0.0,0.0,0.0,0.0,0.0,0.0,0.0,0.0,0.0,0.0,0.0,0.0,0.0,0.0,0.0,0.0,0.0,0.0,0.0,0.0,0.0,0.0,0.0,0.0,0.0,0.0,0.0,0.0,0.0,0.0,0.0,0.0,0.0,0.0,0.0,0.0,0.0,0.0,0.0,0.0,0.0,0.0,0.0,0.0,0.0,0.0,0.0,0.0,0.0,0.0,0.0,0.0,1.3644,1.5258,1.5306,1.5321,1.5393,1.5196,1.4044,0.0,0.0,0.0,0.0,0.0,0.0,0.0,0.0,0.0,0.0,0.0,0.0,0.0,0.0,0.0,0.0,0.0,0.0,0.0,0.0,0.0,0.0,0.0,0.0,0.0,0.0,0.0,0.0,0.0,0.0,0.0,0.0,0.0,0.0,0.0,0.0,0.0,0.0,0.0,0.0,0.0,0.0,0.0,0.0,0.0,0.0,0.0,0.0,0.0,0.0,0.0,0.0,0.0,0.0,0.0,0.0,0.0,0.0,0.0,0.0,0.0,0.0,0.0,0.0,0.0,0.0,0.0,0.0,0.0,0.0,0.0,0.0,0.0,0.0,0.0,0.0,0.0,0.0,0.0,0.0,0.0,0.0,0.0,0.0,0.0,0.0,0.0,0.0,0.0,0.0,0.0,0.0,0.0,0.0,0.0,0.0,0.0,0.0,0.0,0.0,0.0,0.0,0.0,0.0,0.0,0.0,0.0,0.0,1.4203,1.5202,1.5284,1.561,1.622,1.4902,1.3944,0.0,0.0,0.0,0.0,0.0,0.0,0.0,0.0,0.0,0.0,0.0,0.0,0.0,0.0,0.0,0.0,0.0,0.0,0.0,0.0,0.0,0.0,0.0,0.0,0.0,0.0,0.0,0.0,0.0,0.0,0.0,0.0,0.0,0.0,0.0,0.0,0.0,0.0,0.0,0.0,0.0,0.0,0.0,0.0,0.0,0.0,0.0,0.0,1.0948,0.0,0.0,0.0,0.0,0.0,0.0,0.0,0.0,0.0,0.0,0.0,0.0,0.0,0.0,0.0,0.0,0.0,0.0,0.0,0.0,0.0,0.0,0.0,0.0,0.0,0.0,0.0,0.0,0.0,0.0,0.0,0.0,0.0,0.0,0.0,0.0,0.0,0.0,0.0,0.0,0.0,0.0,0.0,0.0,0.0,0.0,0.0,0.0,0.0,0.0,0.0,0.0,0.0,0.0,0.0,0.0,0.0,0.0,0.0,1.497,1.5769,1.6204,1.6463,1.6468,1.5621,1.4782,0.0,0.0,0.0,0.0,0.0,0.0,0.0,0.0,0.0,0.0,0.0,0.0,0.0,0.0,0.0,0.0,0.0,0.0,0.0,0.0,0.0,0.0,0.0,0.0,0.0,0.0,0.0,0.0,0.0,0.0,0.0,0.0,0.0,0.0,0.0,0.0,0.0,0.0,0.0,0.0,0.0,0.0,0.0,0.0,0.0,0.0,0.0,0.0,0.0,0.0,0.0,0.0,0.0,0.0,0.0,0.0,0.0,0.0,0.0,0.0,0.0,0.0,0.0,0.0,0.0,0.0,0.0,0.0,0.0,0.0,0.0,0.0,0.0,0.0,0.0,0.0,0.0,0.0,0.0,0.0,0.0,0.0,0.0,0.0,0.0,0.0,0.0,0.0,0.0,0.0,0.0,0.0,0.0,0.0,0.0,0.0,0.0,0.0,0.0,0.0,0.0,0.0,0.0,0.0,0.0,0.0,0.0,1.4426,1.5657,1.666,1.7353,1.743,1.6891,1.6734,1.5959,1.4439,0.0,0.0,0.0,0.0,0.0,0.0,0.0,0.0,0.0,0.0,0.0,0.0,0.0,0.0,0.0,0.0,0.0,0.0,0.0,0.0,0.0,0.0,0.0,0.0,0.0,0.0,0.0,0.0,0.0,0.0,0.0,0.0,0.0,0.0,0.0,0.0,0.0,0.0,0.945,1.0971,0.0,0.0,0.0,0.0,0.0,0.0,0.0,0.0,1.1451,0.0,0.0,0.0,0.0,0.0,0.0,0.0,0.0,0.0,0.0,0.0,0.0,0.0,0.0,0.0,0.0,0.0,0.0,0.0,0.0,0.0,0.0,0.0,0.0,0.0,0.0,0.0,0.0,0.0,0.0,0.0,0.0,0.0,0.0,0.0,0.0,0.0,0.0,0.0,0.0,0.0,0.0,0.0,0.0,0.0,0.0,0.0,0.0,0.0,0.0,0.0,0.0,0.0,0.0,0.0,0.0,1.369,1.4689,1.5962,1.7468,1.7622,1.7968,1.8549,1.7891,1.7047,1.6077,0.0,0.0,0.0,0.0,0.0,0.0,0.0,0.0,0.0,0.0,0.0,0.0,0.0,0.0,0.0,0.0,0.0,0.0,0.0,0.0,0.0,0.0,0.0,0.0,0.0,0.0,0.0,0.0,0.0,0.0,0.0,0.0,0.0,0.0,0.0,0.0,0.0,0.0,0.0,1.4422,1.5205,0.0,0.0,0.0,0.0,0.0,0.0,0.0,0.0,1.1787,0.0,0.0,0.0,0.0,0.0,0.0,0.0,0.0,0.0,0.0,0.0,0.0,0.0,0.0,0.0,0.0,0.0,0.0,0.0,0.0,0.0,0.0,0.0,0.0,0.0,0.0,0.0,0.0,0.0,0.0,0.0,0.0,0.0,0.0,0.0,0.0,0.0,0.0,0.0,0.0,0.0,0.0,0.0,0.0,0.0,0.0,0.0,0.0,0.0,0.0,0.0,0.0,0.0,0.0,0.0,1.3918,1.5615,1.7077,1.835,1.8811,1.9046,1.8972,1.8168,1.7374,0.0,0.0,0.0,0.0,0.0,0.0,0.0,0.0,0.0,0.0,0.0,0.0,0.0,0.0,0.0,0.0,0.0,0.0,0.0,0.0,0.0,0.0,0.0,0.0,0.0,0.0,0.0,0.0,0.0,0.0,0.0,0.0,0.0,0.0,0.0,0.0,0.0,0.0,0.0,0.0,1.4494,1.5175,1.5617,0.0,0.0,0.0,0.0,0.0,0.0,1.3401,1.3027,0.0,0.0,0.0,0.0,0.0,0.0,0.0,0.0,0.0,0.0,0.0,0.0,0.0,0.0,0.0,0.0,0.0,0.0,0.0,0.0,0.0,0.0,0.0,0.0,0.0,0.0,0.0,0.0,0.0,0.0,0.0,0.0,0.0,0.0,0.0,0.0,0.0,0.0,0.0,0.0,0.0,0.0,0.0,0.0,0.0,0.0,0.0,0.0,0.0,0.0,0.0,0.0,0.0,0.0,0.0,1.3915,1.6234,1.7968,1.9,1.9846,1.9965,1.928,1.8637,1.7854,0.0,0.0,0.0,0.0,0.0,0.0,0.0,0.0,0.0,0.0,0.0,0.0,0.0,0.0,0.0,0.0,0.0,0.0,0.0,0.0,0.0,0.0,0.0,0.0,0.0,0.0,0.0,0.0,0.0,0.0,0.0,0.0,0.0,0.0,0.0,0.0,0.0,0.0,0.0,0.0,0.0,1.5407,1.6417,1.5415,0.0,0.0,0.0,0.0,1.5631,1.5114,0.0,0.0,0.0,0.0,0.0,0.0,0.0,0.0,0.0,0.0,0.0,0.0,0.0,0.0,0.0,0.0,0.0,0.0,0.0,0.0,0.0,0.0,0.0,0.0,0.0,0.0,0.0,0.0,0.0,0.0,0.0,0.0,0.0,0.0,0.0,0.0,0.0,0.0,0.0,0.0,0.0,0.0,0.0,0.0,0.0,0.0,0.0,0.0,0.0,0.0,0.0,0.0,0.0,0.0,0.0,0.0,1.3918,1.5695,1.7391,1.8934,1.985,2.0269,2.0158,2.0061,1.9281,0.0,0.0,0.0,0.0,0.0,0.0,0.0,0.0,0.0,0.0,0.0,0.0,0.0,0.0,0.0,0.0,0.0,0.0,0.0,0.0,0.0,0.0,0.0,0.0,0.0,0.0,0.0,0.0,0.0,0.0,0.0,0.0,0.0,0.0,0.0,0.0,0.0,0.0,0.0,0.0,0.0,1.8811,1.7631,1.7229,1.7106,0.0,0.0,0.0,1.82,1.7716,0.0,0.0,0.0,0.0,0.0,0.0,0.0,0.0,0.0,0.0,0.0,0.0,0.0,0.0,0.0,0.0,0.0,0.0,0.0,0.0,0.0,0.0,0.0,0.0,0.0,0.0,0.0,0.0,0.0,0.0,0.0,0.0,0.0,0.0,0.0,0.0,0.0,0.0,0.0,0.0,0.0,0.0,0.0,0.0,0.0,0.0,0.0,0.0,0.0,0.0,0.0,0.0,0.0,0.0,0.0,1.2964,1.4615,1.6311,1.8007,1.9658,2.0115,2.0312,2.0289,1.9834,1.8808,0.0,0.0,0.0,0.0,0.0,0.0,0.0,0.0,0.0,0.0,0.0,0.0,0.0,0.0,0.0,0.0,0.0,0.0,0.0,0.0,0.0,0.0,0.0,0.0,0.0,0.0,0.0,0.0,0.0,0.0,0.0,0.0,0.0,0.0,0.0,0.0,0.0,0.0,0.0,0.0,0.0,0.0,1.9739,1.893,0.0,0.0,0.0,1.9401,2.0116,0.0,0.0,0.0,0.0,0.0,0.0,0.0,0.0,0.0,0.0,0.0,0.0,0.0,0.0,0.0,0.0,0.0,0.0,0.0,0.0,0.0,0.0,0.0,0.0,0.0,0.0,0.0,0.0,0.0,0.0,0.0,0.0,0.0,0.0,0.0,0.0,0.0,0.0,0.0,0.0,0.0,0.0,0.0,0.0,0.0,0.0,0.0,0.0,0.0,0.0,0.0,0.0,0.0,0.0,0.0,0.0,0.0,1.5192,1.6853,1.8546,2.0231,2.0308,2.0277,2.03,1.9452,0.0,0.0,0.0,0.0,0.0,0.0,0.0,0.0,0.0,0.0,0.0,0.0,0.0,0.0,0.0,0.0,0.0,0.0,0.0,0.0,0.0,0.0,0.0,0.0,0.0,0.0,0.0,0.6628,0.0,0.0,0.0,0.0,0.0,0.0,0.0,0.0,0.0,0.0,0.0,0.0,0.0,0.0,1.8227,2.0912,2.0423,2.0363,0.0,0.0,2.1689,2.1907,2.1412,2.0459,0.0,0.0,0.0,0.0,0.0,0.0,0.0,0.0,0.0,0.0,0.0,0.0,0.0,0.0,0.0,0.0,0.0,0.0,0.0,0.0,0.0,0.0,0.0,0.0,0.0,0.0,0.0,0.0,0.0,0.0,0.0,0.0,0.0,0.0,0.0,0.0,0.0,0.0,0.0,0.0,0.0,0.0,0.0,0.0,0.0,0.0,0.0,0.0,0.0,0.0,0.0,0.0,0.0,0.0,0.0,1.5192,1.6853,1.8542,2.0231,2.0308,2.0277,2.0265,1.9452,1.822,0.0,0.0,0.0,0.0,0.0,0.0,0.0,0.0,0.0,0.0,0.0,0.0,0.0,0.0,0.0,0.0,0.0,0.0,0.0,0.0,0.0,0.0,0.0,0.0,0.0,0.0,0.0,0.0,0.0,0.0,0.0,0.0,0.0,0.0,0.0,0.0,0.0,0.0,0.0,0.0,0.0,1.9848,2.0154,2.1439,2.2576,0.0,0.0,2.2773,2.3602,2.3678,2.2522,1.9316,0.0,0.0,0.0,0.0,0.0,0.0,0.0,0.0,0.0,0.0,0.0,0.0,0.0,0.0,0.0,0.0,0.0,0.0,0.0,0.0,0.0,0.0,0.0,0.0,0.0,0.0,0.0,0.0,0.0,0.0,0.0,0.0,0.0,0.0,0.0,0.0,0.0,0.0,0.0,0.0,0.0,0.0,0.0,0.0,0.0,0.0,0.0,0.0,0.0,0.0,0.0,0.0,0.0,1.3753,1.5965,1.7105,1.8528,2.0192,2.0308,2.0285,2.0283,1.9456,1.8239,0.0,0.0,0.0,0.0,0.0,0.0,0.0,0.0,0.0,0.0,0.0,0.0,0.0,0.0,0.0,0.0,0.0,0.0,0.0,0.0,0.0,0.0,0.0,0.0,0.0,0.0,0.0,0.0,0.9181,0.9694,0.9695,0.0,0.0,0.0,0.0,0.0,0.0,0.0,0.0,0.0,0.0,2.0857,2.2876,2.329,0.0,0.0,2.4287,2.4281,2.4645,2.3793,2.2479,2.069,1.9502,0.0,0.0,0.0,0.0,0.0,0.0,0.0,0.0,0.0,0.0,0.0,0.0,0.0,0.0,0.0,0.0,0.0,0.0,0.0,0.0,0.0,0.0,0.0,0.0,0.0,0.0,0.0,0.0,0.0,0.0,0.0,0.0,0.0,0.0,0.0,0.0,0.0,0.0,0.0,0.0,0.0,0.0,0.0,0.0,0.0,0.0,0.0,0.0,0.0,0.0,0.0,0.0,1.4131,1.642,1.7528,1.88,2.0269,2.0308,2.0289,2.0287,1.9487,1.8223,0.0,0.0,0.0,0.0,0.0,0.0,0.0,0.0,0.0,0.0,0.0,0.0,0.0,0.0,0.0,0.0,0.0,0.0,0.0,0.0,0.0,0.0,0.0,0.0,0.0,0.0,0.0,0.0,1.0375,1.0497,1.0265,0.0,0.0,0.0,0.0,0.0,0.0,0.0,0.0,0.0,0.0,2.199,2.4749,2.4656,2.4667,2.5581,2.5403,2.5246,2.5523,2.4547,2.3334,2.2005,0.0,0.0,0.0,0.0,0.0,0.0,0.0,0.0,0.0,0.0,0.0,0.0,0.0,0.0,0.0,0.0,0.0,0.0,0.0,0.0,0.0,0.0,0.0,0.0,0.0,0.0,0.0,0.0,0.0,0.0,1.1999,0.0,0.0,0.0,0.0,0.0,0.0,0.0,0.0,0.0,0.0,0.0,0.0,0.0,0.0,0.0,0.0,0.0,0.0,0.0,0.0,0.0,0.0,0.0,1.641,1.8154,1.9431,2.0308,2.0308,2.0319,2.0304,1.9484,1.8185,1.653,0.0,0.0,0.0,0.0,0.0,0.0,0.0,0.0,0.0,0.0,0.0,0.0,0.0,0.0,0.0,0.0,0.0,0.0,0.0,0.0,0.0,0.0,0.0,0.0,0.0,0.0,1.2562,1.1949,1.1177,0.0,0.0,0.0,0.0,0.0,0.0,0.0,0.0,0.0,0.0,2.1683,2.3364,2.5077,2.5283,2.5662,2.6802,2.5992,2.5497,2.6262,2.6381,2.559,0.0,0.0,0.0,0.0,0.0,0.0,0.0,0.0,0.0,0.0,0.0,0.0,0.0,0.0,0.0,0.0,0.0,0.0,0.0,0.0,0.0,0.0,0.0,0.0,0.0,0.0,0.0,1.5098,1.3687,0.0,0.0,0.0,0.0,0.0,0.0,0.0,0.0,0.0,0.0,0.0,1.866,1.9063,0.0,0.0,0.0,0.0,0.0,0.0,0.0,0.0,0.0,0.0,0.0,0.0,1.5533,1.8785,1.9511,2.048,2.1889,2.1389,2.1128,2.1151,1.975,1.796,1.5775,0.0,0.0,0.0,0.0,0.0,0.0,0.0,0.0,0.0,0.0,0.0,0.0,0.0,0.0,0.0,0.0,0.0,0.0,0.0,0.0,0.0,0.0,0.0,0.0,0.0,1.1835,0.0,0.0,0.0,0.0,0.0,0.0,0.0,0.0,0.0,0.0,0.0,1.9194,2.1711,2.2998,2.4349,2.6,2.6249,2.6587,0.0,0.0,0.0,0.0,0.0,0.0,0.0,0.0,0.0,0.0,0.0,0.0,0.0,0.0,2.3018,1.8517,1.7447,1.7259,1.7302,0.0,0.0,0.0,0.0,0.0,0.0,0.0,0.0,0.0,0.0,0.0,0.0,0.0,0.0,1.8071,0.0,1.6601,0.0,0.0,0.0,0.0,0.0,0.0,0.0,0.0,1.985,2.0662,2.1417,2.2095,2.1866,0.0,2.0327,1.8802,0.0,0.0,0.0,0.0,0.0,0.0,0.0,0.0,1.6662,2.0451,2.0642,2.1351,2.2688,2.2231,2.182,2.1563,1.9907,1.8233,1.6659,1.6901,1.6127,0.0,0.0,0.0,0.0,0.0,0.0,0.0,0.0,0.0,0.0,0.0,0.0,0.0,0.0,0.0,0.0,0.0,0.0,0.0,0.0,0.0,0.0,0.0,1.3178,0.0,0.0,0.0,0.0,0.0,0.0,0.0,0.0,0.0,2.035,2.0815,2.1815,2.4003,2.4857,2.5744,2.7038,0.0,0.0,0.0,0.0,0.0,0.0,0.0,2.7788,2.8035,2.7436,2.6786,2.6479,2.4633,2.4677,2.9357,0.0,0.0,2.2179,2.0765,2.0477,2.0847,2.201,2.2823,2.2627,2.4591,2.5729,0.0,0.0,0.0,0.0,0.0,0.0,0.0,0.0,2.0599,2.0989,0.0,2.0798,0.0,0.0,0.0,0.0,0.0,0.0,0.0,0.0,2.3565,2.4449,2.5152,2.5163,2.4498,2.3342,2.4663,2.3825,2.0858,1.7089,0.0,0.0,0.0,0.0,0.0,0.0,1.8144,2.1393,2.1554,2.2008,2.2858,2.288,2.2427,2.1543,1.9981,1.9078,1.8989,1.8369,1.7561,1.6666,1.5892,0.0,0.0,0.0,0.0,0.0,0.0,0.0,0.0,0.0,0.0,0.0,0.0,0.0,0.0,0.0,0.0,0.0,0.0,0.0,0.0,1.5648,0.0,0.0,0.0,0.0,0.0,0.0,0.0,0.0,0.0,0.0,2.3818,2.4238,2.5089,2.6684,0.0,0.0,0.0,0.0,2.9523,3.052,2.9988,3.0012,3.1561,3.1877,3.164,3.0906,0.0,0.0,2.8768,2.8712,2.9842,3.2535,3.1648,2.9985,2.8251,2.64,2.5643,2.654,2.6132,2.5934,2.6748,2.772,2.841,2.667,0.0,0.0,0.0,0.0,2.3724,2.4519,2.5861,2.5548,2.4895,2.3987,2.3519,0.0,0.0,0.0,0.0,0.0,0.0,2.3101,2.4345,2.4667,2.5197,2.5997,2.6042,2.5841,2.5466,2.5407,2.4613,2.3161,2.1591,1.9301,1.6399,0.0,0.0,0.0,0.0,2.0418,2.3,2.3207,2.3659,2.4543,2.3972,2.3294,2.2466,2.1409,2.0581,1.994,1.9771,1.9001,1.7604,1.7357,0.0,0.0,0.0,0.0,0.0,0.0,0.0,0.0,0.0,0.0,0.0,0.0,0.0,0.0,0.0,0.0,0.0,0.0,0.0,1.4873,1.4911,1.5068,0.0,0.0,0.0,0.0,0.0,0.0,0.0,0.0,0.0,2.6727,2.6565,2.6635,0.0,0.0,2.8022,2.9819,3.0215,3.0878,3.2382,0.0,0.0,0.0,3.2408,3.2184,3.2582,3.2829,3.2597,3.1447,3.2024,3.2942,3.3747,3.3453,3.2671,3.1262,2.9304,2.8422,2.9337,2.944,2.9563,3.0392,3.1262,3.1699,3.058,2.8391,2.6859,2.6649,2.7241,2.7294,2.7882,2.8744,2.8533,2.7859,2.692,2.6569,2.5563,2.4116,2.3912,0.0,0.0,0.0,2.5715,2.691,2.6945,2.7223,2.7695,2.8046,2.7743,2.6857,2.6709,2.6085,2.4986,2.4669,2.3223,2.0778,0.0,0.0,2.0287,2.0494,2.1866,2.4252,2.4066,2.4361,2.5236,2.4446,2.378,2.3317,2.2521,2.1687,2.0854,2.0827,2.0254,1.8945,1.862,1.7663,0.0,0.0,0.0,0.0,0.0,0.0,0.0,0.0,0.0,0.0,0.0,1.2299,0.0,0.0,0.0,0.0,1.3781,1.542,1.6826,1.7099,0.0,0.0,0.0,0.0,0.0,0.0,0.0,2.3888,2.5489,2.7168,2.9001,2.9155,2.9189,2.9686,2.9563,2.9909,3.1274,0.0,3.2578,3.3624,3.3819,3.3975,3.4287,3.3975,3.3819,3.4326,3.4449,3.433,3.4003,3.4473,3.4907,3.4898,3.49,3.4618,3.3858,3.2566,3.1689,3.2104,3.2514,3.2836,3.2722,3.2995,3.3231,3.3172,3.3026,3.1254,3.0116,2.9567,3.0327,3.0421,3.0105,3.0105,3.012,3.0148,2.9728,2.9112,2.835,2.7882,0.0,0.0,2.8455,2.9143,2.9893,2.9893,2.9893,2.9929,3.0654,2.987,2.7816,2.853,2.8094,2.6636,2.6629,2.6375,2.5795,2.2978,2.1928,2.2621,2.2185,2.3051,2.5344,2.4558,2.4454,2.516,2.4474,2.413,2.4202,2.3278,2.244,2.1733,2.1578,2.1163,2.041,1.9685,1.8536,1.6892,0.0,0.0,0.0,0.0,0.0,0.0,0.0,0.0,0.0,0.0,0.0,0.0,0.0,0.0,0.0,1.6282,0.0,1.9402,2.0886,0.0,0.0,0.0,2.0891,2.1162,2.3234,2.4952,2.5884,0.0,0.0,0.0,0.0,3.2324,3.2317,3.2498,3.2643,3.2641,3.3638,3.4428,3.4458,3.4661,3.5096,3.5677,3.5796,3.5793,3.5825,3.602,3.59,3.5853,3.5894,3.5981,3.5949,3.5937,3.5841,3.5914,3.565,3.5584,3.4425,3.5059,3.5343,3.4018,3.3707,3.3746,3.471,3.4585,3.4242,3.3302,3.2068,3.182,3.2094,3.2672,3.2588,3.246,3.2317,3.207,3.1532,3.0736,3.0346,3.0133,3.0133,3.0351,3.0532,3.0726,3.0726,3.0726,3.0726,3.0908,3.0726,3.0196,3.0417,2.9704,2.8203,2.8202,2.7577,2.6381,2.5662,2.5405,2.5469,2.5926,2.6479,2.709,2.6256,2.5597,2.522,2.506,2.5014,2.5005,2.3581,2.271,2.25,2.129,2.0501,2.0331,2.0208,1.9641,1.8543,1.6905,0.0,0.0,0.0,0.0,0.0,0.0,0.0,0.0,0.0,1.5586,1.2811,0.0,1.6793,0.0,1.8745,2.0345,2.1204,2.105,0.0,0.0,2.3083,2.3591,2.6168,2.6441,2.687,2.8154,2.9641,3.1009,3.2022,3.3272,3.4054,3.4053,3.3965,3.3875,3.3906,3.4853,3.5602,3.556,3.56,3.5758,3.5953,3.6031,3.6031,3.6028,3.6028,3.6028,3.6025,3.6027,3.6028,3.6031,3.5988,3.5985,3.5983,3.5978,3.5892,3.565,3.5751,3.5811,3.5382,3.5265,3.5268,3.5081,3.5034,3.5105,3.4628,3.3806,3.3617,3.3657,3.3875,3.3768,3.352,3.3156,3.3269,3.3259,3.3158,3.2916,3.2919,3.3103,3.2777,3.2596,3.2596,3.2234,3.1872,3.156,3.1922,3.1691,3.1003,3.1406,3.0948,2.9774,2.9766,2.9418,2.8693,2.8422,2.8296,2.8266,2.7818,2.7591,2.7701,2.7205,2.6579,2.5822,2.5839,2.5674,2.5288,2.4409,2.3731,2.3373,2.2495,2.1652,2.0904,2.0917,2.0543,1.9648,1.8391,1.726,0.0,0.0,0.0,0.0,0.0,0.0,0.0,0.0,0.0,0.0,0.0,1.7732,0.0,2.082,0.0,2.3512,2.3828,2.4609,2.613,2.6131,2.6756,2.8708,2.9099,2.9645,3.0542,3.148,3.2535,3.3941,3.4448,3.4877,3.519,3.5147,3.5062,3.509,3.5638,3.6031,3.6031,3.6031,3.6031,3.6031,3.6031,3.6031,3.6031,3.6031,3.6031,3.6031,3.6031,3.6031,3.6031,3.6031,3.6031,3.6031,3.6031,3.6028,3.6019,3.597,3.596,3.5948,3.5946,3.5943,3.5048,3.5015,3.4949,3.4916,3.4906,3.5152,3.4944,3.442,3.4465,3.4164,3.3624,3.4001,3.4495,3.5084,3.5117,3.5338,3.5668,3.5064,3.4769,3.4682,3.3936,3.3176,3.256,3.3103,3.2669,3.1379,3.2017,3.1944,3.1161,3.1202,3.1289,3.1323,3.0734,3.0465,3.0557,2.875,2.779,2.7822,2.7822,2.7428,2.6674,2.6565,2.6167,2.5493,2.5224,2.4817,2.412,2.3975,2.3257,2.1845,2.1745,2.137,2.0511,1.9663,1.9108,0.0,1.8233,0.0,0.0,0.0,0.0,0.0,0.0,0.0,0.0,1.7928,1.8476,1.9999,2.3003,2.5188,2.5937,2.7418,2.8158,2.7734,2.8984,2.9922,3.0117,3.1367,3.2383,3.2773,3.3242,3.418,3.5586,3.539,3.5312,3.6016,3.6289,3.6327,3.6236,3.6231,3.6229,3.619,3.6073,3.5995,3.6031,3.6031,3.6031,3.6031,3.6031,3.6031,3.6031,3.6031,3.6031,3.6031,3.6187,3.6226,3.607,3.6031,3.6028,3.6022,3.5986,3.5985,3.6009,3.6003,3.5999,3.5777,3.5744,3.5148,3.4916,3.4916,3.493,3.5219,3.5651,3.59,3.5941,3.5811,3.5177,3.4979,3.5109,3.5084,3.5167,3.5235,3.5459,3.5587,3.555,3.4754,3.4298,3.4117,3.3647,3.3248,3.2958,3.3103,3.2741,3.1981,3.1995,3.1688,3.1177,3.0995,3.0772,3.0368,0.0,0.0,0.0,2.8419,2.812,2.7504,2.6827,2.6429,2.6228,2.4962,0.0,2.4005,2.3405,2.2914,2.259,2.2573,0.0,0.0,0.0,0.0,0.0,0.0,0.0,0.0,0.0,0.0,0.0,2.1949,2.0841,1.9295,2.2026,2.4053,2.4447,2.6221,2.7489,2.7647,2.8573,2.97,3.0915,3.1345,3.1813,3.2519,3.2872,3.3271,3.384,3.414,3.4703,3.5741,3.6294,3.6701,3.6902,3.7488,3.775,3.7422,3.7142,3.7099,3.7259,3.6553,3.6039,3.5994,3.6031,3.6031,3.6031,3.6031,3.6031,3.6031,3.6031,3.6031,3.6031,3.6773,3.7007,3.6187,3.6031,3.603,3.603,3.603,3.6027,3.6009,3.6005,3.6005,3.6539,0.0,3.5744,3.5446,0.0,3.5048,3.5313,3.6009,3.6131,3.6452,3.6831,3.6073,3.5876,3.6143,3.5745,3.5744,3.6004,3.6022,3.6048,3.6029,3.5487,3.4971,3.4573,3.4175,3.3777,3.3393,3.3393,3.3212,3.2814,3.2777,3.2611,3.224,3.1841,3.1515,3.1259,3.0564,2.9853,2.9112,2.9112,2.8796,2.8165,2.7761,2.7204,2.65,0.0,0.0,0.0,0.0,0.0,0.0,0.0,0.0,0.0,0.0,0.0,2.1583,2.1907,2.196,2.1631,2.2372,2.3434,2.467,2.5182,2.4586,2.2551,2.5156,2.6828,2.6871,2.8739,3.0003,3.0066,3.0781,3.1631,3.2556,3.2992,3.3423,3.3852,3.4283,3.48,3.5476,3.5738,3.6108,3.6985,3.7459,3.7742,3.7759,3.8157,3.8418,3.8118,3.7616,3.7226,3.6911,3.6439,3.6004,3.6,3.5995,3.6031,3.6031,3.6031,3.6031,3.6031,3.6031,3.6031,3.6031,3.65,3.6617,3.6187,3.6031,3.6031,3.6031,3.6031,3.603,3.602,3.6019,3.6019,3.7301,3.7235,3.6506,3.6208,3.6141,3.5545,3.5711,3.6373,0.0,0.0,0.0,3.6859,3.6824,3.7217,3.6563,3.654,3.6921,3.6662,3.6488,3.6506,3.6148,3.5675,3.5059,3.4878,3.4392,3.3647,3.361,3.3538,3.3393,3.3393,3.3393,3.3321,3.2741,3.2371,3.221,3.0922,3.0097,2.9884,2.9683,2.9361,2.882,2.8707,2.8113,2.6968,2.6783,2.638,2.568,2.5702,2.5405,2.472,2.4716,2.4659,2.4538,2.4543,2.4793,2.5346,2.615,2.6309,2.5673,2.6564,2.6982,2.6536,2.7989,2.8197,2.6617,2.7901,2.883,2.8949,3.0877,3.2186,3.2402,3.2986,3.3518,3.3693,3.4442,3.4912,3.499,3.5694,3.6505,3.717,3.724,3.7555,3.8171,3.8494,3.8558,3.8439,3.8563,3.8656,3.8404,3.7757,3.703,3.652,3.6205,3.6008,3.6005,3.6,3.5996,3.5998,3.5996,3.5995,3.5992,3.6031,3.6031,3.6031,3.6031,3.6031,3.6031,3.6226,3.6187,3.6031,3.6031,3.6031,3.6031,3.6031,3.6028,3.8037,3.7996,3.7268,3.6936,3.6936,3.6837,3.7201,3.7831,3.7336,3.7544,3.8194,3.7628,3.7392,3.7422,3.7183,3.7109,3.7137,3.727,3.7327,0.0,3.6958,3.6777,3.6633,3.5965,3.524,3.4464,3.4443,3.4081,3.3465,3.3393,3.3393,3.3393,3.3284,3.2915,3.2282,3.1455,3.1026,3.1042,3.0044,2.9568,2.9699,2.9155,2.8776,2.8535,2.7892,2.7491,2.7363,2.7331,2.7349,2.7269,2.7253,2.6963,2.6228,2.6182,2.5967,2.5428,2.612,2.6549,2.6515,2.796,2.9412,3.0711,3.173,3.1613,3.0089,3.0796,3.1662,3.2287,3.2739,3.3248,3.3926,3.4187,3.4579,3.5325,3.6061,3.6521,3.6531,3.7267,3.7854,3.8047,3.807,3.8037,3.8324,3.8849,3.8986,3.8556,3.8864,3.9136,3.8497,3.7737,3.7305,3.7027,3.648,3.609,3.6207,3.6047,3.6203,3.6009,3.6122,3.6157,3.5994,3.6031,3.6031,3.6031,3.6031,3.6031,3.6031,3.6851,3.6812,3.6226,3.5994,3.5994,3.5992,3.6031,3.6031,3.8791,3.8692,3.7996,3.7673,3.7665,3.7301,3.7533,3.8136,3.7915,3.8233,3.8823,3.8184,3.7902,3.7937,3.747,3.7347,3.75,3.7603,3.7694,3.7775,3.7701,3.743,3.6995,3.6616,3.6037,3.5261,3.4806,3.4392,3.4045,3.3647,3.3393,3.3393,3.3393,3.3227,3.2857,3.2179,3.1846,3.1876,3.1015,3.0432,3.0245,2.9917,2.9456,2.8783,2.8372,2.8041,2.7714,2.7695,2.7707,2.777,2.7773,2.7604,2.7259,2.7259,2.7313,2.739,2.8198,2.8885,2.9313,3.0518,3.153,3.2312,3.3159,3.3356,3.2599,3.2947,3.3372,3.3726,3.4163,3.4803,3.5614,3.5747,3.6107,3.6957,3.7394,3.7593,3.7632,3.7909,3.8373,3.876,3.8489,3.8367,3.8837,3.89,3.8949,3.8866,3.9309,3.9389,3.9089,3.8361,3.79,3.783,3.7329,3.7102,3.7263,3.7615,3.7656,3.7458,3.7415,3.7021,3.6307,3.6031,3.6031,3.6031,3.6031,3.6031,3.6033,3.6383,3.6461,3.6267,3.6003,3.6004,3.5998,3.6031,3.6031,3.9448,3.9249,3.8692,3.846,3.8394,3.7665,3.7765,3.8427,3.8295,3.8626,3.9183,3.8692,3.8479,3.8543,3.7877,3.7661,3.7879,3.7907,3.7952,3.8028,3.8186,3.7908,3.7321,3.7285,3.6834,3.6109,3.5421,3.5059,3.479,3.4081,3.3574,3.3429,3.3393,3.3393,3.3393,3.2863,3.2606,3.2625,3.2175,3.1556,3.0802,3.082,3.0373,2.9485,2.9447,2.9224,2.8779,2.8803,2.8836,2.8842,2.8893,2.893,2.8904,2.9016,2.9308,2.9929,3.0583,3.1352,3.2199,3.2814,3.3276,3.3506,3.4122,3.4507,3.4513,3.4552,3.4654,3.4898,3.5643,3.6421,3.6961,3.7096,3.7462,3.8119,3.8369,3.8453,3.8459,3.8471,3.8709,3.9295,3.8715,3.8528,3.9131,3.8965,3.8859,3.9342,3.9376,3.9379,3.9521,3.9023,3.8708,3.8762,3.841,3.8064,3.8481,3.8865,3.8917,3.8631,3.8476,3.789,3.6947,3.6392,3.656,3.6914,3.6836,3.6835,3.6756,3.6715,3.6753,3.6753,3.6756,3.6679,3.6714,3.6281,3.6045,3.9912,3.9348,3.9216,3.9216,3.9116,3.8394,3.8493,3.9023,3.8493,3.8626,3.9249,3.9249,3.9183,3.911,3.855,3.8404,3.8514,3.8342,3.8174,3.8088,3.8402,3.8366,3.8068,3.8082,3.7647,3.6959,3.6741,3.629,3.5659,3.4863,3.4117,3.3465,3.3393,3.3393,3.3357,3.3357,3.3393,3.3478,3.3488,3.2868,3.1693,3.1779,3.1809,3.1699,3.1892,3.2048,3.1753,3.2118,3.2203,3.2248,3.2209,3.229,3.2286,3.2358,3.2436,3.25,3.2622,3.3045,3.3859,3.4052,3.4391,3.5154,3.5231,3.5308,3.5346,3.5391,3.5758,3.6401,3.7321,3.7713,3.7958,3.7919,3.7926,3.8119,3.8781,3.9276,3.9212,3.9309,3.9329,3.9374,3.8735,3.8522,3.9268,3.9369,3.9369,3.9468,3.9126,3.9032,3.9564,3.9569,3.9641,4.0112,3.9719,3.8949,3.8757,3.8889,3.9143,3.867,3.8485,3.8445,3.8161,3.7344,3.6757,3.8625,3.8984,3.8387,3.8403,3.8559,3.8112,3.7887,3.7964,3.8158,3.8042,3.7146,3.6327,3.9851,3.9912,3.9481,3.9315,3.9249,3.8984,3.899,3.9249,3.9017,3.905,3.9282,3.9315,3.9315,3.9282,3.9116,3.9061,3.9131,3.8996,3.8906,3.8807,3.8682,3.8523,3.8456,3.827,3.7993,3.7683,3.7249,3.685,3.6435,3.5711,3.4914,3.419,3.4117,3.3864,3.3465,3.3466,3.3524,3.353,3.3629,3.3436,3.293,3.2514,3.2175,3.1853,3.1933,3.2037,3.2193,3.2397,3.2539,3.2547,3.2722,3.2804,3.2819,3.2823,3.3094,3.3551,3.4147,3.4577,3.493,3.4968,3.5122,3.55,3.55,3.55,3.5538,3.6115,3.6584,3.6752,3.7228,3.7504,3.7319,3.7346,3.7507,3.8092,3.8877,3.9237,3.8697,3.9521,3.9952,3.9496,3.9097,3.9,3.9354,3.9489,3.9501,3.9578,3.9501,3.9843,4.0197,4.0274,4.0429,4.0667,4.0405,4.0165,3.9885,4.0045,4.0061,3.9954,3.9941,3.9972,3.9736,3.957,3.9387,3.9936,3.9785,3.9338,3.8644,3.8649,3.8395,3.8523,3.8492,3.8491,3.8456,3.7941,3.7443,4.0185,4.052,3.9912,3.9481,3.9315,3.9315,3.9315,3.9315,3.9315,3.9315,3.9315,3.9315,3.9315,3.9315,3.9422,3.9501,3.9532,3.9503,3.9566,3.9583,3.9244,3.9103,3.9081,3.8706,3.85,3.8391,3.772,3.7212,3.6959,3.6435,3.5711,3.5007,3.4718,3.4298,3.3755,3.3597,3.3495,3.3553,3.3615,3.3684,3.3616,3.318,3.2709,3.2329,3.2337,3.2475,3.2691,3.2949,3.3135,3.3151,3.3347,3.3478,3.3486,3.3516,3.3782,3.4407,3.5088,3.5493,3.55,3.55,3.55,3.55,3.55,3.55,3.5615,3.6269,3.6577,3.6423,3.6615,3.6731,3.7084,3.7112,3.7518,3.8334,3.9049,3.9133,3.894,3.9795,3.9995,3.9462,3.9096,3.9155,3.9354,3.9651,3.9908,3.9946,4.0384,4.0816,4.0816,4.0777,4.0777,4.0816,4.0777,4.0814,4.0848,4.078,4.0907,4.09,4.08,4.0745,4.0873,4.0874,4.0848,4.0327,4.062,4.0533,3.9816,3.9286,3.9039,3.9093,3.9107,3.9104,3.9325,3.9151,3.888,4.139,4.122,4.0613,3.9978,3.9315,3.9348,3.9315,3.9315,3.9315,3.9315,3.9315,3.9315,3.9315,3.9315,3.9342,3.9441,3.9651,3.9688,3.9876,4.014,4.0171,4.0248,4.0384,3.9695,3.9333,3.926,3.8517,3.7792,3.7104,3.6959,3.6508,3.5768,3.508,3.4661,3.4443,3.3828,3.3466,3.3654,3.3623,3.3657,3.378,3.3757,3.3673,3.3603,3.3895,3.4013,3.4288,3.4592,3.4793,3.5005,3.4945,3.5062,3.5124,3.5139,3.5178,3.5352,3.5405,3.5465,3.5493,3.55,3.55,3.55,3.55,3.55,3.55,3.5654,3.5731,3.5615,3.5808,3.6385,3.7584,3.7668,3.8092,3.8907,3.9215,3.9561,4.0138,3.9668,3.9413,3.9227,3.8863,3.889,3.9392,4.0159,4.0488,4.0533,4.0713,4.081,4.081,4.081,4.081,4.081,4.0816,4.0816,4.079,4.0814,4.0808,4.0843,4.087,4.082,4.0796,4.079,4.0724,4.0692,4.0751,4.0769,4.0704,4.0625,4.0461,4.0412,4.0368,4.0395,4.0161,4.0641,4.0381,4.1065,4.138,4.1143,4.0647,4.0011,4.0011,3.9746,3.9315,3.9315,3.9315,3.9315,3.9315,3.9315,3.9315,3.9315,3.9388,3.9573,3.9763,3.9893,4.0069,4.0212,4.0327,4.0375,4.0183,4.0093,3.9985,3.9333,3.8553,3.7865,3.7756,3.7357,3.6653,3.629,3.5892,3.5349,3.4573,3.4184,3.4192,3.3822,3.3615,3.3707,3.3753,3.3807,3.3807,3.39,3.3967,3.4031,3.4431,3.4665,3.4745,3.5016,3.519,3.5283,3.5774,3.6074,3.6098,3.6128,3.5967,3.5535,3.5427,3.5441,3.55,3.55,3.55,3.55,3.55,3.5692,3.6154,3.65,3.7077,3.7584,3.7546,3.7507,3.8354,3.8977,3.9207,3.913,3.9523,3.9877,3.9499,3.9444,3.9858,4.0041,4.0447,4.0647,4.0647,4.0661,4.072,4.0733,4.0739,4.0784,4.081,4.0816,4.0816,4.0816,4.0816,4.0816,4.0816,4.0822,4.0828,4.0816,4.0816,4.0751,4.0751,4.0777,4.0784,4.0754,4.0765,4.0815,4.0826,4.0819,4.0849,4.0893,4.0907,4.08,4.1541,4.172,4.1744,4.1342,4.0746,4.0713,4.0343,3.968,3.9647,3.9514,3.9348,3.9315,3.9315,3.9315,3.9315,3.9395,3.9528,3.9711,3.9884,4.0111,4.0481,4.0727,4.0884,4.0917,4.0872,4.0764,4.013,3.9333,3.8645,3.8572,3.8154,3.743,3.7176,3.6741,3.6146,3.5385,3.4987,3.4888,3.4324,3.3974,3.3994,3.3822,3.378,3.3807,3.3807,3.3823,3.3939,3.4474,3.485,3.5049,3.5571,3.5916,3.6061,3.6323,3.6509,3.6487,3.6281,3.5967,3.546,3.5345,3.5398,3.542,3.5472,3.5563,3.5832,3.5878,3.6269,3.6923,3.7308,3.7692,3.8123,3.7892,3.7777,3.8354,3.8931,3.9207,3.8892,3.9823,4.0131,3.9938,4.0146,4.0484,4.0552,4.0566,4.0612,4.0574,4.0812,4.1026,4.1131,4.1145,4.1158,4.1152,4.0965,4.0855,4.0816,4.0816,4.0855,4.0855,4.0816,4.0816,4.0816,4.0816,4.0816,4.0816,4.0816,4.0816,4.0822,4.079,4.0796,4.0802,4.0792,4.0832,4.0842,4.0863,4.0762,4.3138,4.2539,4.2506,4.2075,4.1475,4.1442,4.1044,4.0475,4.0409,4.0078,3.9647,3.9415,3.9448,3.9348,3.9348,3.9395,3.9475,3.9528,3.9884,4.0431,4.0955,4.1459,4.1914,4.171,4.1595,4.1524,4.0872,4.013,3.9459,3.9297,3.8915,3.8191,3.7466,3.714,3.6995,3.6254,3.5851,3.5717,3.5145,3.4768,3.479,3.421,3.3849,3.3867,3.3844,3.3889,3.4167,3.4884,3.5411,3.5897,3.6593,3.7347,3.7219,3.6833,3.6506,3.6386,3.5828,3.5385,3.5339,3.5308,3.5308,3.5476,3.5422,3.5873,3.6572,3.6709,3.7077,3.7815,3.8084,3.8354,3.9092,3.92,3.92,3.9323,3.9438,3.9669,4.0169,4.0439,4.0477,4.0439,4.0477,4.0516,4.0523,4.07,4.08,4.1031,4.1439,4.1861,4.1889,4.1903,4.2008,4.1841,4.1622,4.1474,4.1164,4.0855,4.0932,4.0926,4.0855,4.0816,4.0816,4.0816,4.0816,4.0816,4.0816,4.0816,4.0816,4.0784,4.0822,4.079,4.0808,4.082,4.0804,4.0826,4.0842,4.3466,4.3267,4.3267,4.2837,4.2175,4.2142,4.1773,4.111,4.1077,4.0945,4.068,4.0276,4.0044,3.9912,3.9547,3.9342,3.9369,3.9362,3.9599,4.002,4.0587,4.1094,4.1538,4.1889,4.1909,4.1704,4.1488,4.0908,4.0202,3.9695,3.9224,3.8915,3.8227,3.7865,3.7792,3.7067,3.6633,3.6592,3.5914,3.556,3.5533,3.4907,3.454,3.4495,3.4073,3.386,3.3939,3.434,3.4635,3.4847,3.5354,3.6017,3.6629,3.6634,3.6489,3.646,3.6277,3.5835,3.5377,3.5339,3.5614,3.6036,3.6205,3.665,3.7356,3.7525,3.7939,3.8738,3.89,3.9246,3.99,4.0131,4.0092,4.0085,4.0131,4.0169,4.04,4.0516,4.0516,4.0516,4.0516,4.0739,4.1239,4.1408,4.1647,4.2109,4.2526,4.2634,4.2386,4.2623,4.2626,4.2389,4.228,4.2318,4.2125,4.2009,4.2048,4.1816,4.1545,4.1235,4.1119,4.1042,4.1009,4.1087,4.1048,4.0971,4.0971,4.1009,4.1119,4.1009,4.1022,4.0995,4.0852,4.098,4.123,4.3598,4.3598,4.3598,4.3333,4.2903,4.2903,4.2506,4.1844,4.1778,4.1674,4.1342,4.0978,4.0641,4.0376,3.9912,3.9547,3.9348,3.9315,3.9422,3.9677,4.0195,4.0672,4.1105,4.1846,4.2223,4.2155,4.2139,4.1741,4.0945,4.0492,4.0093,3.9731,3.9007,3.8662,3.8589,3.7865,3.7466,3.7357,3.6701,3.6313,3.6245,3.5681,3.5352,3.5337,3.4954,3.4761,3.4738,3.49,3.4895,3.4834,3.5292,3.5995,3.6616,3.6426,3.6236,3.6236,3.6198,3.597,3.5542,3.578,3.6176,3.6731,3.6935,3.7376,3.8147,3.8416,3.8831,3.9546,3.9746,3.9977,4.0362,4.0477,4.0516,4.0516,4.0477,4.0516,4.0516,4.0516,4.0516,4.0554,4.0785,4.1277,4.1739,4.2239,4.247,4.3017,4.3341,4.345,4.3166,4.3373,4.3417,4.3381,4.324,4.3247,4.3208,4.3208,4.3208,4.286,4.2434,4.2048,4.1777,4.1738,4.1738,4.2164,4.228,4.2048,4.197,4.2009,4.2048,4.1738,4.1583,4.1867,4.2067,4.1996,4.2085,4.3664,4.3664,4.3598,4.3598,4.3532,4.3532,4.3135,4.2605,4.2572,4.2208,4.1711,4.1541,4.1177,4.0674,4.0542,4.0111,3.9481,3.9448,3.9435,3.9606,3.9944,4.0358,4.0908,4.1782,4.2402,4.2736,4.281,4.2448,4.1777,4.1524,4.1307,4.0564,3.984,3.9441,3.9297,3.8662,3.8263,3.8154,3.7466,3.7148,3.7187,3.6468,3.6178,3.6296,3.6178,3.6083,3.606,3.6038,3.592,3.5677,3.6318,3.6757,3.6818,3.6269,3.599,3.6001,3.5833,3.5882,3.5972,3.6355,3.6971,3.7402,3.7547,3.8013,3.8929,3.9163,3.9482,4.0183,4.0315,4.0454,4.0577,4.0708,4.07,4.0708,4.0823,4.0746,4.0708,4.0785,4.09,4.09,4.1354,4.2008,4.2362,4.2854,4.3162,4.3508,4.4025,4.4204,4.4229,4.4392,4.4862,4.4745,4.4309,4.4207,4.4207,4.4214,4.4253,4.4136,4.3672,4.3247,4.2667,4.255,4.2589,4.3015,4.3324,4.3131,4.286,4.2783,4.2821,4.2705,4.2821,4.3247,4.3169,4.2866,4.268,4.4423,4.4357,4.386,4.3598,4.3598,4.3598,4.3499,4.33,4.33,4.3135,4.2903,4.244,4.2104,4.1905,4.1342,4.0746,4.0243,4.0078,3.9779,3.9428,3.9547,4.0343,4.115,4.1888,4.2438,4.2844,4.2901,4.281,4.252,4.2031,4.1632,4.1379,4.0583,4.0202,4.0076,3.9441,3.9133,3.8988,3.8299,3.7917,3.7822,3.726,3.6921,3.693,3.6575,3.6376,3.6303,3.6303,3.6334,3.6332,3.6533,3.6783,3.6878,3.6665,3.6492,3.6492,3.6578,3.659,3.6628,3.6803,3.7249,3.7894,3.8026,3.8411,3.9326,3.9515,3.9802,4.0129,4.0251,4.0637,4.1275,4.1453,4.1692,4.2239,4.1885,4.1739,4.2162,4.2393,4.2277,4.1931,4.2354,4.2893,4.3401,4.3748,4.4201,4.471,4.4996,4.5205,4.5021,4.5093,4.5418,4.5526,4.5324,4.5276,4.5251,4.522,4.5258,4.5304,4.5026,4.4678,4.402,4.344,4.3556,4.3827,4.4059,4.3943,4.3479,4.3169,4.3324,4.3672,4.3595,4.3711,4.3479,4.3208,4.3053,4.4953,4.4655,4.4224,4.3893,4.3631,4.3598,4.3598,4.3598,4.3598,4.3598,4.3499,4.3168,4.2804,4.244,4.2042,4.1475,4.0845,4.0542,4.0204,3.9941,3.9967,4.0538,4.1331,4.1931,4.2438,4.2863,4.2901,4.2901,4.2829,4.2411,4.223,4.2085,4.1415,4.1017,4.0945,4.0274,3.9876,3.9731,3.9115,3.8715,3.8712,3.8065,3.776,3.7698,3.7418,3.7294,3.7331,3.7331,3.7124,3.6662,3.6481,3.6549,3.663,3.6656,3.6656,3.6656,3.6954,3.7127,3.7214,3.7437,3.7925,3.8427,3.859,3.8914,3.9498,3.9896,4.025,4.0431,4.076,4.1348,4.1848,4.2096,4.2572,4.3156,4.3073,4.2923,4.3124,4.3008,4.2931,4.2854,4.3201,4.3893,4.4479,4.4701,4.5056,4.5402,4.5458,4.5535,4.5535,4.5654,4.5803,4.5951,4.6252,4.6237,4.622,4.6228,4.6482,4.6528,4.6232,4.5916,4.522,4.4485,4.4562,4.4717,4.4794,4.4755,4.433,4.4136,4.4485,4.4639,4.4369,4.4291,4.4253,4.3982,4.3788,4.5547,4.4887,4.4854,4.4423,4.3929,4.3764,4.3797,4.3731,4.3631,4.3598,4.3598,4.3598,4.3201,4.2605,4.2638,4.2208,4.1508,4.1044,4.0691,4.0555,4.0527,4.0814,4.1308,4.1931,4.2438,4.2844,4.2901,4.2901,4.2901,4.2865,4.2865,4.2665,4.2122,4.185,4.1669,4.1017,4.0655,4.0474,3.9876,3.9549,3.9491,3.9048,3.8838,3.883,3.8706,3.8658,3.8673,3.8579,3.8006,3.6633,3.6523,3.675,3.6713,3.6626,3.6662,3.6838,3.736,3.7676,3.7742,3.8228,3.8781,3.9092,3.9161,3.937,3.9852,4.0415,4.0804,4.0952,4.1705,4.2054,4.2485,4.2715,4.3295,4.3871,4.4183,4.393,4.3496,4.3312,4.3321,4.3359,4.4004,4.4713,4.5252,4.5577,4.5633,4.5932,4.5979,4.5941,4.6095,4.6305,4.6378,4.645,4.6783,4.7155,4.7179,4.7194,4.7534,4.7743,4.734,4.6922,4.6225,4.5722,4.5645,4.5652,4.5374,4.5374,4.5413,4.5459,4.5613,4.5497,4.5142,4.5374,4.5613,4.522,4.4949,4.6576,4.6378,4.5781,4.5483,4.5218,4.4721,4.4456,4.439,4.386,4.3664,4.3598,4.3598,4.3499,4.3333,4.3267,4.2969,4.2274,4.1972,4.1564,4.0615,4.0493,4.0778,4.1343,4.1945,4.2438,4.2806,4.2901,4.2901,4.2901,4.2901,4.2901,4.2865,4.2701,4.2629,4.2484,4.1832,4.1451,4.1307,4.0655,4.0311,4.0274,4.0197,4.0084,4.0098,3.9723,3.9564,3.9481,3.9019,3.8542,3.8285,3.8175,3.8175,3.8065,3.8065,3.8065,3.8138,3.8248,3.8432,3.8505,3.8726,3.9013,3.9672,3.9792,4.0019,4.0708,4.0955,4.1237,4.1423,4.1724,4.2395,4.3076,4.3891,4.4215,4.444,4.4638,4.4695,4.4505,4.4558,4.4564,4.4638,4.4794,4.5072,4.527,4.5667,4.5944,4.6346,4.6471,4.6355,4.6663,4.7048,4.7151,4.7264,4.7542,4.7953,4.8064,4.8128,4.8438,4.8616,4.8292,4.7966,4.727,4.6689,4.6535,4.6187,4.5768,4.5923,4.6303,4.6,4.6,4.5923,4.5962,4.6109,4.6225,4.6071,4.6109,4.7206,4.6874,4.6477,4.6113,4.5748,4.5351,4.5019,4.4655,4.4291,4.3926,4.3631,4.3598,4.3598,4.3598,4.3598,4.3333,4.3002,4.2605,4.2052,4.1324,4.1095,4.133,4.1773,4.2108,4.2438,4.2825,4.2901,4.2901,4.2901,4.2901,4.2901,4.2901,4.2901,4.2865,4.2901,4.2448,4.2303,4.2122,4.1488,4.1053,4.1071,4.0833,4.079,4.0859,4.054,4.0402,4.0398,4.0104,3.99,3.9827,3.979,3.9423,3.8836,3.8726,3.8872,3.9203,3.9276,3.9496,3.968,3.9848,4.0047,4.0414,4.0451,4.0671,4.1148,4.1454,4.1772,4.2035,4.2433,4.2992,4.3624,4.4116,4.4508,4.4713,4.5092,4.5344,4.5368,4.5327,4.5105,4.5141,4.5485,4.5861,4.6077,4.6196,4.6723,4.7328,4.7394,4.7355,4.7817,4.8125,4.8249,4.8345,4.8537,4.8795,4.8947,4.9106,4.9302,4.9288,4.9042,4.8802,4.8392,4.7811,4.727,4.7038,4.6922,4.696,4.7192,4.6806,4.6658,4.7038,4.7154,4.696,4.696,4.7192,4.7154,4.7636,4.7073,4.7073,4.6676,4.6146,4.6013,4.5649,4.5119,4.4917,4.4489,4.3863,4.3764,4.3797,4.3631,4.3598,4.3598,4.3367,4.2833,4.2219,4.1938,4.1598,4.19,4.2311,4.2388,4.2507,4.2893,4.2899,4.2918,4.2901,4.2901,4.2901,4.2901,4.2901,4.2901,4.2882,4.2882,4.281,4.2665,4.2194,4.1886,4.1832,4.1505,4.1391,4.1528,4.1339,4.1262,4.1242,4.1058,4.0985,4.1095,4.1095,4.0361,3.9533,3.9093,3.9313,4.0047,4.0084,4.0304,4.0691,4.0912,4.0985,4.1205,4.1279,4.1389,4.1662,4.2119,4.2463,4.2754,4.3111,4.3619,4.4029,4.437,4.4601,4.4875,4.5612,4.601,4.6063,4.5706,4.5507,4.5382,4.5975,4.6464,4.6809,4.7062,4.7729,4.8231,4.825,4.8423,4.8875,4.9144,4.9221,4.9365,4.9528,4.9605,4.972,4.9717,4.9993,4.9903,4.9705,4.9575,4.9413,4.9196,4.8732,4.8469,4.8353,4.8198,4.785,4.7424,4.754,4.8159,4.8237,4.7927,4.8082,4.843,4.8237,4.7934,4.7802,4.7835,4.7736,4.7537,4.7007,4.6609,4.6411,4.5814,4.5185,4.4556,4.4489,4.4125,4.3764,4.3598,4.3598,4.3433,4.2932,4.2564,4.238,4.211,4.2215,4.2723,4.2695,4.2859,4.3048,4.3068,4.2991,4.2937,4.2901,4.2901,4.2901,4.2901,4.2901,4.2901,4.2901,4.2901,4.2901,4.2665,4.2592,4.2539,4.2449,4.245,4.2592,4.2223,4.2072,4.1939,4.1499,4.1095,4.1095,4.1095,4.0985,4.0765,4.0691,4.0765,4.0855,4.0891,4.1058,4.1315,4.1242,4.1499,4.1882,4.2103,4.2433,4.2837,4.3147,4.3221,4.3348,4.3546,4.3925,4.4727,4.4946,4.5312,4.5786,4.6196,4.647,4.6494,4.6569,4.6633,4.6624,4.691,4.7019,4.734,4.7769,4.8327,4.8739,4.8879,4.9199,4.9719,4.9997,5.0123,5.0278,5.0442,5.0481,5.0529,5.0451,5.0488,5.0468,5.034,5.0375,5.0331,5.0526,5.031,4.966,4.9126,4.874,4.8392,4.8121,4.8292,4.8818,4.8833,4.8809,4.8918,4.9079,4.9189,4.8001,4.8001,4.8001,4.8001,4.7934,4.7636,4.7239,4.6874,4.651,4.5947,4.5317,4.4884,4.4522,4.4158,4.3698,4.3598,4.3466,4.33,4.3127,4.3078,4.2655,4.2881,4.3416,4.3299,4.3687,4.3975,4.3818,4.3263,4.2937,4.2901,4.2901,4.2901,4.2901,4.2901,4.2901,4.2901,4.2901,4.2901,4.2901,4.2901,4.2901,4.2939,4.3105,4.3141,4.303,4.2898,4.282,4.2616,4.2359,4.2396,4.2359,4.2359,4.2323,4.2249,4.2139,4.1809,4.1719,4.1956,4.2249,4.2359,4.258,4.2837,4.291,4.3057,4.3351,4.3461,4.3754,4.4029,4.4176,4.4574,4.5486,4.5648,4.5938,4.6335,4.683,4.7152,4.7341,4.765,4.7819,4.792,4.7914,4.7857,4.7758,4.8256,4.8859,4.9248,4.9442,4.9854,5.038,5.0374,5.0302,5.0407,5.0451,5.0619,5.0657,5.0737,5.0873,5.0903,5.0875,5.0914,5.0824,5.0821,5.0734,5.0357,4.9854,4.9335,4.9668,4.9699,4.9591,4.9434,4.9594,4.9723,4.9649,4.9688,4.9765,4.7869,4.8001,4.8001,4.8001,4.8001,4.8001,4.7669,4.7206,4.7106,4.6709,4.598,4.5417,4.5019,4.4556,4.4026,4.3598,4.3598,4.3565,4.3621,4.361,4.3294,4.3627,4.4105,4.4316,4.4281,4.4743,4.4634,4.3932,4.33,4.301,4.2901,4.2901,4.2901,4.2901,4.2901,4.2901,4.2901,4.2901,4.2901,4.2901,4.292,4.3012,4.316,4.3341,4.3376,4.3356,4.3353,4.3314,4.3277,4.3314,4.3351,4.3424,4.3461,4.3461,4.3167,4.2653,4.2543,4.291,4.3204,4.3387,4.3294,4.3351,4.3461,4.3571,4.3864,4.4121,4.4342,4.4819,4.4966,4.535,4.6173,4.6391,4.6626,4.7026,4.7593,4.8012,4.8219,4.8455,4.8667,4.8749,4.8775,4.8633,4.8452,4.8589,4.9188,4.9373,4.9543,4.9695,5.0113,4.9936,4.9923,5.0063,5.0188,5.0436,5.0597,5.0799,5.1079,5.1373,5.1277,5.1256,5.1055,5.0847,5.0721,5.0568,5.0411,5.0096,5.0636,5.0929,5.0449,5.0284,5.0508,5.0491,5.0192,5.0163,5.0248,4.7371,4.8001,4.8001,4.8001,4.8001,4.8001,4.7968,4.7868,4.7802,4.7471,4.6775,4.6576,4.5814,4.4821,4.3992,4.3664,4.3631,4.3598,4.3628,4.3654,4.3756,4.3915,4.427,4.4669,4.4749,4.5136,4.5141,4.469,4.4038,4.3387,4.3046,4.3082,4.3191,4.2973,4.3082,4.3118,4.2901,4.2937,4.2901,4.2901,4.2937,4.3012,4.3104,4.3178,4.3287,4.3431,4.3503,4.3573,4.3534,4.3588,4.3497,4.3497,4.3497,4.3497,4.3478,4.3404,4.3351,4.3387,4.3461,4.3497,4.3571,4.3608,4.3608,4.3901,4.4452,4.5076,4.5443,4.57,4.5773,4.6159,4.6838,4.7114,4.7536,4.7957,4.8305,4.8561,4.8793,4.9044,4.9254,4.9365,4.9316,4.9197,4.9047,4.922,4.9439,4.9544,4.9646,4.9811,5.0014,5.0107,5.0122,5.0378,5.0537,5.0759,5.1002,5.1142,5.1358,5.1763,5.1701,5.1611,5.1388,5.1101,5.0646,5.052,5.05,5.0724,5.1135,5.1198,5.0966,5.0761,5.0616,5.0587,5.0558,5.0587,5.0527,4.727,4.8001,4.8001,4.8001,4.8001,4.8001,4.8001,4.8001,4.8001,4.7835,4.7471,4.704,4.6278,4.5317,4.4556,4.4257,4.4125,4.383,4.3598,4.3661,4.3898,4.4184,4.4584,4.487,4.5136,4.5481,4.553,4.5394,4.4839,4.4594,4.4258,4.4186,4.4186,4.4041,4.3643,4.3589,4.3281,4.3063,4.2901,4.2901,4.2901,4.2975,4.3012,4.3104,4.3196,4.3506,4.3815,4.3613,4.3793,4.3884,4.3828,4.3497,4.3497,4.3497,4.3515,4.3461,4.3461,4.3461,4.3497,4.3497,4.3754,4.4085,4.4232,4.4562,4.5259,4.5736,4.6214,4.6562,4.6581,4.7003,4.7628,4.7905,4.8182,4.8532,4.89,4.8972,4.9137,4.9504,4.9725,4.9819,4.993,4.993,4.9782,4.9586,4.9753,4.999,5.006,5.0145,5.0611,5.1058,5.1061,5.1095,5.1194,5.1307,5.158,5.1806,5.183,5.2068,5.2106,5.1961,5.1788,5.1483,5.1107,5.0907,5.0935,5.1205,5.1552,5.1318,5.0923,5.0731,5.0547,5.0657,5.0676,5.0356,5.0309,4.7438,4.8001,4.8001,4.8001,4.8001,4.8001,4.8001,4.8001,4.8001,4.8001,4.7802,4.7239,4.6576,4.6013,4.5351,4.4953,4.492,4.439,4.4029,4.3989,4.4068,4.4351,4.4659,4.4959,4.5588,4.6123,4.632,4.6241,4.6205,4.5957,4.5707,4.5345,4.5055,4.491,4.4548,4.4367,4.415,4.3751,4.3425,4.3317,4.3263,4.301,4.2975,4.3012,4.3196,4.3451,4.3999,4.3796,4.3849,4.3994,4.3791,4.3497,4.3497,4.3754,4.3901,4.3975,4.4121,4.4305,4.4232,4.4195,4.4305,4.4745,4.5278,4.5663,4.6104,4.6324,4.6654,4.7369,4.7369,4.7793,4.8272,4.8548,4.8863,4.9048,4.9289,4.9307,4.9453,4.9989,5.0377,5.0525,5.0711,5.0971,5.0673,5.0079,5.006,5.0357,5.0488,5.0599,5.11,5.175,5.169,5.1574,5.1478,5.1624,5.2059,5.2294,5.2363,5.2484,5.25,5.2544,5.25,5.2243,5.1866,5.1699,5.1595,5.1538,5.1792,5.1317,5.0937,5.1229,5.1381,5.0987,5.0799,5.0468,5.0364,4.7968,4.8001,4.8001,4.8001,4.8001,4.8001,4.8001,4.8001,4.8001,4.8001,4.7901,4.7305,4.6941,4.6643,4.6113,4.5715,4.5682,4.5649,4.5152,4.4815,4.477,4.4712,4.493,4.5375,4.593,4.6253,4.6689,4.7191,4.747,4.7139,4.6447,4.5526,4.5743,4.5454,4.52,4.5055,4.4983,4.4657,4.4295,4.4041,4.3824,4.3498,4.3155,4.312,4.3178,4.3251,4.3378,4.3668,4.3957,4.4158,4.4011,4.3864,4.4011,4.4378,4.4599,4.4709,4.5076,4.5333,4.5406,4.5039,4.5112,4.5773,4.6397,4.6819,4.7021,4.77,4.8103,4.8122,4.8122,4.8269,4.8619,4.8949,4.9505,4.9673,4.9877,5.0101,5.0324,5.0787,5.1158,5.1287,5.1528,5.1899,5.1974,5.1454,5.1045,5.1305,5.1639,5.1751,5.1751,5.2215,5.2011,5.186,5.1656,5.1897,5.2474,5.2695,5.2891,5.3075,5.3207,5.3344,5.3459,5.3106,5.2597,5.2713,5.2602,5.2295,5.2053,5.2067,5.2119,5.226,5.2222,5.1947,5.1505,5.1191,5.1118,4.8001,4.8001,4.8001,4.8001,4.8001,4.8001,4.8001,4.8001,4.8001,4.8001,4.7968,4.7703,4.757,4.7371,4.6841,4.6477,4.6378,4.5947,4.5649,4.5545,4.5438,4.552,4.5655,4.5787,4.6203,4.6463,4.7015,4.7196,4.7138,4.7695,4.7497,4.6882,4.6794,4.6432,4.6178,4.5671,4.5454,4.5309,4.5055,4.4838,4.4765,4.4621,4.4367,4.4387,4.4406,4.4851,4.5274,4.4948,4.5205,4.5333,4.5112,4.4892,4.4819,4.5223,4.5406,4.548,4.5883,4.6214,4.6471,4.5993,4.5847,4.6599,4.7333,4.7865,4.7829,4.8196,4.8306,4.8416,4.882,4.9077,4.9224,4.9811,5.0345,5.0348,5.0554,5.089,5.1189,5.1637,5.1898,5.2029,5.2531,5.3051,5.3051,5.294,5.2531,5.2271,5.2605,5.2828,5.2754,5.2754,5.2642,5.2605,5.2457,5.2531,5.3088,5.3311,5.3423,5.3608,5.3794,5.3794,5.3794,5.3739,5.3405,5.3534,5.3534,5.3162,5.3023,5.3165,5.3104,5.2845,5.2929,5.3081,5.258,5.2005,5.1952,4.8001,4.8001,4.8001,4.8001,4.8001,4.8001,4.8001,4.8001,4.8001,4.8001,4.8001,4.8001,4.8001,4.7835,4.7504,4.7239,4.7106,4.6775,4.6378,4.6275,4.6269,4.6321,4.635,4.651,4.6721,4.688,4.7396,4.7699,4.7852,4.8171,4.8381,4.846,4.8351,4.788,4.6902,4.6359,4.5997,4.5997,4.5743,4.5671,4.5671,4.5345,4.52,4.52,4.5187,4.5428,4.5782,4.5659,4.5827,4.603,4.603,4.5883,4.5957,4.6104,4.6214,4.6324,4.6544,4.6874,4.7095,4.7095,4.6911,4.748,4.7865,4.8343,4.86,4.871,4.8893,4.926,4.9664,4.9958,5.0014,5.0655,5.1096,5.1173,5.1561,5.1879,5.2032,5.239,5.2599,5.2824,5.329,5.3588,5.3608,5.3497,5.3423,5.3088,5.3162,5.3348,5.3385,5.3385,5.346,5.346,5.346,5.3571,5.3757,5.372,5.3683,5.3645,5.3794,5.3794,5.3794,5.3794,5.3794,5.372,5.3739,5.3832,5.3777,5.3584,5.3345,5.308,5.3365,5.372,5.3628,5.3107,5.2977,4.8001,4.8001,4.8001,4.8001,4.8001,4.8001,4.8001,4.8001,4.8001,4.8001,4.8001,4.8001,4.8001,4.7968,4.7835,4.7802,4.7802,4.7736,4.7438,4.7006,4.7002,4.6824,4.6821,4.699,4.7339,4.7781,4.8211,4.8615,4.8865,4.9189,4.9559,4.9683,4.9466,4.9039,4.7808,4.7627,4.7627,4.7518,4.6794,4.6576,4.6359,4.5924,4.5743,4.5727,4.5804,4.6045,4.6161,4.6278,4.6374,4.645,4.6452,4.6342,4.6324,4.6838,4.7039,4.7076,4.77,4.8086,4.8233,4.8233,4.8233,4.8269,4.8563,4.882,4.939,4.9647,4.9738,5.0105,5.0618,5.0765,5.1059,5.1426,5.1793,5.205,5.2401,5.259,5.2725,5.2863,5.3038,5.3284,5.3509,5.3753,5.3848,5.3905,5.4017,5.3905,5.3831,5.3831,5.3868,5.3794,5.3831,5.3794,5.3831,5.4054,5.4054,5.398,5.3905,5.3868,5.398,5.4166,5.398,5.3794,5.3794,5.3831,5.3794,5.3813,5.3813,5.3795,5.3607,5.3518,5.3941,5.4221,5.4221,5.4108,5.3808,4.8001,4.8001,4.8001,4.8001,4.8001,4.8001,4.8001,4.8001,4.8001,4.8001,4.8001,4.8001,4.8001,4.8001,4.8001,4.8001,4.8001,4.8001,4.7736,4.7669,4.7667,4.7826,4.7771,4.7781,4.8014,4.8301,4.8706,4.8786,4.8584,4.94,4.9507,4.9564,5.0028,4.951,4.8605,4.8098,4.7699,4.7663,4.7409,4.7301,4.7301,4.7047,4.6866,4.683,4.6871,4.6839,4.69,4.6984,4.7083,4.718,4.722,4.7258,4.7296,4.7773,4.781,4.7846,4.8306,4.86,4.893,4.9114,4.9114,4.915,4.9224,4.9554,5.0251,5.0398,5.0582,5.0875,5.1389,5.1536,5.172,5.2344,5.2711,5.2784,5.3004,5.3004,5.3104,5.3208,5.3404,5.3669,5.3913,5.4716,5.5092,5.4926,5.4909,5.4723,5.4611,5.4203,5.4091,5.3905,5.3831,5.3794,5.3868,5.4203,5.4388,5.4686,5.4946,5.5094,5.5057,5.502,5.4686,5.4166,5.4054,5.4203,5.398,5.3794,5.3943,5.4055,5.4,5.4073,5.4515,5.4545,5.4317,5.4317,5.4259,4.8001,4.8001,4.8001,4.8001,4.8001,4.8001,4.8001,4.8001,4.8001,4.8001,4.8001,4.8001,4.8001,4.8001,4.8001,4.8001,4.8001,4.8001,4.8066,4.8066,4.813,4.8289,4.8435,4.8541,4.8575,4.8747,4.8931,4.8982,4.9079,4.9491,4.9941,5.0271,5.0312,5.0262,4.9655,4.9148,4.8641,4.8713,4.8641,4.8641,4.8496,4.8315,4.8098,4.7989,4.7844,4.7648,4.7804,4.7922,4.8004,4.8145,4.8244,4.8302,4.8323,4.8343,4.8343,4.8306,4.8673,4.915,4.9774,4.9994,5.0105,5.0492,5.0235,5.0435,5.1022,5.1206,5.1463,5.1756,5.2123,5.2307,5.2527,5.3151,5.3298,5.3371,5.3628,5.3665,5.4017,5.416,5.4223,5.4453,5.4724,5.5566,5.6206,5.6115,5.5949,5.5689,5.5391,5.4983,5.4611,5.4463,5.4426,5.4463,5.45,5.4871,5.5354,5.5763,5.6023,5.6246,5.6134,5.5949,5.5429,5.4909,5.4723,5.4648,5.4834,5.4871,5.4445,5.4334,5.4503,5.4745,5.5135,5.4962,5.4507,5.4392,5.4409,4.8001,4.8001,4.8001,4.8001,4.8001,4.8001,4.8001,4.8001,4.8001,4.8001,4.8001,4.8001,4.8001,4.8001,4.8001,4.8001,4.8001,4.8001,4.8066,4.8163,4.826,4.8549,4.8707,4.8824,4.8873,4.9124,4.9286,4.9361,4.9827,5.0177,5.0751,5.128,5.1285,5.1203,5.0923,5.056,5.0039,4.9764,4.9619,4.9604,4.9474,4.922,4.9003,4.8786,4.8532,4.8279,4.8197,4.8172,4.8223,4.8307,4.8353,4.8431,4.8453,4.8416,4.8416,4.8673,4.9297,4.9994,5.0655,5.0802,5.1242,5.1573,5.1316,5.1499,5.1756,5.205,5.2234,5.2564,5.2873,5.3078,5.3335,5.3518,5.3702,5.3995,5.4399,5.473,5.5207,5.5383,5.5404,5.5549,5.575,5.6282,5.6685,5.6763,5.6894,5.6878,5.6692,5.6617,5.6209,5.5726,5.5652,5.5652,5.5726,5.58,5.6246,5.6729,5.7026,5.7249,5.6952,5.6692,5.6172,5.5949,5.5986,5.606,5.6134,5.5912,5.5337,5.5153,5.5248,5.5529,5.5772,5.5731,5.5353,5.4579,5.4446,4.8001,4.8001,4.8001,4.8001,4.8001,4.8001,4.8001,4.8001,4.8001,4.8001,4.8001,4.8001,4.8001,4.8001,4.8001,4.8001,4.8001,4.8001,4.8001,4.8131,4.8292,4.842,4.8612,4.8801,4.8894,4.9049,4.9199,4.9346,4.9492,5.0153,5.1026,5.1494,5.1838,5.2012,5.195,5.19,5.1104,5.0524,5.0365,5.0365,5.0257,4.9945,4.9764,4.9582,4.9401,4.9184,4.9191,4.8814,4.8956,4.9523,4.9127,4.9192,5.0068,5.0105,5.0105,5.0105,5.0435,5.0802,5.1463,5.1646,5.194,5.2601,5.2564,5.2637,5.2784,5.2858,5.2968,5.3203,5.3424,5.3592,5.3922,5.4179,5.4509,5.495,5.5244,5.55,5.5941,5.6073,5.6118,5.6279,5.6482,5.6979,5.7386,5.767,5.7839,5.7934,5.7955,5.7843,5.7621,5.7063,5.6766,5.6729,5.6766,5.684,5.7212,5.7658,5.7955,5.8103,5.7806,5.7658,5.7621,5.7472,5.7435,5.7212,5.684,5.6469,5.606,5.5971,5.6049,5.6105,5.6275,5.6295,5.6122,5.5425,5.501,4.7505,4.7571,4.7902,4.8001,4.8001,4.8001,4.8001,4.8001,4.8001,4.8001,4.8001,4.8001,4.8001,4.8001,4.8001,4.8001,4.8001,4.8001,4.8066,4.8293,4.8293,4.8515,4.8673,4.8801,4.8925,4.8987,4.9018,4.9077,4.9286,5.0039,5.0947,5.0929,5.1835,5.2209,5.2197,5.2123,5.1973,5.143,5.1104,5.1031,5.0945,5.0705,5.056,5.0488,5.0379,5.022,5.0148,4.9568,4.9858,5.0299,4.9758,5.0012,5.0668,5.0725,5.1059,5.1059,5.1279,5.172,5.2307,5.2454,5.2784,5.313,5.3497,5.3665,5.3482,5.3371,5.3518,5.368,5.3849,5.4069,5.4509,5.495,5.5464,5.5978,5.6124,5.6235,5.6418,5.6565,5.6706,5.689,5.7294,5.7808,5.8212,5.8498,5.8619,5.8491,5.8401,5.8401,5.8252,5.7955,5.7732,5.7695,5.7732,5.7806,5.8141,5.8289,5.8401,5.8475,5.8438,5.8401,5.8677,5.8549,5.8141,5.7695,5.7286,5.6989,5.6766,5.6806,5.6866,5.6886,5.7131,5.7472,5.7323,5.6589,5.6306,4.6862,4.6999,4.7704,4.8001,4.8001,4.8001,4.8001,4.8001,4.8001,4.8001,4.8001,4.8001,4.8001,4.8001,4.8001,4.8001,4.8001,4.8001,4.8099,4.8452,4.8388,4.8547,4.8769,4.9055,4.9092,4.9055,4.9086,4.9221,4.9354,4.993,5.0349,5.0017,5.1398,5.1933,5.1626,5.2066,5.2053,5.1909,5.1953,5.2082,5.2045,5.1756,5.1357,5.1249,5.085,5.0438,5.0424,5.0322,5.0315,5.0438,5.0523,5.0686,5.1009,5.1161,5.1568,5.183,5.2087,5.2417,5.2894,5.3188,5.3298,5.3628,5.4032,5.4363,5.4326,5.3592,5.3518,5.4509,5.4876,5.5244,5.5684,5.5794,5.6124,5.6638,5.6932,5.7079,5.7226,5.7336,5.7381,5.7545,5.7685,5.8164,5.8252,5.8486,5.8593,5.8635,5.8677,5.8677,5.8603,5.8475,5.8438,5.8364,5.8326,5.8289,5.8438,5.8549,5.8586,5.8661,5.8677,5.8677,5.8677,5.8677,5.8677,5.8252,5.7843,5.7732,5.7621,5.7624,5.7664,5.7722,5.8062,5.8723,5.8484,5.764,5.7545,4.7168,4.7704,4.7935,4.8001,4.8001,4.8001,4.8001,4.8001,4.8001,4.8001,4.8001,4.8001,4.8001,4.8001,4.8001,4.8001,4.8001,4.8001,4.8033,4.8196,4.8227,4.8452,4.8776,4.9203,4.9266,4.9325,4.939,4.9424,4.9301,4.9669,5.0102,4.9988,5.0947,5.1157,5.0999,5.1525,5.1884,5.1933,5.2304,5.2457,5.2408,5.2408,5.219,5.2118,5.1828,5.1719,5.1597,5.1271,5.1578,5.1827,5.1435,5.1748,5.2358,5.2416,5.259,5.2837,5.2894,5.3115,5.3371,5.3812,5.4069,5.4363,5.4766,5.5097,5.4876,5.3849,5.3922,5.5207,5.6051,5.6455,5.6675,5.6675,5.6748,5.7226,5.7629,5.7813,5.7997,5.7997,5.802,5.8065,5.8133,5.8201,5.829,5.84,5.8508,5.8593,5.8656,5.8677,5.8677,5.8624,5.8586,5.8549,5.8586,5.8624,5.8677,5.8677,5.8677,5.8677,5.8677,5.8677,5.8677,5.8677,5.8677,5.8677,5.8512,5.8289,5.8215,5.8364,5.8442,5.8351,5.8449,5.8905,5.9081,5.8484,5.8634,4.6269,4.7032,4.7704,4.8001,4.8001,4.8001,4.8001,4.8001,4.8001,4.8001,4.8001,4.8001,4.8001,4.8001,4.8001,4.8001,4.8001,4.8001,4.8066,4.8131,4.8196,4.8388,4.8782,4.9177,4.9133,4.919,4.9357,4.9354,4.9141,4.9526,4.9873,4.9762,5.0181,5.0562,5.0507,5.1052,5.1551,5.1662,5.2138,5.241,5.2434,5.248,5.248,5.248,5.248,5.248,5.2408,5.2045,5.22,5.24,5.2177,5.2331,5.2776,5.2898,5.3051,5.3277,5.3482,5.3739,5.3959,5.4399,5.4876,5.517,5.5647,5.6088,5.6235,5.5427,5.5537,5.6675,5.7042,5.7409,5.7409,5.7409,5.7446,5.774,5.785,5.7923,5.7997,5.7997,5.7997,5.802,5.8065,5.8111,5.8201,5.8246,5.8378,5.8529,5.8614,5.8656,5.8677,5.8677,5.8677,5.8677,5.8677,5.8677,5.8677,5.8677,5.8677,5.8677,5.8677,5.8677,5.8677,5.8677,5.8677,5.8677,5.8677,5.864,5.864,5.8677,5.8677,5.857,5.8669,5.8842,5.8982,5.9082,5.9103,4.511,4.602,4.7404,4.8001,4.8001,4.8001,4.8001,4.8001,4.8001,4.8001,4.8001,4.8001,4.8001,4.8001,4.8001,4.8001,4.8001,4.8001,4.8099,4.8098,4.813,4.8292,4.855,4.8875,4.9102,4.9159,4.9187,4.9154,4.9049,4.9411,4.9496,4.9286,4.9669,5.0237,5.0237,5.0678,5.1209,5.1322,5.1651,5.2162,5.234,5.2457,5.248,5.248,5.248,5.248,5.248,5.2625,5.2625,5.2839,5.3004,5.3322,5.3434,5.3632,5.3683,5.3873,5.4246,5.4488,5.4693,5.528,5.5574,5.5941,5.6565,5.6932,5.7079,5.7152,5.7262,5.7446,5.7813,5.796,5.7923,5.7923,5.796,5.7997,5.7997,5.8033,5.8033,5.8033,5.8033,5.8033,5.8056,5.8102,5.8148,5.8193,5.8364,5.848,5.8588,5.8593,5.8656,5.8677,5.8677,5.8677,5.8677,5.8677,5.8698,5.8772,5.8772,5.8677,5.8677,5.8677,5.8677,5.8677,5.8677,5.8677,5.8677,5.8751,5.8714,5.8677,5.8677,5.8772,5.8719,5.8781,5.8922,5.9061,5.9158,4.5337,4.6657,4.7605,4.8001,4.8001,4.8001,4.8001,4.8001,4.8001,4.8001,4.8001,4.8001,4.8001,4.8001,4.8001,4.8001,4.8001,4.8001,4.8001,4.8033,4.8066,4.8196,4.8456,4.8914,4.951,4.9468,4.9255,4.9052,4.9018,4.9138,4.9168,4.9077,4.9077,4.9346,4.9406,4.9902,5.0474,5.0702,5.1088,5.1566,5.2039,5.2234,5.2493,5.248,5.248,5.248,5.2625,5.3168,5.3385,5.3663,5.4,5.4275,5.4405,5.4424,5.4515,5.4627,5.4979,5.5192,5.5544,5.6116,5.6432,5.6638,5.7189,5.7593,5.7666,5.7666,5.774,5.774,5.796,5.796,5.796,5.796,5.7997,5.8033,5.8033,5.8107,5.8143,5.8217,5.829,5.8253,5.8277,5.8277,5.8263,5.8368,5.8592,5.8711,5.8857,5.8884,5.899,5.8863,5.8846,5.8884,5.8921,5.8698,5.8735,5.8884,5.8884,5.8772,5.8809,5.8995,5.8995,5.8714,5.8735,5.9329,5.9069,5.8863,5.8826,5.9107,5.8884,5.8921,5.8772,5.8739,5.892,5.9057,5.9212]}]]